     2              OBSERVATION DATA    GPS                 RINEX VERSION / TYPE
srx/v1.8.1.4 seismo 02/07/17 22:33:47                       PGM / RUN BY / DATE
                                                            COMMENT
sig: 9 8 7 6 5 4 1 0                                        COMMENT
sig: 9 8 7 6 5 4 1 0                                        COMMENT
sig: 9 8 7 6 5 4 1 0                                        COMMENT
sig: 9 8 7 6 5 4 1 0                                        COMMENT
sig: 9 8 7 6 5 4 1 0                                        COMMENT
Original Marker Name: 6106                                  COMMENT
Campaign Name: CSUSB 2002-2003                              COMMENT
4-Character Station Name: 6106                              COMMENT
6-Character Antenna Code: DMRCHT                            COMMENT
Vertical Measurement Point: BCR                             COMMENT
Vertical Offset to Rinex Ref. Point: 0.0348                 COMMENT
Radial Measurement Point: ECF                               COMMENT
Radial Offset to Rinex Ref. Point: 0.1897                   COMMENT
Antenna Height from Field Measurement: 1.1240 m             COMMENT
Additional Antenna Identification Info.:                    COMMENT
Turborogue and Ashtech Choke Ring                           COMMENT
Used plumbob to center.                                     COMMENT
Original XYZ: -2356427.0091 -4663720.6658 3646198.5032      COMMENT
New XYZ position is based on association with SCEC monument COMMENT
E1D0R8B2+0011. Position of that monument is believed to be  COMMENT
valid to within 1 m horizontally; vertical accuracy         COMMENT
should be no worse than 3-times this value.                 COMMENT
                                                            COMMENT
Revised Rinex header created by UCSD GPS archive for        COMMENT
GSAC on 09-Nov-2004 (2004:314) 22:42:38 GMT                 COMMENT
For assistance contact dagnew@ucsd.edu                      COMMENT
or anderson@python.ucsd.edu                                 COMMENT
                                                            COMMENT
GPS 6106                                                    MARKER NAME
6106                                                        MARKER NUMBER
MR CAL STATE SAN BERNARDINO                                 OBSERVER / AGENCY
T262 TURBOROGUE SNR-8000 98.12.27                           REC # / TYPE / VERS
260 DORNE-MARGOL. TYPE T                                    ANT # / TYPE
 -2434645.0000 -4697678.0000  3550112.0000                  APPROX POSITION XYZ
        1.0731        0.0000        0.0000                  ANTENNA: DELTA H/E/N
     1     1     0                                          WAVELENGTH FACT L1/2
     5    L1    L2    P1    P2    C1                        # / TYPES OF OBSERV
    30                                                      INTERVAL
  2002     7     1    17     1    0.000000                  TIME OF FIRST OBS
  2002     7     1    23    59   30.000000                  TIME OF LAST OBS
    18                                                      # OF SATELLITES
          01   124   124     0   124   124                  PRN / # OF OBS
          02    63    63     0    63    63                  PRN / # OF OBS
          03   572   572     0   572   572                  PRN / # OF OBS
          06   110   110     0   110   110                  PRN / # OF OBS
          09   241   241     0   241   241                  PRN / # OF OBS
          11   402   402     0   402   402                  PRN / # OF OBS
          14   733   733     0   733   733                  PRN / # OF OBS
          15   510   510     0   510   510                  PRN / # OF OBS
          17   447   447     0   447   447                  PRN / # OF OBS
          18   585   585     0   585   585                  PRN / # OF OBS
          20   246   246     0   246   246                  PRN / # OF OBS
          21   792   792     0   792   792                  PRN / # OF OBS
          22   130   130     0   130   130                  PRN / # OF OBS
          23   196   196     0   196   196                  PRN / # OF OBS
          25   455   455     0   455   455                  PRN / # OF OBS
          29    41    41     0    41    41                  PRN / # OF OBS
          30   140   140     0   140   140                  PRN / # OF OBS
                                                            END OF HEADER
 02 07 01 17 01 00.0000000  0  2 15 17
        -1.21559        -0.65356         0.00051  20924116.21356  20924113.51259
        -0.45259         0.46856         0.00051  20807877.94356  20807875.67259
 02 07 01 17 01 30.0000000  0  5 06 15 17 18 22
        -0.50459         0.29656         0.00051  20798524.72856  20798522.80359
    -15228.18349    -11865.81246         0.00041  20921218.39646  20921215.86049
       685.26849       534.79346         0.00041  20808008.46846  20808006.05649
        -0.59759        -0.38256         0.00051  20789763.26356  20789761.92159
        -0.04658         0.76454         0.00051  23566539.44454  23566533.44658
 02 07 01 17 02 00.0000000  0  6 06 15 17 18 22 23
     69847.96149     54427.62746         0.00041  20811816.22846  20811814.16249
    -30390.90649    -23680.90646         0.00041  20918332.87446  20918330.41949
      1413.69449      1102.39546         0.00041  20808146.99346  20808144.46149
    -24369.42349    -18989.06746         0.00041  20785125.59746  20785124.67349
     29223.00448     22771.94145         0.00041  23572100.51445  23572095.48048
        -0.02059         0.42856         0.00051  21931772.23756  21931769.70959
 02 07 01 17 02 30.0000000  0  6 06 15 17 18 22 23
    138114.86449    107622.57046         0.00041  20824807.17946  20824805.04449
    -47423.84549    -36953.31646         0.00041  20915091.51946  20915089.13349
       250.83449       196.26746         0.00041  20807925.82046  20807923.52049
    -50356.83549    -39238.99246         0.00041  20780180.05146  20780179.26749
     56892.44248     44332.49545         0.00041  23577366.49445  23577360.92148
     83767.12949     65273.49446         0.00041  21947712.47346  21947709.85549
 02 07 01 17 03 00.0000000  0  6 06 15 17 18 22 23
    193500.63649    150780.27946         0.00041  20835346.78746  20835344.55849
    -77625.02149    -60486.67746         0.00041  20909344.45946  20909342.33249
    -14101.72349    -10987.53846         0.00041  20805194.58746  20805192.18449
    -89261.57049    -69554.35446         0.00041  20772776.54546  20772775.79549
     71708.20848     55877.25045         0.00041  23580186.54745  23580180.60748
    154389.94749    120304.23346         0.00041  21961151.89346  21961148.92849
 02 07 01 17 03 30.0000000  0  6 06 15 17 18 22 23
    240666.30549    187532.70046         0.00041  20844322.12946  20844319.99649
   -116332.22849    -90648.12146         0.00041  20901978.88846  20901976.58749
    -36981.75349    -28816.13346         0.00041  20800840.56046  20800838.43749
   -136421.76649   -106302.55146         0.00041  20763802.49446  20763801.72249
     78331.11548     61037.94345         0.00041  23581447.82145  23581441.09148
    216528.21949    168723.62846         0.00041  21972975.78746  21972973.60949
 02 07 01 17 04 00.0000000  0  6 06 15 17 18 22 23
    280254.66049    218380.71646         0.00041  20851855.79046  20851853.59449
   -162901.44449   -126935.80746         0.00041  20893117.23346  20893114.72949
    -67744.99749    -52787.49046         0.00041  20794986.65846  20794984.41649
   -191193.44649   -148981.76746         0.00041  20753379.70546  20753379.06949
     77403.37648     60315.00645         0.00041  23581270.86345  23581264.58848
    270823.55949    211031.65446         0.00041  21983308.49146  21983306.20949
 02 07 01 17 04 30.0000000  0  6 06 15 17 18 22 23
    321401.94649    250443.48946         0.00041  20859685.88846  20859683.80649
   -208195.44749   -162229.81446         0.00041  20884497.70846  20884495.55349
    -97254.12549    -75781.60546         0.00041  20789370.78246  20789368.84049
   -244439.46049   -190472.14946         0.00041  20743247.17546  20743246.56549
     78060.78848     60827.23445         0.00041  23581394.31745  23581390.22648
    326410.97749    254346.50846         0.00041  21993885.65646  21993883.97949
 02 07 01 17 05 00.0000000  0  6 06 15 17 18 22 23
    366654.57349    285705.22946         0.00041  20868297.18246  20868295.04149
   -249666.22349   -194544.68546         0.00041  20876606.04946  20876603.85849
   -122961.26349    -95813.13846         0.00041  20784479.40746  20784477.15549
   -293612.57449   -228788.84946         0.00041  20733889.71146  20733889.10649
     82849.45748     64558.66444         0.00041  23582305.44444  23582300.82848
    385835.64049    300651.41546         0.00041  22005194.40846  22005191.69649
 02 07 01 17 05 30.0000000  0  7 03 06 15 17 18 22 23
        -0.06258         0.85051         0.00051         0.00051  25228978.05258
    415343.74549    323644.79946         0.00041  20877562.95846  20877560.01349
   -287981.24049   -224400.53146         0.00041  20869315.03546  20869312.77149
   -145533.86849   -113402.18246         0.00041  20780183.65846  20780181.49549
   -339380.19949   -264451.92546         0.00041  20725180.85846  20725180.16749
     91099.98948     70987.62244         0.00041  23583876.17544  23583870.49948
    448427.53949    349424.28946         0.00041  22017104.82946  22017102.75449
 02 07 01 17 06 00.0000000  0  6 06 15 17 18 22 23
    466473.61049    363486.20046         0.00041  20887292.63146  20887289.76749
   -324134.99849   -252572.27546         0.00041  20862435.42946  20862432.90249
   -165966.38649   -129323.62646         0.00041  20776295.39746  20776293.46549
   -382737.41349   -298236.75946         0.00041  20716930.45646  20716929.66749
    101816.33848     79337.99144         0.00041  23585912.73444  23585908.78848
    513189.91649    399888.44846         0.00041  22029428.85746  22029426.45449
 02 07 01 17 06 30.0000000  0  6 06 15 17 18 22 23
    519297.19249    404647.38246         0.00041  20897344.27746  20897342.09349
   -358873.23849   -279641.02046         0.00041  20855824.68946  20855822.34249
   -185004.35949   -144158.40446         0.00041  20772672.49046  20772670.64249
   -424430.29549   -330724.70547         0.00041  20708996.50347  20708995.45049
    114250.91048     89027.22644         0.00041  23588280.69444  23588276.56948
    579374.42548    451460.75146         0.00041  22042023.29346  22042020.68548
 02 07 01 17 07 00.0000000  0  6 06 15 17 18 22 23
    573448.14649    446842.88246         0.00041  20907648.83946  20907646.77549
   -392560.95649   -305891.17246         0.00041  20849414.35646  20849412.04849
   -203012.72049   -158190.89046         0.00041  20769245.80646  20769243.70949
   -464824.16749   -362200.44446         0.00041  20701309.29946  20701308.76849
    128036.98448     99769.57844         0.00041  23590902.80244  23590899.58248
    646613.81548    503855.04646         0.00041  22054818.61446  22054816.09648
 02 07 01 17 07 30.0000000  0  6 06 15 17 18 22 23
    629103.50349    490210.64946         0.00041  20918239.99446  20918237.72149
   -425019.46849   -331183.50046         0.00041  20843237.62646  20843235.16849
   -219813.00649   -171282.01746         0.00041  20766048.77746  20766046.66549
   -503740.87449   -392525.14146         0.00041  20693903.74446  20693903.20549
    143351.26848    111702.72644         0.00041  23593817.86644  23593814.53348
    715084.00749    557208.40546         0.00041  22067848.40746  22067846.18449
 02 07 01 17 08 00.0000000  0  6 06 15 17 18 22 23
    685802.78249    534391.84946         0.00041  20929029.60546  20929027.48149
   -456708.04849   -355875.88646         0.00041  20837207.72946  20837205.15449
   -235864.17749   -183789.42046         0.00041  20762994.39546  20762992.32049
   -541640.27049   -422057.12346         0.00041  20686691.80046  20686691.19049
    159732.72748    124467.45245         0.00041  23596935.13945  23596931.21048
    784323.44249    611161.18046         0.00041  22081024.08946  22081021.61049
 02 07 01 17 08 30.0000000  0  7 03 06 15 17 18 22 23
        -0.02558         0.00051         0.00051         0.00051  25107397.38958
    743403.66949    579275.60446         0.00041  20939990.54046  20939988.31249
   -487767.47049   -380078.02046         0.00041  20831296.90846  20831294.38549
   -251307.03949   -195822.81946         0.00041  20760055.73946  20760053.44949
   -578663.69349   -450906.52746         0.00041  20679646.34746  20679645.82549
    177038.61948    137952.52145         0.00041  23600230.67145  23600224.82748
    854188.92249    665601.78346         0.00041  22094319.55346  22094316.67749
 02 07 01 17 09 00.0000000  0  7 03 06 15 17 18 22 23
   -104162.64848         0.00041         0.00041         0.00041  25087576.29548
    801777.41349    624761.58546         0.00041  20951098.72746  20951096.47049
   -518325.00449   -403889.07346         0.00041  20825481.95346  20825479.54549
   -266268.89749   -207481.40846         0.00041  20757208.81746  20757206.51249
   -614938.36649   -479172.49246         0.00041  20672743.53746  20672743.06049
    195139.88448    152057.34745         0.00041  23603676.53745  23603669.28948
    924550.79949    720429.18646         0.00041  22107708.49846  22107706.30149
 02 07 01 17 09 30.0000000  0  6 06 15 17 18 22 23
    860835.98349    670781.20146         0.00041  20962337.34346  20962335.30149
   -548467.09249   -427376.40246         0.00041  20819746.13146  20819743.50049
   -280836.03349   -218832.42346         0.00041  20754436.68746  20754434.38549
   -650551.31949   -506922.83346         0.00041  20665966.68646  20665966.13349
    213948.02548    166713.01345         0.00041  23607254.04745  23607248.15848
    995319.84948    775573.86546         0.00041  22121175.48646  22121173.09648
 02 07 01 17 10 00.0000000  0  7 03 06 15 17 18 22 23
        -0.17658         0.00051         0.00051         0.00051  25048095.82458
    920530.24849    717296.16846         0.00041  20973696.68846  20973694.47949
   -578241.30949   -450577.08446         0.00041  20814080.34046  20814077.68349
   -295056.03449   -229912.93546         0.00041  20751730.65546  20751728.28449
   -685550.89649   -534195.21347         0.00041  20659306.64147  20659305.78749
    233413.38448    181880.78745         0.00041  23610957.87745  23610952.61048
   1066445.99648    830996.80746         0.00041  22134710.47946  22134707.87948
 02 07 01 17 10 30.0000000  0  7 03 06 15 17 18 22 23
   -103403.73148         0.00041         0.00041         0.00041  25028418.45848
    980806.98149    764264.99746         0.00041  20985166.83746  20985164.33749
   -607699.29349   -473531.35146         0.00041  20808474.50546  20808472.07549
   -308980.65749   -240763.28646         0.00041  20749080.91246  20749078.51149
   -719989.48749   -561030.45847         0.00041  20652753.23547  20652752.46549
    253482.50648    197519.03745         0.00041  23614778.03545  23614770.85648
   1137875.21948    886655.91346         0.00041  22148302.71246  22148300.48048
 02 07 01 17 11 00.0000000  0  7 03 06 15 17 18 22 23
   -206652.59148         0.00041         0.00041         0.00041  25008770.87648
   1041613.26249    811646.46446         0.00041  20996737.77946  20996735.56949
   -636892.50749   -496279.30546         0.00041  20802919.41746  20802916.99149
   -322660.93649   -251423.24346         0.00041  20746477.73846  20746475.42149
   -753918.64349   -587468.74547         0.00041  20646296.45547  20646295.95249
    274101.85448    213586.03145         0.00041  23618701.82545  23618694.14548
   1209553.57548    942509.13746         0.00041  22161942.91546  22161940.24948
 02 07 01 17 11 30.0000000  0  7 03 06 15 17 18 22 23
   -309716.31748         0.00041         0.00041         0.00041  24989158.23848
   1102976.24349    859461.72546         0.00041  21008414.93146  21008412.67649
   -665792.22349   -518798.55646         0.00041  20797419.89746  20797417.62849
   -336068.17249   -261870.43546         0.00041  20743926.42346  20743924.26649
   -787310.37549   -613488.26147         0.00041  20639942.38047  20639941.62549
    295298.22048    230102.64245         0.00041  23622733.59245  23622728.16548
   1281507.42348    998577.03246         0.00041  22175635.28146  22175633.02948
 02 07 01 17 12 00.0000000  0  7 03 06 15 17 18 22 23
   -412636.30848         0.00041         0.00041         0.00041  24969573.09748
   1164850.83049    907675.63446         0.00041  21020189.59146  21020187.31949
   -694441.80049   -541122.89946         0.00041  20791967.97846  20791965.89949
   -349245.74449   -272138.66846         0.00041  20741418.78946  20741416.56349
   -820208.77549   -639123.35947         0.00041  20633682.17847  20633681.19649
    317026.09248    247033.39844         0.00041  23626869.35744  23626863.43948
   1353690.76948   1054823.75246         0.00041  22189371.82846  22189368.82748
 02 07 01 17 12 30.0000000  0  7 03 06 15 17 18 22 23
   -515478.35748         0.00041         0.00041         0.00041  24950002.82248
   1227167.51049    956234.02946         0.00041  21032048.18046  21032046.31149
   -722908.97649   -563305.10646         0.00041  20786550.82546  20786548.79649
   -362261.66649   -282280.94346         0.00041  20738941.91146  20738939.65749
   -852682.17349   -664427.28647         0.00041  20627502.69947  20627501.96049
    339215.44948    264323.73744         0.00041  23631089.80644  23631086.43648
   1426033.34948   1111194.55846         0.00041  22203138.27246  22203135.61648
 02 07 01 17 13 00.0000000  0  5 06 15 17 18 23
   1289966.67349   1005168.38946         0.00041  21043998.29346  21043996.52349
   -751151.82349   -585312.51446         0.00041  20781176.47046  20781174.28149
   -375073.47949   -292264.17046         0.00041  20736503.64646  20736501.59249
   -884689.51149   -689368.05947         0.00041  20621411.42947  20621410.77449
   1498574.67548   1167720.23546         0.00041  22216942.36946  22216940.28448
 02 07 01 17 13 30.0000000  0  7 03 06 15 17 18 21 23
        -0.67358         0.07354         0.00051  24910937.22554  24910931.30258
   1353238.55349   1054471.10746         0.00041  21056038.77646  21056036.38149
   -779178.26349   -607151.29346         0.00041  20775843.13346  20775841.03049
   -387689.37149   -302094.72846         0.00041  20734102.76946  20734100.87449
   -916238.96549   -713952.03446         0.00041  20615407.91646  20615407.18849
        -0.65858        -0.88556         0.00051  22787465.44156  22787462.02658
   1571304.26448   1224392.60146         0.00041  22230781.90146  22230779.64548
 02 07 01 17 14 00.0000000  0  6 06 15 17 18 21 23
   1416992.33149   1104149.31946         0.00041  21068170.82646  21068168.08849
   -806977.56349   -628813.08146         0.00041  20770553.04946  20770551.07349
   -400098.42149   -311764.10846         0.00041  20731741.50246  20731739.41749
   -947320.63649   -738171.50247         0.00041  20609493.37747  20609492.83649
    -65671.27848    -51172.75946         0.00041  22774968.68246  22774964.89148
   1644230.26848   1281218.03246         0.00041  22244659.45046  22244657.08648
 02 07 01 17 14 30.0000000  0  7 03 06 15 17 18 21 23
        -0.37758        -0.00354         0.00051  24871955.97554  24871951.36558
   1481212.60249   1154191.03746         0.00041  21080391.70546  21080389.51049
   -834563.36249   -650308.50346         0.00041  20765303.66146  20765301.50349
   -412314.28849   -321282.96246         0.00041  20729417.12746  20729414.75149
   -977948.93649   -762037.69447         0.00041  20603664.85247  20603664.34649
   -131049.17148   -102116.52346         0.00041  22762527.46446  22762523.53648
   1717336.77348   1338184.10046         0.00041  22258571.31946  22258568.28948
 02 07 01 17 15 00.0000000  0  7 03 06 15 17 18 21 23
   -102258.59648    -79681.59144         0.00041  24852496.59144  24852491.72248
   1545883.74949   1204584.08146         0.00041  21092698.59546  21092695.95649
   -861949.37249   -671648.24946         0.00041  20760092.58446  20760090.10949
   -424350.57049   -330661.87846         0.00041  20727126.36546  20727124.24449
  -1008138.34449   -785561.89347         0.00041  20597919.77747  20597919.23349
   -196148.29048   -152843.05646         0.00041  22750139.20746  22750135.46748
   1790607.36748   1395278.03646         0.00041  22272513.88446  22272511.74048
 02 07 01 17 15 30.0000000  0  7 03 06 15 17 18 21 23
   -204298.73648   -159193.26444         0.00041  24833081.08044  24833074.12848
   1611116.77949   1255414.95946         0.00041  21105111.71846  21105109.41549
   -889022.88849   -692744.49046         0.00041  20754940.59046  20754938.05949
   -436094.64149   -339813.09646         0.00041  20724891.98146  20724889.68349
  -1037776.82049   -808656.79347         0.00041  20592279.80247  20592279.43249
   -260855.53148   -203264.23046         0.00041  22737826.11946  22737821.88748
   1864152.18348   1452585.65346         0.00041  22286508.97446  22286506.89348
 02 07 01 17 16 00.0000000  0  7 03 06 15 17 18 21 23
   -306243.76548   -238630.81844         0.00041  24813681.16344  24813674.51548
   1676784.64149   1306584.67046         0.00041  21117607.77046  21117605.09749
   -915909.34749   -713694.97046         0.00041  20749824.06546  20749821.62249
   -447671.57249   -348834.07946         0.00041  20722688.95046  20722686.94249
  -1066990.45249   -831420.64847         0.00041  20586720.78447  20586720.10749
   -325297.04748   -253478.35546         0.00041  22725563.66646  22725558.81648
   1937843.75548   1510007.61746         0.00041  22300532.21546  22300530.07248
 02 07 01 17 16 30.0000000  0  7 03 06 15 17 18 21 23
   -408212.17848   -318086.61944         0.00041  24794273.35244  24794270.00948
   1742765.49049   1357998.26246         0.00041  21130163.59246  21130161.05049
   -942728.45949   -734592.97646         0.00041  20744720.94046  20744718.11549
   -459201.18949   -357818.19846         0.00041  20720494.59846  20720492.70849
  -1095899.96949   -853947.53347         0.00041  20581219.61947  20581219.13649
   -389592.59848   -303578.72046         0.00041  22713328.11646  22713324.09048
   2011559.63948   1567448.54846         0.00041  22314560.64246  22314557.58248
 02 07 01 17 17 00.0000000  0  7 03 06 15 17 18 21 23
   -510116.24448   -397492.23841         0.00041         0.00041  24774878.58148
   1809143.50549   1409721.32746         0.00041  21142794.89646  21142792.46849
   -969394.14549   -755371.43146         0.00041  20739646.58046  20739643.85949
   -470597.47049   -366698.41346         0.00041  20718326.27246  20718324.31049
  -1124419.99949   -876170.92446         0.00041  20575792.17746  20575791.62449
   -453656.51548   -353498.60646         0.00041  22701136.41046  22701132.96448
   2085383.22048   1624973.37046         0.00041  22328608.70246  22328605.79348
 02 07 01 17 17 30.0000000  0  7 03 06 15 17 18 21 23
   -611818.88348   -476740.93944         0.00041  24755530.94544  24755525.61348
   1876051.99349   1461857.74446         0.00041  21155527.54146  21155525.16249
   -995771.33149   -775925.07446         0.00041  20734626.95546  20734624.67449
   -481725.29249   -375369.44746         0.00041  20716208.94246  20716206.86349
  -1152416.09849   -897986.05447         0.00041  20570464.70747  20570464.16449
   -517353.81248   -403132.80346         0.00041  22689016.60046  22689012.24548
   2159447.31348   1682685.61446         0.00041  22342702.44946  22342699.46348
 02 07 01 17 18 00.0000000  0  7 03 06 15 17 18 21 23
   -713404.72848   -555898.60044         0.00041  24736197.13644  24736193.75048
   1943402.80649   1514338.83246         0.00041  21168344.29946  21168341.33949
  -1021946.51849   -796321.31646         0.00041  20729646.00946  20729643.65449
   -492670.90749   -383898.49546         0.00041  20714125.93146  20714123.81849
  -1179975.84749   -919461.16647         0.00041  20565220.39747  20565219.87149
   -580770.95348   -452548.69746         0.00041  22676948.69846  22676944.30348
   2233663.01248   1740515.99746         0.00041  22356825.81446  22356822.74048
 02 07 01 17 18 30.0000000  0  6 06 15 17 18 21 23
   2011220.81449   1567183.96846         0.00041  21181249.30446  21181246.28749
  -1047892.93249   -816539.29346         0.00041  20724708.51646  20724706.34649
   -503407.50249   -392264.67146         0.00041  20712082.89746  20712080.58249
  -1207073.28249   -940576.03347         0.00041  20560063.98147  20560063.36649
   -643881.45748   -501725.65446         0.00041  22664938.16246  22664934.30248
   2308054.52848   1798483.37046         0.00041  22370981.46646  22370978.82348
 02 07 01 17 19 00.0000000  0  7 03 06 15 17 18 21 23
        -0.25657         0.66751         0.00051         0.00051  24697616.09957
   2079508.81949   1620395.34046         0.00041  21194244.71646  21194241.74449
  -1073605.70249   -836575.21046         0.00041  20719815.55346  20719813.37349
   -513930.21549   -400464.18846         0.00041  20710080.49446  20710078.00549
  -1233704.68149   -961327.75647         0.00041  20554995.91747  20554995.42349
   -706680.92248   -550660.24846         0.00041  22652987.38346  22652983.36748
   2382624.36348   1856589.68346         0.00041  22385171.62146  22385168.86148
 02 07 01 17 19 30.0000000  0  7 03 06 15 17 18 21 23
   -101179.43748    -78840.16541         0.00041         0.00041  24678361.57448
   2148220.87249   1673937.14346         0.00041  21207319.86346  21207316.99049
  -1099129.03749   -856463.51446         0.00041  20714958.53546  20714956.44349
   -524282.82349   -408531.15746         0.00041  20708110.62146  20708108.11649
  -1259914.80249   -981751.21347         0.00041  20550008.35647  20550007.76249
   -769213.37048   -599386.77246         0.00041  22641087.76046  22641083.89248
   2457325.84848   1914798.59546         0.00041  22399386.42446  22399384.39048
 02 07 01 17 20 00.0000000  0  7 03 06 15 17 18 21 23
   -202282.49548   -157621.70244         0.00041  24659129.05244  24659121.86248
   2217319.53649   1727780.19346         0.00041  21220468.81946  21220466.38749
  -1124497.92349   -876231.46646         0.00041  20710131.18346  20710128.92649
   -534500.97849   -416493.35746         0.00041  20706166.16946  20706163.71149
  -1285739.67449  -1001874.47647         0.00041  20545094.20747  20545093.54949
   -831514.67948   -647933.19446         0.00041  22629232.14346  22629228.80748
   2532121.22448   1973080.67746         0.00041  22413620.36646  22413617.38448
 02 07 01 17 20 30.0000000  0  7 03 06 15 17 18 21 23
   -303294.80548   -236332.43444         0.00041  24639903.66844  24639899.15948
   2286815.67849   1781932.96246         0.00041  21233693.52546  21233691.04649
  -1149699.76249   -895869.23846         0.00041  20705335.57046  20705333.16349
   -544571.62649   -424340.61746         0.00041  20704249.49846  20704247.36049
  -1311167.50249  -1021688.36146         0.00041  20540255.34946  20540255.00549
   -893572.03448   -696289.50946         0.00041  22617423.11946  22617419.96948
   2607020.96948   2031444.07746         0.00041  22427873.22746  22427871.05248
 02 07 01 17 21 00.0000000  0  7 03 06 15 17 18 21 23
   -404208.08648   -314966.04644         0.00041  24620701.36144  24620696.47748
   2356713.85749   1836399.00246         0.00041  21246994.66846  21246991.94649
  -1174727.78049   -915371.61346         0.00041  20700572.89346  20700570.51549
   -554488.00849   -432067.67046         0.00041  20702362.60246  20702360.17949
  -1336192.55649  -1041188.36547         0.00041  20535493.69347  20535492.81249
   -955379.25448   -744450.91646         0.00041  22605661.66546  22605658.80548
   2682029.07648   2089891.92546         0.00041  22442146.38846  22442144.14348
 02 07 01 17 21 30.0000000  0  7 03 06 15 17 18 21 23
   -505026.09848   -393525.38944         0.00041  24601516.30244  24601512.11148
   2427006.50149   1891172.42246         0.00041  21260371.06546  21260368.21349
  -1199587.70849   -934742.96546         0.00041  20695842.03046  20695839.68749
   -564255.75149   -439678.90246         0.00041  20700504.12446  20700501.35049
  -1360821.65949  -1060379.87047         0.00041  20530806.34547  20530805.76649
  -1016942.00248   -792421.81946         0.00041  22593946.39946  22593943.12048
   2757137.39848   2148417.85846         0.00041  22456439.45546  22456436.82748
 02 07 01 17 22 00.0000000  0  7 03 06 15 17 18 21 23
   -605694.43948   -471968.17644         0.00041  24582361.85744  24582355.18048
   2497744.22849   1946292.66546         0.00041  21273832.38746  21273829.65549
  -1224226.93449   -953942.35646         0.00041  20691153.25546  20691150.90949
   -573822.15949   -447133.25146         0.00041  20698683.23946  20698680.99649
  -1385003.14649  -1079222.57347         0.00041  20526204.92647  20526204.53249
  -1078208.07648   -840161.55446         0.00041  22582288.22046  22582285.19548
   2832396.17748   2207061.02746         0.00041  22470760.76346  22470757.71648
 02 07 01 17 22 30.0000000  0  7 03 06 15 17 18 21 23
   -706197.55448   -550282.15744         0.00041  24563235.60444  24563229.72548
   2568938.81649   2001768.90646         0.00041  21287380.40046  21287377.23249
  -1248631.55349   -972958.93346         0.00041  20686509.31446  20686506.70749
   -583173.19549   -454419.77546         0.00041  20696903.99346  20696901.66549
  -1408723.94849  -1097706.30147         0.00041  20521691.06247  20521690.53849
  -1139164.20348   -887659.77346         0.00041  22570689.45746  22570684.81948
   2907816.88948   2265830.37146         0.00041  22485112.89246  22485109.91248
 02 07 01 17 23 00.0000000  0  7 03 06 15 17 18 21 23
   -806559.37648   -628486.07744         0.00041  24544138.79744  24544131.50448
   2640561.92349   2057579.05246         0.00041  21301009.95646  21301006.86749
  -1272827.43549   -991812.86346         0.00041  20681905.02146  20681902.53949
   -592335.01149   -461558.85246         0.00041  20695160.69346  20695158.17249
  -1432011.57649  -1115852.48847         0.00041  20517259.64347  20517259.06149
  -1199836.66248   -934936.97046         0.00041  22559143.16946  22559138.47448
   2983370.89748   2324703.59246         0.00041  22499489.83946  22499487.63248
 02 07 01 17 23 30.0000000  0  7 03 06 15 17 18 21 23
   -906790.38448   -706588.03744         0.00041  24525063.23844  24525057.53548
   2712599.51249   2113712.16946         0.00041  21314718.27946  21314715.34649
  -1296826.79849  -1010513.66046         0.00041  20677338.22446  20677335.50949
   -601319.69349   -468559.90946         0.00041  20693450.70646  20693448.38149
  -1454879.01449  -1133671.25247         0.00041  20512907.82847  20512907.34849
  -1260238.43048   -982003.24246         0.00041  22547649.77346  22547644.45748
   3059043.62348   2383669.31846         0.00041  22513890.13146  22513887.71148
 02 07 01 17 24 00.0000000  0  7 03 06 15 17 18 21 23
  -1006882.11748   -784581.50944         0.00041  24506022.09144  24506016.11348
   2785056.60249   2170172.16446         0.00041  21328506.16946  21328503.62149
  -1320622.63149  -1029055.86246         0.00041  20672809.66146  20672807.60849
   -610119.80049   -475417.13446         0.00041  20691776.18846  20691774.05349
  -1477320.06149  -1151157.77047         0.00041  20508637.25247  20508636.81949
  -1320361.93548  -1028852.68846         0.00041  22536208.45446  22536203.95248
   3134839.91248   2442731.30746         0.00041  22528314.39346  22528311.55048
 02 07 01 17 24 30.0000000  0  7 03 06 15 17 18 21 23
  -1107444.98248         0.00041         0.00041         0.00041  24486982.97348
   2857905.73649   2226937.65046         0.00041  21342368.65946  21342366.09649
  -1344240.08349  -1047459.06546         0.00041  20668315.51446  20668313.13649
   -618760.60849   -482150.23546         0.00041  20690131.79946  20690129.66149
  -1499360.97849  -1168332.50047         0.00041  20504443.25247  20504442.64949
  -1380233.22248  -1075505.59246         0.00041  22524814.83246  22524811.28648
   3210732.12748   2501868.06046         0.00041  22542755.76946  22542753.03348
 02 07 01 17 25 00.0000000  0  7 06 15 17 18 21 23 29
   2931175.43549   2284030.84046         0.00041  21356311.39146  21356308.97249
  -1367648.37849  -1065699.29246         0.00041  20663861.12746  20663858.57749
   -627211.26049   -488735.16246         0.00041  20688523.72246  20688521.63749
  -1520972.41549  -1185172.56647         0.00041  20500330.70547  20500329.99749
  -1439822.34148  -1121938.62446         0.00041  22513475.06746  22513471.87948
   3286748.37348   2561101.45246         0.00041  22557221.45246  22557218.23448
        -0.63658        -0.44056         0.00051  23072932.67956  23072930.23158
 02 07 01 17 25 30.0000000  0  7 06 15 17 18 21 23 29
   3004832.71349   2341426.04346         0.00041  21370328.02746  21370325.84849
  -1390878.36649  -1083800.57546         0.00041  20659440.63046  20659438.29149
   -635502.48349   -495195.86146         0.00041  20686945.95546  20686943.89549
  -1542186.11149  -1201702.70647         0.00041  20496293.72247  20496293.13449
  -1499160.30348  -1168175.93746         0.00041  22502183.53546  22502180.45748
   3362855.47548   2620405.64046         0.00041  22571704.11446  22571701.13048
     53310.11948     41540.39145         0.00041  23083078.07145  23083075.17748
 02 07 01 17 26 00.0000000  0  8 03 06 15 17 18 21 23 29
        -0.08758         1.10754         0.00051  24430089.40854  24430082.01758
   3078961.57749   2399188.71446         0.00041  21384434.64246  21384432.09749
  -1413843.76749  -1101695.69046         0.00041  20655070.33346  20655068.19049
   -643547.95949   -501465.07246         0.00041  20685415.00346  20685412.66649
  -1562916.90749  -1217856.56347         0.00041  20492349.01747  20492348.63349
  -1558161.29948  -1214150.68546         0.00041  22490955.56946  22490952.47748
   3439137.31148   2679845.98646         0.00041  22586219.42846  22586217.61448
    107151.04048     83494.33145         0.00041  23093322.63445  23093320.86348
 02 07 01 17 26 30.0000000  0  8 03 06 15 17 18 21 23 29
    -99284.78148    -77363.49544         0.00041  24411196.72744  24411188.86348
   3153565.43849   2457321.51746         0.00041  21398631.01246  21398628.54149
  -1436538.84049  -1119380.15446         0.00041  20650751.50246  20650749.58449
   -651341.96849   -507538.33346         0.00041  20683931.53446  20683929.64849
  -1583160.25449  -1233630.59247         0.00041  20488496.83547  20488496.24349
  -1616819.67048  -1259858.45446         0.00041  22479793.09146  22479789.71348
   3515596.85348   2739424.80846         0.00041  22600769.32246  22600766.92148
    161525.61748    125864.09845         0.00041  23103669.36845  23103667.85048
 02 07 01 17 27 00.0000000  0  8 03 06 15 17 18 21 23 29
   -198546.38648   -154710.05844         0.00041  24392307.51044  24392300.20248
   3228448.23249   2515671.67746         0.00041  21412881.47446  21412878.44049
  -1459157.62949  -1137005.17646         0.00041  20646447.31946  20646445.28249
   -659078.33049   -513566.67246         0.00041  20682459.67146  20682457.51849
  -1603111.15549  -1249176.73747         0.00041  20484700.45447  20484699.67049
  -1675329.82148  -1305450.73946         0.00041  22468659.38046  22468654.86148
   3592037.76548   2798989.10646         0.00041  22615315.95946  22615313.24348
    216237.41648    168496.64645         0.00041  23114079.86245  23114079.07548
 02 07 01 17 27 30.0000000  0  8 03 06 15 17 18 21 23 29
   -297668.26848   -231947.79244         0.00041  24373440.00444  24373437.92648
   3303722.59949   2574326.95446         0.00041  21427205.63646  21427202.44149
  -1481585.31649  -1154481.28646         0.00041  20642179.53146  20642177.41349
   -666641.97549   -519460.42746         0.00041  20681020.24846  20681018.19049
  -1622656.21949  -1264406.65047         0.00041  20480981.14847  20480980.26549
  -1733577.75848  -1350838.70546         0.00041  22457575.45346  22457570.66248
   3668572.71448   2858626.68646         0.00041  22629879.85546  22629877.19548
    271399.11348    211479.77245         0.00041  23124578.49345  23124575.43548
 02 07 01 17 28 00.0000000  0  8 03 06 15 17 18 21 23 29
   -396624.66048   -309056.52944         0.00041  24354611.74544  24354607.04948
   3379410.14848   2633304.19346         0.00041  21441608.34646  21441605.24548
  -1503797.69649  -1171789.62746         0.00041  20637952.56246  20637950.45949
   -674009.00449   -525200.97546         0.00041  20679618.34446  20679616.58649
  -1641772.38949  -1279302.36147         0.00041  20477343.18547  20477342.63949
  -1791539.99648  -1396004.05646         0.00041  22446545.29046  22446541.21148
   3745223.23848   2918354.33846         0.00041  22644465.94046  22644463.82248
    327032.41448    254830.35345         0.00041  23135164.80545  23135162.58348
 02 07 01 17 28 30.0000000  0  8 03 06 15 17 18 21 23 29
   -495418.65548   -386038.74944         0.00041  24335813.07744  24335806.89348
   3455503.71449   2692597.80746         0.00041  21456088.83846  21456085.98149
  -1525799.72749  -1188934.05846         0.00041  20633765.72346  20633763.73349
   -681184.13249   -530791.99346         0.00041  20678253.06346  20678251.11849
  -1660465.86849  -1293868.70647         0.00041  20473785.90047  20473785.48549
  -1849222.03448  -1440951.05846         0.00041  22435568.32446  22435564.83248
   3821981.89048   2978166.23146         0.00041  22659073.30446  22659070.19148
    383129.94048    298542.66845         0.00041  23145839.80545  23145837.92548
 02 07 01 17 29 00.0000000  0  8 03 06 15 17 18 21 23 29
   -594063.97548   -462905.11144         0.00041  24317041.31344  24317035.35048
   3531985.59549   2752194.00346         0.00041  21470642.68746  21470640.24749
  -1547606.76549  -1205926.54746         0.00041  20629616.11546  20629613.90049
   -688182.84149   -536245.54146         0.00041  20676921.30446  20676919.20849
  -1678753.62649  -1308118.90147         0.00041  20470305.89647  20470305.26549
  -1906639.79548  -1485692.12646         0.00041  22424642.70246  22424639.15048
   3898830.64948   3038048.34046         0.00041  22673697.02546  22673693.96348
    439673.79848    342602.77345         0.00041  23156599.59945  23156598.07748
 02 07 01 17 29 30.0000000  0  8 03 06 15 17 18 21 23 29
   -692550.64948   -539647.92244         0.00041  24298299.24644  24298293.54948
   3608861.57449   2812097.28446         0.00041  21485271.91846  21485269.01449
  -1569210.65049  -1222760.73446         0.00041  20625505.07946  20625502.81449
   -694996.84949   -541555.17046         0.00041  20675624.73146  20675622.58549
  -1696628.58149  -1322047.43247         0.00041  20466904.44547  20466903.98049
  -1963785.77248  -1530221.41446         0.00041  22413768.52646  22413764.92648
   3975775.36648   3098005.20146         0.00041  22688339.22046  22688336.03248
    496669.86848    387015.24945         0.00041  23167445.27345  23167443.91048
 02 07 01 17 30 00.0000000  0  8 03 06 15 17 18 21 23 29
   -790798.58148   -616204.61844         0.00041  24279603.17044  24279598.08748
   3686207.60949   2872366.84846         0.00041  21499990.26046  21499987.43849
  -1590533.06149  -1239375.59146         0.00041  20621447.57846  20621445.08949
   -701547.84649   -546659.85146         0.00041  20674378.10546  20674375.95549
  -1714013.77549  -1335594.33147         0.00041  20463596.18147  20463595.72949
  -2020581.96848  -1574478.14946         0.00041  22402960.11946  22402956.51948
   4052891.92248   3158095.96846         0.00041  22703014.07346  22703010.84448
    554193.86948    431839.12545         0.00041  23178392.32845  23178390.14848
 02 07 01 17 30 30.0000000  0  8 03 06 15 17 18 21 23 29
   -888891.35348   -692640.44444         0.00041  24260934.96544  24260930.98648
   3763936.10049   2932934.42046         0.00041  21514781.83946  21514778.95149
  -1611659.21949  -1255837.52946         0.00041  20617427.21946  20617424.94449
   -707920.90549   -551625.87846         0.00041  20673165.48346  20673162.99149
  -1730995.63449  -1348826.94247         0.00041  20460364.73147  20460364.11149
  -2077114.37748  -1618529.33846         0.00041  22392201.92746  22392198.30448
   4130092.83248   3218252.48346         0.00041  22717705.11046  22717702.06448
    612158.21348    477006.10445         0.00041  23189422.79745  23189420.29348
 02 07 01 17 31 00.0000000  0  8 03 06 15 17 18 21 23 29
   -986834.49748   -768959.67244         0.00041  24242296.21444  24242292.08648
   3842037.09549   2993792.25246         0.00041  21529644.05646  21529641.13349
  -1632596.77449  -1272152.49846         0.00041  20613442.87446  20613440.71249
   -714123.56449   -556459.12946         0.00041  20671985.13246  20671982.88849
  -1747582.85649  -1361752.04547         0.00041  20457208.17647  20457207.53449
  -2133390.96848  -1662381.19346         0.00041  22381492.71546  22381489.05948
   4207368.07548   3278466.92146         0.00041  22732410.17946  22732406.90248
    670552.97748    522508.49345         0.00041  23200534.93445  23200532.52048
 02 07 01 17 31 30.0000000  0  8 03 06 15 17 18 21 23 29
  -1084601.86148   -845141.92944         0.00041  24223692.48744  24223688.12048
   3920532.64849   3054957.54146         0.00041  21544581.48446  21544578.46749
  -1653321.17249  -1288301.37446         0.00041  20609499.40246  20609497.16649
   -720131.04449   -561140.28846         0.00041  20670841.72946  20670839.72649
  -1763752.44949  -1374351.72047         0.00041  20454131.30347  20454130.73949
  -2189388.03048  -1706015.22346         0.00041  22370836.92846  22370833.38948
   4284739.67448   3338756.43446         0.00041  22747133.10046  22747130.34348
    729400.07348    568363.32445         0.00041  23211732.17445  23211730.57548
 02 07 01 17 32 00.0000000  0  8 03 06 15 17 18 21 23 29
  -1182181.17348   -921177.62944         0.00041  24205122.49744  24205119.20448
   3999430.79648   3116436.54146         0.00041  21559595.06346  21559592.05748
  -1673821.86449  -1304275.93446         0.00041  20605597.97546  20605595.96149
   -725932.83749   -565661.17446         0.00041  20669738.01246  20669735.52249
  -1779495.35549  -1386618.90947         0.00041  20451135.22547  20451134.69249
  -2245095.28348  -1749423.42746         0.00041  22360236.35146  22360232.70948
   4362215.80548   3399127.41046         0.00041  22761876.21346  22761873.63648
    788707.65648    614576.98945         0.00041  23223019.46445  23223016.94848
 02 07 01 17 32 30.0000000  0  8 03 06 15 17 18 21 23 29
  -1279575.36148   -997069.11244         0.00041  24186591.28444  24186585.00548
   4078724.33348   3178223.63346         0.00041  21574683.88546  21574681.25148
  -1694103.52849  -1320079.82546         0.00041  20601738.63646  20601736.46549
   -731533.57449   -570025.39146         0.00041  20668671.71546  20668669.65549
  -1794817.51449  -1398558.24347         0.00041  20448219.88247  20448219.41349
  -2300518.21548  -1792610.08646         0.00041  22349689.85746  22349686.54448
   4439789.44548   3459574.35946         0.00041  22776638.65646  22776635.50748
    848468.38648    661143.76445         0.00041  23234390.85445  23234389.05848
 02 07 01 17 33 00.0000000  0  8 03 06 15 17 18 21 23 29
  -1376806.36248  -1072833.44144         0.00041  24168087.12744  24168083.46148
   4158386.98148   3240298.34746         0.00041  21589843.53846  21589840.68848
  -1714189.94149  -1335731.57246         0.00041  20597916.35646  20597914.15049
   -736956.98849   -574251.42946         0.00041  20667640.04246  20667637.73149
  -1809743.86849  -1410189.15547         0.00041  20445379.33047  20445378.93349
  -2355681.42948  -1835594.36146         0.00041  22339192.60146  22339189.42348
   4517434.27248   3520076.78246         0.00041  22791414.33946  22791411.24848
    908655.82148    708043.02245         0.00041  23245843.87345  23245842.03948
 02 07 01 17 33 30.0000000  0  8 03 06 15 17 18 21 23 29
  -1473847.60448  -1148449.91944         0.00041  24149621.58544  24149617.36648
   4238441.28749   3302678.24946         0.00041  21605077.62446  21605074.80049
  -1734056.10749  -1351211.70146         0.00041  20594136.00446  20594133.63649
   -742177.96449   -578319.72846         0.00041  20666646.52746  20666644.18549
  -1824250.97649  -1421493.37947         0.00041  20442618.53147  20442618.19749
  -2410560.74348  -1878357.41546         0.00041  22328748.83546  22328745.62648
   4595172.97948   3580652.36246         0.00041  22806206.45446  22806204.24548
    969292.46548    755292.31545         0.00041  23257383.21145  23257381.48048
 02 07 01 17 34 00.0000000  0  8 03 06 15 17 18 21 23 29
  -1570708.59848  -1223925.90344         0.00041  24131191.94944  24131185.37248
   4318873.13349   3365352.33546         0.00041  21620383.60246  21620380.38749
  -1753713.60549  -1366529.22646         0.00041  20590395.33446  20590393.14349
   -747207.95049   -582239.20046         0.00041  20665689.23946  20665686.95149
  -1838351.91649  -1432481.10947         0.00041  20439935.33247  20439934.84549
  -2465168.35548  -1920908.75746         0.00041  22318357.28646  22318353.37648
   4672991.58648   3641290.19746         0.00041  22821015.24246  22821012.14148
   1030364.40448    802880.82045         0.00041  23269005.74845  23269002.55748
 02 07 01 17 34 30.0000000  0  8 03 06 15 17 18 21 23 29
  -1667333.80148  -1299218.15244         0.00041  24112801.79344  24112797.39048
   4399733.70648   3428360.49646         0.00041  21635770.86546  21635767.46848
  -1773108.55249  -1381642.16746         0.00041  20586704.35146  20586702.13649
   -751993.17949   -585967.94746         0.00041  20664778.63446  20664776.77649
  -1851994.27849  -1443111.50747         0.00041  20437339.26247  20437338.85049
  -2519451.15048  -1963207.00346         0.00041  22308027.85046  22308023.96548
   4750941.53948   3702030.38246         0.00041  22835849.13346  22835845.58848
   1091922.53948    850848.14245         0.00041  23280718.63745  23280716.31748
 02 07 01 17 35 00.0000000  0  8 03 06 15 17 18 21 23 29
  -1763781.74548  -1374372.27544         0.00041  24094447.30744  24094442.51148
   4480960.61948   3491654.11146         0.00041  21651227.72646  21651224.37748
  -1792301.08149  -1396597.38146         0.00041  20583052.33746  20583050.17849
   -756593.59849   -589552.68946         0.00041  20663903.02246  20663900.84349
  -1865239.78249  -1453432.66547         0.00041  20434818.64047  20434818.18549
  -2573469.50448  -2005299.18946         0.00041  22297748.64746  22297744.59548
   4828960.40548   3762824.26346         0.00041  22850695.05846  22850692.47248
   1153904.29148    899145.57745         0.00041  23292513.10645  23292511.17448
 02 07 01 17 35 30.0000000  0  8 03 06 15 17 18 21 23 29
  -1860091.53648  -1449418.75044         0.00041  24076122.22044  24076114.60248
   4562509.99548   3555199.00646         0.00041  21666745.75946  21666742.54148
  -1811332.28349  -1411426.88746         0.00041  20579430.64846  20579428.53449
   -761050.33549   -593025.47046         0.00041  20663055.09346  20663052.83949
  -1878130.79149  -1463477.59947         0.00041  20432365.93847  20432365.10949
  -2627265.73948  -2047218.29446         0.00041  22287511.32046  22287507.66248
   4907004.42348   3823637.75946         0.00041  22865546.82446  22865543.76548
   1216265.79248    947738.92145         0.00041  23304382.16045  23304379.00248
 02 07 01 17 36 00.0000000  0  8 03 06 15 17 18 21 23 29
  -1956171.73048  -1524286.35744         0.00041  24057838.10644  24057831.93548
   4644468.91748   3619063.02946         0.00041  21682342.53946  21682338.29748
  -1830112.37049  -1426060.71946         0.00041  20575857.02646  20575854.93849
   -765273.63249   -596316.35246         0.00041  20662251.28646  20662249.31949
  -1890579.19949  -1473177.65047         0.00041  20429996.88847  20429996.26749
  -2680751.21448  -2088895.24546         0.00041  22277333.10746  22277329.87948
   4985160.88348   3884538.85046         0.00041  22880418.96446  22880416.30048
   1279094.11748    996696.02845         0.00041  23316336.77345  23316334.93448
 02 07 01 17 36 30.0000000  0  8 03 06 15 17 18 21 23 29
  -2052027.87048  -1598979.32744         0.00041  24039597.49944  24039591.54948
   4726827.40348   3683238.40046         0.00041  21698014.54746  21698011.32648
  -1848649.14549  -1440504.95146         0.00041  20572329.33646  20572327.53949
   -769270.79249   -599431.02146         0.00041  20661490.57446  20661488.63549
  -1902593.99949  -1482539.82547         0.00041  20427710.61647  20427709.85949
  -2733933.45548  -2130335.90746         0.00041  22267212.85746  22267209.84848
   5063420.00948   3945519.95346         0.00041  22895311.17846  22895308.49448
   1342379.24648   1046009.08245         0.00041  23328379.83845  23328377.62648
 02 07 01 17 37 00.0000000  0  8 03 06 15 17 18 21 23 29
  -2147661.48748  -1673498.93244         0.00041  24021399.84744  24021393.34448
   4809579.92748   3747720.81146         0.00041  21713762.26346  21713758.80448
  -1866945.43249  -1454761.78646         0.00041  20568847.90846  20568845.68849
   -773044.68049   -602371.71346         0.00041  20660772.51546  20660770.56949
  -1914179.54049  -1491567.51947         0.00041  20425506.07147  20425505.53549
  -2786816.51348  -2171543.43746         0.00041  22257149.82446  22257146.27648
   5141776.63448   4006577.02646         0.00041  22910222.47746  22910219.52848
   1406115.32148   1095673.49444         0.00041  23340507.58944  23340505.21848
 02 07 01 17 37 30.0000000  0  8 03 06 15 17 18 21 23 29
  -2243060.75048  -1747835.91344         0.00041  24003242.49144  24003239.13748
   4892733.87248   3812516.01446         0.00041  21729585.86946  21729582.83848
  -1884990.84649  -1468823.14446         0.00041  20565414.08746  20565411.64349
   -776585.28249   -605130.62346         0.00041  20660098.77746  20660096.70449
  -1925327.24949  -1500254.04047         0.00041  20423384.54147  20423383.92649
  -2839390.73648  -2212510.32446         0.00041  22247145.56246  22247141.51648
   5220238.38948   4067716.02046         0.00041  22925152.41146  22925150.45248
   1470309.84948   1145695.17245         0.00041  23352723.70245  23352721.57448
 02 07 01 17 38 00.0000000  0  8 03 06 15 17 18 21 23 29
  -2338354.89548  -1822090.99644         0.00041  23985111.56944  23985104.69348
   4976155.60548   3877519.88646         0.00041  21745460.79446  21745457.63848
  -1902916.64549  -1482791.29046         0.00041  20562002.88146  20562000.70049
   -780023.48049   -607809.74146         0.00041  20659444.56046  20659442.40249
  -1936169.93149  -1508702.87647         0.00041  20421321.09447  20421320.52849
  -2891788.34948  -2253339.59746         0.00041  22237174.32046  22237170.68748
   5298671.82948   4128832.95446         0.00041  22940078.57546  22940075.36948
   1534828.99148   1195969.78245         0.00041  23365001.48145  23364998.46348
 02 07 01 17 38 30.0000000  0  8 03 06 15 17 18 21 23 29
  -2433459.79848  -1896198.57344         0.00041  23967011.25344  23967006.92748
   5059924.55248   3942794.30646         0.00041  21761401.69246  21761398.51348
  -1920640.71949  -1496602.24946         0.00041  20558629.92146  20558627.91649
   -783276.93549   -610344.90346         0.00041  20658825.59846  20658823.33149
  -1946626.85649  -1516851.12047         0.00041  20419331.16547  20419330.67649
  -2943927.55448  -2293967.51946         0.00041  22227252.40846  22227248.36148
   5377156.63848   4189989.90946         0.00041  22955013.74446  22955010.76348
   1599752.32748   1246559.35445         0.00041  23377356.73645  23377353.81648
 02 07 01 17 39 00.0000000  0  8 03 06 15 17 18 21 23 29
  -2528342.02248  -1970132.67544         0.00041  23948958.05244  23948952.22048
   5144069.99848   4008362.10346         0.00041  21777413.75146  21777410.56748
  -1938131.27549  -1510231.24846         0.00041  20555301.75946  20555299.40449
   -786313.96449   -612711.42246         0.00041  20658247.48746  20658245.48449
  -1956667.83149  -1524675.25047         0.00041  20417420.46847  20417419.99449
  -2995778.13448  -2334370.54146         0.00041  22217385.48346  22217381.52648
   5455722.49048   4251210.00146         0.00041  22969964.32446  22969961.35748
   1665108.77348   1297486.43145         0.00041  23389792.69045  23389791.42948
 02 07 01 17 39 30.0000000  0  8 03 06 15 17 18 21 23 29
  -2623014.27148  -2043903.15344         0.00041  23930940.37544  23930936.28048
   5228574.83048   4074209.94546         0.00041  21793494.37246  21793491.21348
  -1955402.82849  -1523689.59746         0.00041  20552014.92446  20552012.63649
   -789148.74149   -614920.34446         0.00041  20657708.30646  20657706.24449
  -1966308.87249  -1532187.74147         0.00041  20415586.02047  20415585.50449
  -3047354.54748  -2374559.92446         0.00041  22207570.52346  22207567.16548
   5534352.40048   4312480.02746         0.00041  22984927.72846  22984924.44948
   1730881.07648   1348737.53545         0.00041  23402309.90145  23402306.84848
 02 07 01 17 40 00.0000000  0  8 03 06 15 17 18 21 23 29
  -2717517.54648  -2117541.97544         0.00041  23912957.39544  23912952.78148
   5313393.43648   4140302.29046         0.00041  21809634.60846  21809631.47348
  -1972497.87049  -1537010.40146         0.00041  20548761.55146  20548759.77349
   -791823.99849   -617004.96146         0.00041  20657199.19146  20657196.95549
  -1975594.25349  -1539423.09847         0.00041  20413819.00747  20413818.46849
  -3098700.80049  -2414569.94646         0.00041  22197799.80946  22197796.63849
   5613001.34748   4373764.88046         0.00041  22999893.52946  22999890.33548
   1797023.89148   1400277.35345         0.00041  23414896.83845  23414893.06548
 02 07 01 17 40 30.0000000  0  8 03 06 15 17 18 21 23 29
  -2811736.35348  -2190959.12544         0.00041  23895027.63844  23895023.10748
   5398636.70848   4206725.54046         0.00041  21825856.05446  21825852.78548
  -1989302.82249  -1550105.16046         0.00041  20545563.82546  20545561.75849
   -794225.97149   -618876.63346         0.00041  20656742.00146  20656739.94049
  -1984412.05649  -1546294.10747         0.00041  20412141.08947  20412140.45349
  -3149704.45349  -2454313.01046         0.00041  22188094.34446  22188091.18849
   5691780.50748   4435151.19246         0.00041  23014884.69146  23014881.55548
   1863647.85348   1452192.10745         0.00041  23427574.38245  23427571.56648
 02 07 01 17 41 00.0000000  0  8 03 06 15 17 18 21 23 29
  -2905663.08848  -2264148.67944         0.00041  23877154.12044  23877150.06248
   5484307.79148   4273482.15346         0.00041  21842159.30446  21842156.00448
  -2005811.89849  -1562969.36246         0.00041  20542422.49246  20542420.10249
   -796348.84149   -620530.82546         0.00041  20656338.07246  20656335.95749
  -1992757.97949  -1552797.41947         0.00041  20410552.80347  20410552.20049
  -3200360.31749  -2493785.06246         0.00041  22178454.57346  22178451.53449
   5770693.49648   4496641.79246         0.00041  23029901.48146  23029898.41448
   1930756.07648   1504484.19145         0.00041  23440343.58445  23440342.24948
 02 07 01 17 41 30.0000000  0  8 03 06 15 17 18 21 23 29
  -2999395.37948  -2337186.71544         0.00041  23859319.55744  23859312.89048
   5570304.59848   4340492.57046         0.00041  21858524.22046  21858520.58148
  -2022124.31149  -1575680.32246         0.00041  20539318.41646  20539316.03049
   -798291.88349   -622044.88646         0.00041  20655968.17846  20655966.36949
  -2000733.11149  -1559011.80147         0.00041  20409035.04047  20409034.45849
  -3250768.47349  -2533064.09946         0.00041  22168862.60746  22168859.43749
   5849638.66248   4558157.45546         0.00041  23044924.36446  23044921.68948
   1998246.55448   1557074.11245         0.00041  23453186.87145  23453184.37048
 02 07 01 17 42 00.0000000  0  8 03 06 15 17 18 21 23 29
  -3092913.86648  -2410058.15344         0.00041  23841521.81744  23841517.44748
   5656641.80948   4407768.23746         0.00041  21874953.48446  21874950.12848
  -2038222.46749  -1588224.33446         0.00041  20536254.78146  20536252.67349
   -800037.39849   -623405.03446         0.00041  20655635.91646  20655634.00849
  -2008321.57049  -1564924.87847         0.00041  20407591.10747  20407590.65249
  -3300912.10548  -2572137.02446         0.00041  22159320.02946  22159316.50148
   5928631.04948   4619709.92246         0.00041  23059956.05846  23059953.10248
   2066133.52948   1609973.00945         0.00041  23466105.58945  23466102.69248
 02 07 01 17 42 30.0000000  0  8 03 06 15 17 18 21 23 29
  -3186202.43348  -2482750.42644         0.00041  23823768.06344  23823764.56148
   5743331.47348   4475318.55346         0.00041  21891450.65146  21891447.16948
  -2054091.58349  -1600589.86646         0.00041  20533234.83746  20533233.04649
   -801570.65849   -624599.78546         0.00041  20655344.35446  20655342.22549
  -2015510.18649  -1570526.38847         0.00041  20406223.21647  20406222.69149
  -3350777.88348  -2610993.43046         0.00041  22149830.75546  22149826.94248
   6007683.26948   4681309.01446         0.00041  23074998.65246  23074996.14448
   2134429.18348   1663190.36045         0.00041  23479102.92845  23479099.75648
 02 07 01 17 43 00.0000000  0  8 03 06 15 17 18 21 23 29
  -3279266.31348  -2555267.64644         0.00041  23806058.71844  23806054.81048
   5830363.41248   4543135.57346         0.00041  21908012.13146  21908008.07848
  -2069738.99749  -1612782.65146         0.00041  20530257.50546  20530255.50649
   -802898.67749   -625634.61146         0.00041  20655091.56846  20655089.82249
  -2022307.84049  -1575823.25047         0.00041  20404929.50247  20404929.01749
  -3400374.23548  -2649639.90346         0.00041  22140392.96246  22140389.53448
   6086785.59448   4742947.14146         0.00041  23090052.87446  23090048.99148
   2203123.36748   1716718.25045         0.00041  23492175.62645  23492172.60448
 02 07 01 17 43 30.0000000  0  8 03 06 15 17 18 21 23 29
  -3372122.54548  -2627623.02844         0.00041  23788388.66644  23788384.53948
   5917716.07748   4611202.51246         0.00041  21924634.13646  21924630.67648
  -2085183.66649  -1624817.45546         0.00041  20527318.47246  20527316.12549
   -804040.46849   -626524.32146         0.00041  20654874.12646  20654872.26049
  -2028735.32449  -1580831.66947         0.00041  20403706.48547  20403706.12549
  -3449720.00448  -2688091.11246         0.00041  22131002.50346  22130999.44848
   6165916.84248   4804607.80846         0.00041  23105110.66546  23105107.44148
   2272194.28848   1770539.69545         0.00041  23505317.30245  23505315.86748
 02 07 01 17 44 00.0000000  0  8 03 06 15 17 18 21 23 29
  -3464758.39448  -2699806.71044         0.00041  23770760.24244  23770756.63348
   6005397.84448   4679525.88946         0.00041  21941319.73546  21941315.97748
  -2100414.44349  -1636685.59346         0.00041  20524420.39346  20524417.90749
   -804984.51849   -627259.95246         0.00041  20654694.52346  20654692.56149
  -2034782.99449  -1585544.12647         0.00041  20402555.60447  20402555.23249
  -3498805.24549  -2726339.30446         0.00041  22121661.78846  22121658.65449
   6245085.93148   4866297.95946         0.00041  23120175.78646  23120172.49948
   2341650.29648   1824661.22445         0.00041  23518535.91145  23518532.90248
 02 07 01 17 44 30.0000000  0  8 03 06 15 17 18 21 23 29
  -3557182.33548  -2771825.23644         0.00041  23753173.51444  23753168.08448
   6093395.75648   4748095.60346         0.00041  21958064.65346  21958061.47448
  -2115441.24749  -1648394.78246         0.00041  20521560.44746  20521558.40849
   -805741.02749   -627849.44446         0.00041  20654550.68046  20654548.84649
  -2040462.75649  -1589969.90447         0.00041  20401474.56247  20401474.28749
  -3547641.15749  -2764393.21746         0.00041  22112368.50946  22112365.76449
   6324280.44148   4928007.92646         0.00041  23135246.05846  23135242.87048
   2411478.23348   1879072.55345         0.00041  23531824.00045  23531820.79048
 02 07 01 17 45 00.0000000  0  8 03 06 15 17 18 21 23 29
  -3649335.80248  -2843633.04244         0.00041  23735637.13644  23735631.91548
   6181763.68148   4816953.63146         0.00041  21974880.95346  21974877.92748
  -2130207.31649  -1659900.80446         0.00041  20518750.37146  20518748.31049
   -806253.11249   -628248.47746         0.00041  20654453.39646  20654451.28449
  -2045719.55849  -1594066.10047         0.00041  20400474.16847  20400473.79149
  -3596171.95349  -2802209.37346         0.00041  22103133.92146  22103131.30749
   6403554.95048   4989780.23246         0.00041  23150331.22546  23150328.20848
   2481732.13148   1933815.83145         0.00041  23545192.04645  23545188.87048
 02 07 01 17 45 30.0000000  0  7 03 06 15 17 18 21 23
  -3741280.75148  -2915278.36744         0.00041  23718140.31644  23718135.74248
   6270434.79748   4886047.91446         0.00041  21991755.07146  21991751.67248
  -2144776.47449  -1671253.38846         0.00041  20515978.32746  20515976.20749
   -806584.47749   -628506.68846         0.00041  20654390.21246  20654388.33649
  -2050619.18749  -1597883.97847         0.00041  20399542.27347  20399541.67349
  -3644462.05849  -2839837.98246         0.00041  22093944.82546  22093941.64649
   6482843.36448   5051563.37546         0.00041  23165419.68746  23165416.44248
 02 07 01 17 46 00.0000000  0  7 03 06 15 17 18 21 23
  -3832971.62248  -2986725.68444         0.00041  23700693.63344  23700688.26948
   6359450.05148   4955410.36546         0.00041  22008694.07446  22008690.41348
  -2159104.88249  -1682418.37246         0.00041  20513251.57646  20513249.63049
   -806691.53449   -628590.11446         0.00041  20654369.79746  20654367.74549
  -2055119.40649  -1601390.63247         0.00041  20398685.70647  20398685.21149
  -3692469.51748  -2877246.35646         0.00041  22084809.05046  22084805.38148
   6562187.09248   5113389.60446         0.00041  23180518.20246  23180515.08548
 02 07 01 17 46 30.0000000  0  7 03 06 15 17 18 21 23
  -3924397.25048  -3057966.35744         0.00041  23683298.04744  23683290.63848
   6448816.23448   5025046.26946         0.00041  22025699.65746  22025696.23248
  -2173183.26049  -1693388.53446         0.00041  20510572.70846  20510570.47149
   -806564.34749   -628491.01446         0.00041  20654393.87546  20654391.97949
  -2059212.51849  -1604580.05747         0.00041  20397906.76447  20397906.32349
  -3740185.86748  -2914427.89146         0.00041  22075729.06846  22075725.22148
   6641593.11248   5175264.38846         0.00041  23195628.74646  23195625.61848
 02 07 01 17 47 00.0000000  0  7 03 06 15 17 18 21 23
  -4015564.93848  -3129005.98645         0.00041  23665947.14645  23665942.71848
   6538521.23948   5094946.20346         0.00041  22042769.98146  22042766.32848
  -2187020.52549  -1704170.81246         0.00041  20507939.51446  20507937.29149
   -806211.99549   -628216.46146         0.00041  20654461.28146  20654458.97449
  -2062909.39449  -1607460.72647         0.00041  20397203.45847  20397203.01249
  -3787620.59848  -2951389.98946         0.00041  22066702.01046  22066698.71848
   6721050.30048   5237179.02846         0.00041  23210749.10246  23210746.07148
 02 07 01 17 47 30.0000000  0  7 03 06 15 17 18 21 23
  -4106486.45848  -3199853.84145         0.00041  23648645.59345  23648640.03448
   6628548.31948   5165097.09746         0.00041  22059902.49846  22059897.98948
  -2200630.32349  -1714775.84546         0.00041  20505349.38246  20505347.38749
   -805648.20249   -627777.14846         0.00041  20654568.17746  20654566.32449
  -2066225.57049  -1610044.74447         0.00041  20396572.12447  20396571.66449
  -3834788.55348  -2988144.20946         0.00041  22057726.04646  22057722.87948
   6800542.70848   5299121.12946         0.00041  23225876.27746  23225873.11648
 02 07 01 17 48 00.0000000  0  7 03 06 15 17 18 21 23
  -4197159.51348  -3270508.05045         0.00041  23631392.62145  23631385.94048
   6718895.48548   5235497.40246         0.00041  22077095.02146  22077091.04148
  -2214011.65149  -1725202.84746         0.00041  20502803.14846  20502800.91249
   -804871.89649   -627172.23846         0.00041  20654716.14546  20654714.18849
  -2069161.77549  -1612332.67847         0.00041  20396013.33247  20396012.75449
  -3881689.58149  -3024690.43046         0.00041  22048801.13746  22048797.89649
   6880069.14448   5361089.73246         0.00041  23241008.44846  23241006.22848
 02 07 01 17 48 30.0000000  0  7 03 06 15 17 18 21 23
  -4287576.36148  -3340962.64645         0.00041  23614185.03245  23614180.66048
   6809566.06748   5306149.70546         0.00041  22094349.23446  22094345.44748
  -2227158.54549  -1735447.18046         0.00041  20500301.52546  20500299.15849
   -803876.86549   -626396.89446         0.00041  20654905.78646  20654903.38849
  -2071714.14449  -1614321.51947         0.00041  20395527.80347  20395527.38949
  -3928319.10249  -3061025.08146         0.00041  22039927.96346  22039925.11149
   6959633.13248   5423087.59346         0.00041  23256149.73046  23256146.42248
 02 07 01 17 49 00.0000000  0  8 03 06 14 15 17 18 21 23
  -4377716.23548  -3411201.41045         0.00041  23597031.55345  23597027.70548
   6900575.78948   5377066.27746         0.00041  22111667.45746  22111664.08248
        -0.17458         0.00051         0.00051         0.00051  25159590.87458
  -2240052.24749  -1745494.21746         0.00041  20497848.02746  20497845.71649
   -802644.34949   -625436.49846         0.00041  20655140.04746  20655137.89849
  -2073865.72149  -1615998.05447         0.00041  20395118.25447  20395117.67549
  -3974659.32449  -3097134.29846         0.00041  22031109.76646  22031106.73549
   7039251.17848   5485127.59246         0.00041  23271300.73746  23271297.54848
 02 07 01 17 49 30.0000000  0  8 03 06 14 15 17 18 21 23
  -4467576.29148  -3481222.13745         0.00041  23579931.98645  23579927.70148
   6991923.07748   5448245.89846         0.00041  22129049.63646  22129046.35548
   -113306.06548         0.00041         0.00041         0.00041  25138029.51648
  -2252691.39749  -1755342.90246         0.00041  20495442.85946  20495440.64749
   -801172.94349   -624289.94946         0.00041  20655420.39946  20655418.39849
  -2075616.89949  -1617362.59347         0.00041  20394785.01947  20394784.55149
  -4020710.16249  -3133018.03046         0.00041  22022346.65746  22022343.62349
   7118922.54148   5547209.12446         0.00041  23286461.82146  23286458.54548
 02 07 01 17 50 00.0000000  0  8 03 06 14 15 17 18 21 23
  -4557183.31548  -3551045.70545         0.00041  23562879.33545  23562876.07148
   7083576.24948   5519663.86546         0.00041  22146491.12746  22146487.27348
   -226677.00148         0.00041         0.00041         0.00041  25116455.65648
  -2265104.38949  -1765015.35946         0.00041  20493080.69346  20493078.52149
   -799490.96949   -622979.32046         0.00041  20655740.19646  20655737.95249
  -2076998.04149  -1618438.79347         0.00041  20394522.13847  20394521.67349
  -4066501.07449  -3168699.22246         0.00041  22013632.71146  22013629.72749
   7198616.37448   5609308.15546         0.00041  23301626.84346  23301623.49348
 02 07 01 17 50 30.0000000  0  8 03 06 14 15 17 18 21 23
  -4646536.39948  -3620671.37345         0.00041  23545875.55845  23545872.26548
   7175531.54248   5591317.25246         0.00041  22163989.13546  22163985.96648
   -340112.27048   -265021.46944         0.00041  25094878.26544  25094870.07448
  -2277292.14349  -1774512.30146         0.00041  20490761.39846  20490759.05449
   -797599.39849   -621505.37646         0.00041  20656099.86746  20656097.99449
  -2078011.86849  -1619228.77647         0.00041  20394329.22347  20394328.77549
  -4112034.11149  -3204179.47746         0.00041  22004968.17746  22004964.81649
   7278329.53148   5671422.26046         0.00041  23316795.18946  23316792.76948
 02 07 01 17 51 00.0000000  0  8 03 06 14 15 17 18 21 23
  -4735615.28448  -3690083.41545         0.00041  23528924.52045  23528920.55848
   7267804.54848   5663218.20546         0.00041  22181548.31346  22181544.33448
   -453591.81848         0.00041         0.00041         0.00041  25073289.25448
  -2289236.04949  -1783819.23546         0.00041  20488488.53946  20488486.21749
   -795479.41449   -619853.44646         0.00041  20656503.53246  20656501.51349
  -2078641.50949  -1619719.39647         0.00041  20394209.36347  20394208.91649
  -4157291.45749  -3239444.90746         0.00041  21996356.25046  21996352.92649
   7358078.46248   5733564.22146         0.00041  23331971.96346  23331968.93848
 02 07 01 17 51 30.0000000  0  8 03 06 14 15 17 18 21 23
  -4824402.84648  -3759268.39945         0.00041  23512029.14945  23512024.89048
   7360407.86448   5735376.54246         0.00041  22199170.35446  22199166.55848
   -567816.74048         0.00041         0.00041         0.00041  25051671.97848
  -2300920.55049  -1792924.03746         0.00041  20486265.01946  20486262.79949
   -793115.28449   -618011.26646         0.00041  20656953.60946  20656951.62049
  -2078873.36149  -1619900.05347         0.00041  20394165.33347  20394164.80049
  -4202258.94949  -3274484.47346         0.00041  21987798.94846  21987795.77749
   7437876.31148   5795744.32046         0.00041  23347156.45646  23347153.34948
 02 07 01 17 52 00.0000000  0  7 03 06 15 17 18 21 23
  -4912901.92548  -3828228.61045         0.00041  23495188.43545  23495183.34148
   7453333.86048   5807786.31746         0.00041  22216854.32446  22216849.87948
  -2312350.19349  -1801830.24646         0.00041  20484089.67546  20484087.98449
   -790511.51949   -615982.36446         0.00041  20657449.37746  20657446.68349
  -2078714.11349  -1619775.95747         0.00041  20394195.89847  20394195.26549
  -4246942.43149  -3309302.72846         0.00041  21979296.10746  21979293.05049
   7517716.54248   5857957.44046         0.00041  23362350.39146  23362346.64248
 02 07 01 17 52 30.0000000  0  7 03 06 15 17 18 21 23
  -5001132.71348  -3896979.77545         0.00041  23478396.76245  23478393.70648
   7546557.35748   5880427.89046         0.00041  22234594.65146  22234590.44248
  -2323546.99349  -1810555.01946         0.00041  20481959.23146  20481957.35449
   -787690.58749   -613784.24146         0.00041  20657985.81146  20657983.79349
  -2078187.62649  -1619365.69947         0.00041  20394295.79947  20394295.29649
  -4291364.69449  -3343917.43646         0.00041  21970842.39546  21970839.53349
   7597574.65848   5920184.50146         0.00041  23377546.53846  23377543.49248
 02 07 01 17 53 00.0000000  0  8 03 06 14 15 17 18 21 23
  -5089101.55648  -3965526.84845         0.00041  23461657.34545  23461654.85548
   7640067.20548   5953292.59746         0.00041  22252388.75246  22252385.16148
         0.13758         0.00854         0.00051  24986839.16854  24986829.24058
  -2334519.13949  -1819104.73846         0.00041  20479870.99246  20479869.38349
   -784660.06649   -611422.79546         0.00041  20658562.51846  20658560.35349
  -2077304.01649  -1618677.16647         0.00041  20394464.17147  20394463.77049
  -4335535.42049  -3378336.14046         0.00041  21962437.32146  21962434.30649
   7677440.40848   5982417.51646         0.00041  23392744.08046  23392740.90748
 02 07 01 17 53 30.0000000  0  8 03 06 14 15 17 18 21 23
  -5176808.67248  -4033869.95445         0.00041  23444968.23045  23444964.55948
   7733858.52148   6026376.63246         0.00041  22270237.24346  22270233.44748
   -113699.25048         0.00041         0.00041         0.00041  24965191.61748
  -2345268.44249  -1827480.81446         0.00041  20477825.71646  20477823.84249
   -781421.82549   -608899.49646         0.00041  20659178.67146  20659176.35149
  -2076067.04849  -1617713.29047         0.00041  20394699.40747  20394698.97349
  -4379458.04249  -3412561.51746         0.00041  21954079.18146  21954075.85449
   7757309.87848   6044653.40946         0.00041  23407942.99846  23407939.73248
 02 07 01 17 54 00.0000000  0  8 03 06 14 15 17 18 21 23
  -5264166.27848  -4101940.72345         0.00041  23428344.88045  23428341.16748
   7828014.19248   6099744.59246         0.00041  22288153.85146  22288150.51148
   -227367.40147         0.00041         0.00041         0.00041  24943559.17847
  -2355708.61549  -1835616.01346         0.00041  20475839.06846  20475837.01949
   -777889.47549   -606147.02146         0.00041  20659850.89846  20659848.84249
  -2074392.42449  -1616408.38447         0.00041  20395018.17647  20395017.58649
  -4423046.43049  -3446526.45946         0.00041  21945784.58746  21945780.97049
   7837266.97748   6106957.58246         0.00041  23423158.83446  23423154.88148
 02 07 01 17 54 30.0000000  0  7 03 06 15 17 18 21 23
  -5351206.26048  -4169764.01745         0.00041  23411781.05545  23411776.44048
   7922497.94848   6173368.19646         0.00041  22306133.49846  22306130.13948
  -2365872.91349  -1843536.24646         0.00041  20473905.02746  20473902.69849
   -774096.45949   -603191.42446         0.00041  20660572.84446  20660570.68049
  -2072315.52949  -1614790.02247         0.00041  20395413.26947  20395412.92449
  -4466336.19249  -3480258.71746         0.00041  21937546.88746  21937543.38549
   7917276.09848   6169302.30546         0.00041  23438384.84146  23438380.08848
 02 07 01 17 55 00.0000000  0  7 03 06 15 17 18 21 23
  -5438064.58948  -4237445.75345         0.00041  23395250.65445  23395247.70348
   8017169.10548   6247137.83146         0.00041  22324148.76246  22324144.95248
  -2375899.05449  -1851348.82046         0.00041  20471997.10646  20471995.05349
   -770180.27449   -600139.85846         0.00041  20661317.91246  20661315.87349
  -2069976.04849  -1612967.04847         0.00041  20395858.41847  20395857.95149
  -4509465.43149  -3513865.88646         0.00041  21929339.07846  21929335.78549
   7997197.54448   6231578.70245         0.00041  23453593.29845  23453589.58048
 02 07 01 17 55 30.0000000  0  7 03 06 15 17 18 21 23
  -5524626.30848  -4304896.37145         0.00041  23378778.87645  23378775.90348
   8112137.53348   6321139.09246         0.00041  22342221.36946  22342216.83348
  -2385674.17949  -1858965.80146         0.00041  20470136.85246  20470134.85349
   -766027.92449   -596904.26646         0.00041  20662107.86446  20662106.13549
  -2067262.97649  -1610852.96547         0.00041  20396374.60847  20396374.16349
  -4552322.46649  -3547260.94846         0.00041  21921183.63046  21921180.46249
   8077142.02348   6293873.06745         0.00041  23468805.26045  23468802.09048
 02 07 01 17 56 00.0000000  0  6 03 15 17 18 21 23
  -5610890.75648  -4372115.34144         0.00041  23362364.13444  23362359.26848
  -2395199.28449  -1866387.95746         0.00041  20468324.36046  20468322.26549
   -761640.18749   -593485.25246         0.00041  20662943.20746  20662941.18449
  -2064179.31649  -1608450.11147         0.00041  20396961.49147  20396961.09849
  -4594909.75149  -3580445.80546         0.00041  21913079.64846  21913076.57849
   8157106.44148   6356182.94345         0.00041  23484022.03345  23484018.60348
 02 07 01 17 56 30.0000000  0  6 03 15 17 18 21 23
  -5696830.83548  -4439081.52545         0.00041  23346011.29945  23346005.10348
  -2404448.64649  -1873595.24846         0.00041  20466564.29846  20466562.16549
   -756991.54949   -589862.94346         0.00041  20663827.85346  20663825.67149
  -2060701.29349  -1605739.96147         0.00041  20397623.30547  20397622.70549
  -4637202.87349  -3613401.44146         0.00041  21905031.56846  21905028.64049
   8237114.07748   6418526.51145         0.00041  23499248.12145  23499244.18248
 02 07 01 17 57 00.0000000  0  7 03 14 15 17 18 21 23
  -5782442.93248  -4505792.17045         0.00041  23329721.92445  23329715.03348
        -1.08658         0.47554         0.00051  24813628.58554  24813623.73658
  -2413420.16949  -1880586.03846         0.00041  20464857.01246  20464854.86349
   -752079.94649   -586035.72446         0.00041  20664762.21346  20664759.96649
  -2056829.21049  -1602722.75247         0.00041  20398360.12447  20398359.66449
  -4679200.71549  -3646126.99046         0.00041  21897039.33946  21897036.61849
   8317164.66748   6480903.54845         0.00041  23514480.28545  23514476.91048
 02 07 01 17 57 30.0000000  0  6 03 15 17 18 21 23
  -5867771.06648  -4572281.53745         0.00041  23313481.39045  23313476.78048
  -2422159.78549  -1887396.12246         0.00041  20463194.00846  20463191.78149
   -746951.20949   -582039.31346         0.00041  20665738.09846  20665736.02849
  -2052610.50949  -1599435.44747         0.00041  20399162.95547  20399162.48649
  -4720951.03849  -3678659.67646         0.00041  21889094.31246  21889091.51049
   8397210.60748   6543276.96545         0.00041  23529712.58045  23529708.50348
 02 07 01 17 58 00.0000000  0  6 03 15 17 18 21 23
  -5952813.77648  -4638548.49845         0.00041  23297299.15745  23297293.57248
  -2430667.74649  -1894025.69646         0.00041  20461575.02746  20461572.71649
   -741605.27249   -577873.65246         0.00041  20666755.35346  20666753.23149
  -2048047.67449  -1595879.98947         0.00041  20400031.36447  20400030.92449
  -4762454.97649  -3711000.37446         0.00041  21881196.37046  21881193.18249
   8477249.62448   6605645.00545         0.00041  23544943.77145  23544939.94748
 02 07 01 17 58 30.0000000  0  8 03 09 14 15 17 18 21 23
  -6037518.93548  -4704552.42145         0.00041  23281180.24345  23281175.25148
        -1.14958         0.00051         0.00051         0.00051  25104292.44758
        -0.72558         0.42551         0.00051         0.00051  24748608.46758
  -2438893.27349  -1900435.19046         0.00041  20460009.49846  20460007.69049
   -735991.60049   -573499.36846         0.00041  20667824.00446  20667821.50749
  -2043092.22149  -1592018.59247         0.00041  20400974.03947  20400973.84249
  -4803662.63949  -3743110.21346         0.00041  21873354.96046  21873351.76249
   8557329.72548   6668045.00745         0.00041  23560182.72345  23560179.01448
 02 07 01 17 59 00.0000000  0  8 03 09 14 15 17 18 21 23
  -6121882.38448  -4770290.08145         0.00041  23265125.07145  23265121.65048
    -72782.53548         0.00041         0.00041         0.00041  25090443.71848
   -113858.39748    -88719.65844         0.00041  24726951.65844  24726942.47448
  -2446833.83349  -1906622.63046         0.00041  20458498.74046  20458496.48649
   -730107.48649   -568914.34946         0.00041  20668943.66146  20668941.42749
  -2037743.50049  -1587850.75647         0.00041  20401991.90047  20401991.63449
  -4844573.42549  -3774988.71846         0.00041  21865569.73546  21865566.64549
   8637451.52248   6730477.52045         0.00041  23575429.81345  23575426.03348
 02 07 01 17 59 30.0000000  0  8 03 09 14 15 17 18 21 23
  -6205982.74948  -4835822.77045         0.00041  23249120.08245  23249117.69548
   -145575.07248   -113434.27944         0.00041  25076600.77844  25076591.09748
   -227771.11048         0.00041         0.00041         0.00041  24705266.56248
  -2454569.64149  -1912650.52246         0.00041  20457026.38846  20457024.44249
   -724033.24449   -564181.17946         0.00041  20670099.49746  20670097.14049
  -2032083.95749  -1583440.71947         0.00041  20403068.99847  20403068.52149
  -4885269.29749  -3806699.75446         0.00041  21857825.54046  21857823.18649
   8717532.69648   6792878.36745         0.00041  23590667.13945  23590664.16048
 02 07 01 18 00 00.0000000  0  8 03 09 14 15 17 18 21 23
  -6289774.89248  -4901115.26245         0.00041  23233175.81445  23233173.18548
   -218332.93248   -170128.58944         0.00041  25062747.47944  25062744.50448
   -341693.54048         0.00041         0.00041         0.00041  24683588.59348
  -2462057.01149  -1918484.82946         0.00041  20455601.68846  20455599.64549
   -717725.01349   -559265.67546         0.00041  20671300.15946  20671297.73449
  -2026071.86749  -1578755.96247         0.00041  20404212.87947  20404212.44249
  -4925707.51649  -3838210.02146         0.00041  21850130.60946  21850128.16649
   8797614.93848   6855280.08645         0.00041  23605907.47545  23605903.92648
 02 07 01 18 00 30.0000000  0  8 03 09 14 15 17 18 21 23
  -6373242.76848  -4966155.08945         0.00041  23217291.26545  23217289.26848
   -291039.40048         0.00041         0.00041         0.00041  25048907.75548
   -455609.57148   -355018.66044         0.00041  24661917.48444  24661911.09248
  -2469281.57449  -1924114.34046         0.00041  20454226.90846  20454224.71349
   -711168.31549   -554156.55646         0.00041  20672547.54146  20672545.19849
  -2019695.17549  -1573787.10647         0.00041  20405426.35447  20405425.91149
  -4965874.46749  -3869508.90646         0.00041  21842487.15646  21842484.29549
   8877710.09448   6917691.87445         0.00041  23621148.99045  23621146.89448
 02 07 01 18 01 00.0000000  0  8 03 09 14 15 17 18 21 23
  -6456402.66548  -5030954.92745         0.00041  23201467.89445  23201464.81148
   -363710.66948         0.00041         0.00041         0.00041  25035080.01748
   -569535.84348         0.00041         0.00041         0.00041  24640232.23648
  -2476261.71349  -1929553.39746         0.00041  20452898.56446  20452896.44449
   -704381.47549   -548868.15646         0.00041  20673838.45946  20673836.69749
  -2012974.07149  -1568549.85247         0.00041  20406705.52747  20406704.80449
  -5005790.43049  -3900612.21746         0.00041  21834890.88946  21834888.23749
   8957798.05148   6980098.02445         0.00041  23636389.64045  23636385.98948
 02 07 01 18 01 30.0000000  0  7 03 14 15 17 18 21 23
  -6539220.46948  -5095488.19545         0.00041  23185707.26245  23185704.24348
   -683437.95348   -532546.92244         0.00041  24618561.79044  24618557.79648
  -2482964.83549  -1934776.59746         0.00041  20451623.02246  20451620.50949
   -697331.90249   -543374.97746         0.00041  20675180.68146  20675178.30549
  -2005878.09249  -1563020.51247         0.00041  20408055.87347  20408055.29149
  -5045424.11349  -3931495.57046         0.00041  21827348.90446  21827346.09149
   9037909.40748   7042522.37545         0.00041  23651634.69945  23651630.50048
 02 07 01 18 02 00.0000000  0  7 03 14 15 17 18 21 23
  -6621663.99448  -5159729.82545         0.00041  23170019.27945  23170015.76348
   -797283.68148   -621257.65844         0.00041  24596899.49044  24596892.73648
  -2489360.15049  -1939759.94646         0.00041  20450406.09646  20450403.86349
   -689988.47649   -537652.82046         0.00041  20676577.71246  20676575.30149
  -1998378.48149  -1557176.65447         0.00041  20409482.94047  20409482.62549
  -5084745.90449  -3962135.89846         0.00041  21819866.31546  21819863.19349
   9118072.77648   7104987.28245         0.00041  23666888.72145  23666884.97748
 02 07 01 18 02 30.0000000  0  7 03 14 15 17 18 21 23
  -6703770.22348  -5223708.65145         0.00041  23154394.35845  23154391.81548
   -911109.73748         0.00041         0.00041         0.00041  24575232.09348
  -2495486.05849  -1944533.36646         0.00041  20449240.25146  20449238.25449
   -682389.82449   -531731.79546         0.00041  20678023.90046  20678021.52749
  -1990515.73849  -1551049.83147         0.00041  20410979.14347  20410978.74649
  -5123795.53149  -3992564.15046         0.00041  21812435.50246  21812432.31449
   9198247.49548   7167461.02645         0.00041  23682146.72845  23682141.81548
 02 07 01 18 03 00.0000000  0  7 03 14 15 17 18 21 23
  -6785557.23848  -5287438.70545         0.00041  23138830.67945  23138827.76548
  -1024934.22448   -798647.35241         0.00041         0.00041  24553569.26648
  -2501362.34049  -1949112.28046         0.00041  20448122.09746  20448120.08949
   -674555.71349   -525627.29746         0.00041  20679515.20346  20679512.59749
  -1982312.05549  -1544657.34547         0.00041  20412540.30147  20412539.67449
  -5162593.76249  -4022796.50546         0.00041  21805052.58946  21805049.50749
   9278411.71248   7229926.61045         0.00041  23697399.71645  23697397.22548
 02 07 01 18 03 30.0000000  0  7 03 14 15 17 18 21 23
  -6867038.33348  -5350930.38945         0.00041  23123325.94845  23123321.83748
  -1138770.02448   -887350.33844         0.00041  24531916.99644  24531907.06848
  -2507003.78049  -1953508.19747         0.00041  20447048.39247  20447046.59049
   -666500.85349   -519350.78546         0.00041  20681047.37946  20681044.92749
  -1973784.41549  -1538012.42147         0.00041  20414163.01847  20414162.46549
  -5201157.39149  -4052846.05346         0.00041  21797714.38546  21797711.36449
   9358548.60348   7292370.89645         0.00041  23712649.82545  23712646.68448
 02 07 01 18 04 00.0000000  0  8 03 09 14 15 17 18 21 23
  -6948220.87148  -5414189.43445         0.00041  23107877.40645  23107874.03448
        -0.72558         0.00051         0.00051         0.00051  24952383.52958
  -1252624.61748   -976068.03344         0.00041  24510252.05144  24510242.37148
  -2512419.46449  -1957728.20147         0.00041  20446018.11547  20446015.73249
   -658233.97749   -512909.06746         0.00041  20682621.20346  20682618.27149
  -1964943.88249  -1531123.69047         0.00041  20415845.19747  20415844.82949
  -5239496.40849  -4082720.57246         0.00041  21790418.39346  21790415.49149
   9438647.10348   7354785.25545         0.00041  23727891.52545  23727888.49648
 02 07 01 18 04 30.0000000  0  8 03 09 14 15 17 18 21 23
  -7029099.81348  -5477211.91045         0.00041  23092486.13745  23092481.65848
    -72279.67148         0.00041         0.00041         0.00041  24938627.95948
  -1366492.83048  -1064796.33044         0.00041  24488585.25044  24488573.58448
  -2517606.04849  -1961769.69347         0.00041  20445031.21547  20445028.96449
   -649752.06349   -506299.79046         0.00041  20684234.95246  20684231.93749
  -1955789.01549  -1523990.02347         0.00041  20417587.06847  20417586.67449
  -5277609.28449  -4112418.88046         0.00041  21783165.53446  21783162.94249
   9518708.47948   7417170.67545         0.00041  23743128.08745  23743123.77648
 02 07 01 18 05 00.0000000  0  8 03 09 14 15 17 18 21 23
  -7109649.97148  -5539978.18445         0.00041  23077158.68145  23077153.07648
   -144496.84748         0.00041         0.00041         0.00041  24924886.41448
  -1480349.43848  -1153515.57844         0.00041  24466913.73244  24466907.90248
  -2522539.50049  -1965613.93846         0.00041  20444092.07046  20444089.74849
   -641030.88149   -499504.06746         0.00041  20685894.63246  20685891.85949
  -1946298.38649  -1516594.72347         0.00041  20419393.43847  20419393.15749
  -5315472.80249  -4141922.89246         0.00041  21775960.56746  21775957.48249
   9598754.43048   7479544.09845         0.00041  23758359.60445  23758355.92148
 02 07 01 18 05 30.0000000  0  8 03 09 14 15 17 18 21 23
  -7189844.54748  -5602467.39545         0.00041  23061897.74745  23061892.55248
   -216625.12147         0.00041         0.00041         0.00041  24911161.99247
  -1594167.40248  -1242204.70644         0.00041  24445255.56344  24445249.08348
  -2527194.83549  -1969241.47347         0.00041  20443206.19847  20443204.14049
   -632045.43149   -492502.42646         0.00041  20687604.20046  20687601.89649
  -1936448.84749  -1508919.75147         0.00041  20421267.39647  20421267.32849
  -5353063.73949  -4171214.50446         0.00041  21768806.83246  21768803.67049
   9678808.05748   7541923.48745         0.00041  23773593.16445  23773590.06748
 02 07 01 18 06 00.0000000  0  7 03 14 15 17 18 21 23
  -7269691.32148  -5664685.57945         0.00041  23046702.92245  23046698.58348
  -1707954.45448  -1330869.79144         0.00041  24423605.12744  24423595.94348
  -2531581.42749  -1972659.59447         0.00041  20442371.55847  20442369.70749
   -622804.99749   -485302.09346         0.00041  20689362.76046  20689360.14249
  -1926251.97549  -1500974.12847         0.00041  20423208.08247  20423207.67249
  -5390393.18249  -4200302.35546         0.00041  21761703.36146  21761700.22849
   9758858.00948   7604300.00444         0.00041  23788826.00344  23788822.67248
 02 07 01 18 06 30.0000000  0  7 03 14 15 17 18 21 23
  -7349174.88948  -5726620.76245         0.00041  23031577.71245  23031574.77248
  -1821694.62048  -1419498.33544         0.00041  24401962.36744  24401952.19148
  -2535685.11349  -1975857.27547         0.00041  20441590.74247  20441588.64949
   -613295.53849   -477892.12846         0.00041  20691172.41746  20691170.00849
  -1915695.82849  -1492748.55647         0.00041  20425216.96647  20425216.67549
  -5427447.70049  -4229175.97446         0.00041  21754652.29046  21754649.12249
   9838916.42548   7666683.14345         0.00041  23804062.01645  23804057.70348
 02 07 01 18 07 00.0000000  0  8 03 09 14 15 17 18 21 23
  -7428274.20448  -5788256.51145         0.00041  23016527.40945  23016522.56548
        -0.59658        -0.59451         0.00051         0.00051  24870088.84258
  -1935367.13448  -1508074.15444         0.00041  24380328.07844  24380319.39148
  -2539486.71149  -1978819.56746         0.00041  20440867.01446  20440865.00449
   -603497.45849   -470257.26446         0.00041  20693036.69446  20693034.26649
  -1904763.42949  -1484229.79947         0.00041  20427297.20347  20427296.79849
  -5464210.18749  -4257822.03446         0.00041  21747656.20646  21747653.66349
   9919000.62048   7729086.36745         0.00041  23819300.02345  23819297.54148
 02 07 01 18 07 30.0000000  0  8 03 09 14 15 17 18 21 23
  -7506999.05048  -5849600.48745         0.00041  23001545.94745  23001541.56148
    -71718.20248    -55884.20441         0.00041         0.00041  24856442.28848
  -2048981.27348  -1596604.50444         0.00041  24358707.91744  24358698.73348
  -2542997.41149  -1981555.17747         0.00041  20440199.26047  20440197.43749
   -593422.29449   -462406.49246         0.00041  20694954.06946  20694951.51649
  -1893468.18449  -1475428.30447         0.00041  20429446.70847  20429446.31049
  -5500693.02349  -4286250.17846         0.00041  21740713.63046  21740711.35449
   9999097.23748   7791499.26545         0.00041  23834542.83545  23834538.51548
 02 07 01 18 08 00.0000000  0  8 03 09 14 15 17 18 21 23
  -7585349.74448  -5910652.87945         0.00041  22986634.85245  22986630.66748
   -143324.58648   -111681.14941         0.00041         0.00041  24842814.51448
  -2162537.44148  -1685089.64744         0.00041  24337098.19744  24337089.75748
  -2546219.09849  -1984065.58547         0.00041  20439586.29947  20439584.11449
   -583071.62649   -454341.04146         0.00041  20696924.09246  20696921.20849
  -1881814.27349  -1466347.32947         0.00041  20431664.38347  20431664.04049
  -5536899.77849  -4314463.19246         0.00041  21733823.94146  21733821.57849
  10079202.40348   7853918.78044         0.00041  23849785.73644  23849782.62648
 02 07 01 18 08 30.0000000  0  8 03 09 14 15 17 18 21 23
  -7663380.87048  -5971456.29245         0.00041  22971785.24345  22971782.04648
   -214873.46247         0.00041         0.00041         0.00041  24829197.00647
  -2276090.01948  -1773572.05344         0.00041  24315485.39644  24315482.24248
  -2549207.98749  -1986394.59447         0.00041  20439017.41447  20439015.38549
   -572501.60949   -446104.67246         0.00041  20698935.29346  20698932.90549
  -1869859.70049  -1457032.07547         0.00041  20433939.24747  20433938.71349
  -5572887.64449  -4342505.65446         0.00041  21726976.10546  21726973.30149
  10159258.05348   7916299.76445         0.00041  23865020.39545  23865017.21848
 02 07 01 18 09 00.0000000  0  7 03 14 15 17 18 21 23
  -7741095.73848  -6032013.27145         0.00041  22956997.48045  22956993.92048
  -2389641.97748  -1862053.92244         0.00041  24293882.03844  24293874.71848
  -2551968.52249  -1988545.66747         0.00041  20438491.88547  20438489.92749
   -561716.97549   -437701.06346         0.00041  20700987.23046  20700984.75149
  -1857611.70149  -1447488.17547         0.00041  20436269.75747  20436269.38149
  -5608663.16649  -4370382.65946         0.00041  21720168.23046  21720165.18849
  10239257.38048   7978636.86644         0.00041  23880242.31744  23880240.28248
 02 07 01 18 09 30.0000000  0  8 03 09 14 15 17 18 21 23
  -7818435.84248  -6092278.20845         0.00041  22942280.56845  22942277.21548
        -0.97958         0.00051         0.00051         0.00051  24802010.13658
  -2503134.86948  -1950489.80444         0.00041  24272282.59244  24272277.70248
  -2554444.04549  -1990474.64647         0.00041  20438020.90047  20438018.90749
   -550660.81549   -429085.88246         0.00041  20703091.20046  20703088.88449
  -1845015.60149  -1437673.02747         0.00041  20438666.79547  20438666.47249
  -5644170.66949  -4398050.82446         0.00041  21713410.83146  21713407.75549
  10319255.25948   8040972.82144         0.00041  23895465.64844  23895463.24048
 02 07 01 18 10 00.0000000  0  8 03 09 14 15 17 18 21 23
  -7895376.17048  -6152231.64145         0.00041  22927639.82645  22927636.68648
    -71241.31748    -55512.42244         0.00041  24788463.72244  24788454.53848
  -2616543.03248  -2038859.68444         0.00041  24250703.96644  24250697.27648
  -2556610.61249  -1992162.88647         0.00041  20437608.59547  20437606.43149
   -539309.10949   -420240.40446         0.00041  20705251.66546  20705249.40649
  -1832049.67549  -1427569.70547         0.00041  20441134.08047  20441133.69349
  -5679387.88149  -4425492.77946         0.00041  21706709.33846  21706706.53849
  10399273.59948   8103324.70144         0.00041  23910693.14944  23910690.07948
 02 07 01 18 10 30.0000000  0  8 03 09 14 15 17 18 21 23
  -7971977.61548  -6211920.99345         0.00041  22913063.77145  22913059.27848
   -142402.06648   -110962.14344         0.00041  24774916.09844  24774912.99748
  -2729927.44148  -2127211.00644         0.00041  24229125.94344  24229120.54848
  -2558531.21549  -1993659.46747         0.00041  20437243.11747  20437240.96649
   -527724.72949   -411213.62546         0.00041  20707455.89246  20707453.61249
  -1818778.82649  -1417228.78547         0.00041  20443659.41147  20443659.12649
  -5714378.49649  -4452758.15646         0.00041  21700050.52946  21700048.06949
  10479247.57248   8165642.04544         0.00041  23925914.50544  23925909.14248
 02 07 01 18 11 00.0000000  0  8 03 09 14 15 17 18 21 23
  -8048226.95248  -6271335.99045         0.00041  22898552.98245  22898548.44648
   -213469.41948   -166339.09441         0.00041         0.00041  24761389.63748
  -2843274.71748  -2215533.42644         0.00041  24207554.76844  24207550.92248
  -2560193.71949  -1994954.92346         0.00041  20436926.58846  20436924.85249
   -515895.65749   -401996.18146         0.00041  20709707.42846  20709704.76249
  -1805193.60049  -1406642.89547         0.00041  20446244.67047  20446244.18149
  -5749132.72149  -4479839.33746         0.00041  21693437.18046  21693434.76449
  10559187.16148   8227932.59344         0.00041  23941124.86944  23941120.43848
 02 07 01 18 11 30.0000000  0  8 03 09 14 15 17 18 21 23
  -8124111.54348  -6330466.78245         0.00041  22884110.89145  22884108.11948
   -284429.65448         0.00041         0.00041         0.00041  24747885.48148
  -2956571.87648  -2303816.70044         0.00041  24185994.91744  24185990.82848
  -2561587.18749  -1996040.74546         0.00041  20436661.42946  20436659.48249
   -503810.79149   -392579.41446         0.00041  20712006.42046  20712004.03849
  -1791284.94149  -1395804.97947         0.00041  20448891.34647  20448890.98149
  -5783640.89849  -4506728.78846         0.00041  21686870.19646  21686867.93549
  10639101.56448   8290203.47344         0.00041  23956331.44044  23956328.22648
 02 07 01 18 12 00.0000000  0  8 03 09 14 15 17 18 21 23
  -8199585.07948  -6389277.26545         0.00041  22869749.49445  22869746.15648
   -355235.41648   -276805.67941         0.00041         0.00041  24734412.54748
  -3069772.01148  -2392024.41944         0.00041  24164454.89544  24164449.76648
  -2562666.51649  -1996881.78246         0.00041  20436456.15746  20436454.31649
   -491425.05249   -382928.19946         0.00041  20714363.33346  20714361.31049
  -1777010.06649  -1384681.69247         0.00041  20451608.07247  20451607.62949
  -5817859.51349  -4533392.61146         0.00041  21680359.05846  21680355.96849
  10719033.98448   8352488.38844         0.00041  23971544.32144  23971539.37148
 02 07 01 18 12 30.0000000  0  8 03 09 14 15 17 18 21 23
  -8274662.96748  -6447779.46045         0.00041  22855462.46145  22855459.08848
   -425901.26948   -331869.83744         0.00041  24720975.02244  24720964.84548
  -3182890.54148  -2480168.54641         0.00041         0.00041  24142923.03348
  -2563448.48849  -1997491.11046         0.00041  20436307.38646  20436305.43249
   -478755.35249   -373055.71146         0.00041  20716774.33646  20716772.05849
  -1762387.91149  -1373287.80047         0.00041  20454390.37347  20454390.00349
  -5851806.59849  -4559844.86046         0.00041  21673899.21846  21673895.90749
  10798965.66848   8414772.77544         0.00041  23986755.90144  23986749.30748
 02 07 01 18 13 00.0000000  0  8 03 09 14 15 17 18 21 23
  -8349385.46248  -6506004.71645         0.00041  22841243.25745  22841240.00548
   -496466.83348   -386855.81841         0.00041         0.00041  24707536.53748
  -3295967.39848  -2568280.15844         0.00041  24121412.66444  24121404.93048
  -2563974.84549  -1997901.26246         0.00041  20436207.31346  20436205.15049
   -465843.25549   -362994.34446         0.00041  20719231.88346  20719229.60849
  -1747462.96949  -1361657.97147         0.00041  20457230.45047  20457230.09249
  -5885525.59649  -4586119.38546         0.00041  21667482.78046  21667479.18849
  10878852.78248   8477022.41644         0.00041  24001953.83944  24001951.11848
 02 07 01 18 13 30.0000000  0  8 03 09 14 15 17 18 21 23
  -8423742.02448  -6563944.85446         0.00041  22827093.10046  22827090.79548
   -566920.75948   -441754.78941         0.00041         0.00041  24694129.72648
  -3408991.68348  -2656350.80244         0.00041  24099901.35344  24099896.51548
  -2564236.65249  -1998105.26846         0.00041  20436157.78046  20436155.53949
   -452679.78849   -352737.10346         0.00041  20721736.27446  20721734.41549
  -1732228.12749  -1349786.66247         0.00041  20460129.72847  20460129.21249
  -5919008.80149  -4612210.17946         0.00041  21661111.07146  21661107.84949
  10958702.58648   8539242.96544         0.00041  24017148.69744  24017147.06948
 02 07 01 18 14 00.0000000  0  8 03 09 14 15 17 18 21 23
  -8497727.93048  -6621596.14346         0.00041  22813015.24546  22813011.74448
   -637257.43248   -496562.46341         0.00041         0.00041  24680744.30948
  -3521958.38148  -2744376.56444         0.00041  24078405.15744  24078399.98748
  -2564230.55749  -1998100.51846         0.00041  20436158.78346  20436156.63249
   -439261.57649   -342281.36246         0.00041  20724289.91746  20724287.90849
  -1716682.30849  -1337673.03047         0.00041  20463087.89647  20463087.30249
  -5952255.01749  -4638116.30746         0.00041  21654784.47446  21654781.40349
  11038516.39248   8601435.48144         0.00041  24032340.02144  24032335.15848
 02 07 01 18 14 30.0000000  0  8 03 09 14 15 17 18 21 23
  -8571347.16648  -6678961.71646         0.00041  22799004.63446  22799002.04948
   -707479.95448         0.00041         0.00041         0.00041  24667380.21848
  -3634871.40248  -2832360.46444         0.00041  24056920.23444  24056913.29948
  -2563962.05449  -1997891.29646         0.00041  20436209.44946  20436207.53249
   -425594.01249   -331631.31646         0.00041  20726890.64846  20726888.44149
  -1700833.09449  -1325322.98747         0.00041  20466103.90747  20466103.54049
  -5985270.83049  -4663842.89446         0.00041  21648501.36946  21648498.90849
  11118286.81248   8663594.19044         0.00041  24047517.16144  24047514.69148
 02 07 01 18 15 00.0000000  0  8 03 09 14 15 17 18 21 23
  -8644561.73548  -6736011.97946         0.00041  22785072.30146  22785069.62348
   -777549.41748   -605880.65341         0.00041         0.00041  24654045.85748
  -3747692.27148  -2920272.56944         0.00041  24035449.88944  24035443.42648
  -2563394.48549  -1997449.03946         0.00041  20436317.66546  20436315.44249
   -411640.38449   -320758.37246         0.00041  20729546.12746  20729544.04249
  -1684646.28549  -1312709.88147         0.00041  20469183.97747  20469183.43849
  -6018020.99349  -4689362.47746         0.00041  21642269.18446  21642266.78549
  11198048.78448   8725746.32344         0.00041  24062697.84544  24062692.16148
 02 07 01 18 15 30.0000000  0  8 03 09 14 15 17 18 21 23
  -8717382.73248  -6792755.54146         0.00041  22771215.58846  22771211.68548
   -847476.38048   -660369.14344         0.00041  24640747.71444  24640741.01448
  -3860431.93848  -3008121.32344         0.00041  24013996.46544  24013989.08148
  -2562540.48149  -1996783.58446         0.00041  20436480.17546  20436478.00549
   -397413.39049   -309672.41146         0.00041  20732253.14646  20732251.21549
  -1668136.57449  -1299845.17147         0.00041  20472325.78547  20472325.24849
  -6050520.33949  -4714686.61046         0.00041  21636084.83946  21636082.33749
  11277787.64548   8787880.43144         0.00041  24077871.46444  24077866.42748
 02 07 01 18 16 00.0000000  0  8 03 09 14 15 17 18 21 23
  -8789805.74248  -6849188.99846         0.00041  22757434.01746  22757431.16748
   -917255.60148   -714742.42641         0.00041         0.00041  24627461.61448
  -3973085.65848  -3095903.16344         0.00041  23992560.71644  23992550.53948
  -2561397.16249  -1995892.68346         0.00041  20436697.64146  20436695.89449
   -382910.14549   -298371.19246         0.00041  20735012.94346  20735010.97449
  -1651303.49349  -1286728.48147         0.00041  20475528.88547  20475528.54849
  -6082767.06649  -4739813.90046         0.00041  21629948.07746  21629945.69349
  11357504.55748   8849997.40044         0.00041  24093041.60644  24093035.61048
 02 07 01 18 16 30.0000000  0  8 03 09 14 15 17 18 21 23
  -8861828.05348  -6905310.20746         0.00041  22743729.55646  22743725.43348
   -986883.15948   -768997.56644         0.00041  24614222.02744  24614212.59548
  -4085650.27648  -3183615.50844         0.00041  23971136.29944  23971129.28348
  -2559962.99449  -1994775.15046         0.00041  20436970.62546  20436968.53749
   -368129.01249   -286853.43646         0.00041  20737826.07746  20737823.87849
  -1634147.93149  -1273360.51247         0.00041  20478793.69647  20478793.31149
  -6114760.71249  -4764743.99246         0.00041  21623860.12846  21623857.47449
  11437199.08048   8912096.99044         0.00041  24108204.64444  24108201.41448
 02 07 01 18 17 00.0000000  0  8 03 09 14 15 17 18 21 23
  -8933455.52548  -6961123.76646         0.00041  22730098.63746  22730094.75748
  -1056364.11448   -823138.42641         0.00041         0.00041  24600990.56148
  -4198131.16948  -3271262.63644         0.00041  23949736.65744  23949725.73548
  -2558245.08249  -1993436.52046         0.00041  20437297.51246  20437295.56049
   -353077.35849   -275124.88846         0.00041  20740689.93846  20740688.05349
  -1616679.01149  -1259748.36947         0.00041  20482117.80247  20482117.49249
  -6146510.00949  -4789483.68846         0.00041  21617818.61846  21617815.79049
  11516862.22048   8974172.09244         0.00041  24123363.37544  24123360.57248
 02 07 01 18 17 30.0000000  0  7 03 14 15 17 18 21 23
  -9004679.93548  -7016623.24046         0.00041  22716544.45546  22716540.88548
  -4310520.10548  -3358838.10844         0.00041  23928346.02144  23928339.44448
  -2556236.76949  -1991871.60546         0.00041  20437679.65846  20437677.71049
   -337748.24549   -263180.14146         0.00041  20743607.23446  20743605.37249
  -1598892.47049  -1245888.72947         0.00041  20485502.46247  20485502.03449
  -6178010.13349  -4814029.22246         0.00041  21611824.42746  21611821.55549
  11596498.98048   9036226.62944         0.00041  24138520.49944  24138514.60048
 02 07 01 18 18 00.0000000  0  7 03 14 15 17 18 21 23
  -9075501.76948  -7071809.02946         0.00041  22703067.59646  22703064.37648
  -4422817.02448  -3446341.85544         0.00041  23906977.48444  23906969.93148
  -2553940.22949  -1990082.09646         0.00041  20438116.60146  20438114.79449
   -322143.56249   -251020.66346         0.00041  20746577.10346  20746574.89449
  -1580792.63949  -1231784.96847         0.00041  20488946.76847  20488946.43149
  -6209264.57049  -4838383.31246         0.00041  21605876.97746  21605874.44549
  11676105.50948   9098257.60744         0.00041  24153666.15344  24153664.80948
 02 07 01 18 18 30.0000000  0  7 03 14 15 17 18 21 23
  -9145926.33548  -7126685.26846         0.00041  22689666.03546  22689662.83548
  -4535026.76948  -3533777.70744         0.00041  23885620.28144  23885617.25448
  -2551361.64549  -1988072.81246         0.00041  20438607.65046  20438605.52549
   -306269.86749   -238651.56546         0.00041  20749597.21146  20749595.52949
  -1562388.32249  -1217443.94647         0.00041  20492449.06747  20492448.52449
  -6240281.07749  -4862551.99846         0.00041  21599974.60246  21599972.29649
  11755673.35648   9160258.47544         0.00041  24168808.14344  24168805.34048
 02 07 01 18 19 00.0000000  0  8 03 09 14 15 17 18 21 23
  -9215932.23048  -7181235.26346         0.00041  22676344.86946  22676341.65848
         0.07257         0.00051         0.00051         0.00051  24548400.36257
  -4647127.81148  -3621128.86844         0.00041  23864289.89744  23864284.60548
  -2548481.18649  -1985828.30446         0.00041  20439155.81446  20439153.62349
   -290107.16449   -226057.25946         0.00041  20752673.13146  20752670.90549
  -1543661.76449  -1202851.82147         0.00041  20496012.58947  20496012.22949
  -6271042.02449  -4886521.54746         0.00041  21594120.93946  21594118.41649
  11835220.80648   9222243.43644         0.00041  24183944.96144  24183941.93648
 02 07 01 18 19 30.0000000  0  8 03 09 14 15 17 18 21 23
  -9285523.31048  -7235462.04146         0.00041  22663101.29746  22663098.68748
    -68671.59747         0.00041         0.00041         0.00041  24535332.05047
  -4759123.64048  -3708398.03644         0.00041  23842976.75144  23842971.91548
  -2545304.23649  -1983352.76446         0.00041  20439760.20946  20439758.07049
   -273660.69849   -213241.85346         0.00041  20755802.83446  20755800.56949
  -1524620.41749  -1188014.40747         0.00041  20499635.93047  20499635.47549
  -6301553.85749  -4910296.97946         0.00041  21588314.23946  21588311.77049
  11914740.76848   9284206.98844         0.00041  24199079.95844  24199075.84248
 02 07 01 18 20 00.0000000  0  7 03 14 15 17 18 21 23
  -9354698.40148  -7289364.67346         0.00041  22649938.17146  22649935.10148
  -4871012.50848  -3795583.86144         0.00041  23821684.42644  23821680.80148
  -2541830.58649  -1980646.02447         0.00041  20440421.20347  20440419.38549
   -256930.53849   -200205.38046         0.00041  20758986.65646  20758984.31749
  -1505266.49949  -1172933.43847         0.00041  20503318.66847  20503318.40149
  -6331817.85449  -4933879.29246         0.00041  21582555.09746  21582552.37149
  11994231.43948   9346147.77744         0.00041  24214205.68444  24214200.83248
 02 07 01 18 20 30.0000000  0  7 03 14 15 17 18 21 23
  -9423488.80848  -7342967.54946         0.00041  22636847.69446  22636844.54348
  -4982825.16548  -3882710.33244         0.00041  23800405.71644  23800402.49348
  -2538093.01849  -1977733.63047         0.00041  20441132.19647  20441130.46049
   -239949.11549   -186973.11646         0.00041  20762217.59546  20762215.61449
  -1485634.92149  -1157636.10547         0.00041  20507054.66447  20507054.21749
  -6361869.12749  -4957295.85446         0.00041  21576836.56146  21576833.44049
  12073658.20748   9408038.60944         0.00041  24229318.68044  24229315.22248
 02 07 01 18 21 00.0000000  0  7 03 14 15 17 18 21 23
  -9491847.05148  -7396233.66746         0.00041  22623840.22246  22623837.32248
  -5094513.81348  -3969740.13544         0.00041  23779154.28044  23779148.40948
  -2534045.34749  -1974579.59847         0.00041  20441902.71247  20441900.83149
   -222670.46349   -173509.24646         0.00041  20765505.78346  20765503.85349
  -1465681.90549  -1142088.30747         0.00041  20510851.66247  20510851.19349
  -6391662.38749  -4980511.36246         0.00041  21571167.35946  21571164.23249
  12153065.67848   9469914.47844         0.00041  24244432.44144  24244427.33748
 02 07 01 18 21 30.0000000  0  7 03 14 15 17 18 21 23
  -9559784.03348  -7449171.53146         0.00041  22610911.76646  22610908.57448
  -5206088.97148  -4056681.51444         0.00041  23757927.76544  23757916.09948
  -2529700.21649  -1971193.78147         0.00041  20442729.29147  20442727.48349
   -205106.75149   -159823.25346         0.00041  20768848.45646  20768846.08349
  -1445422.00149  -1126301.37647         0.00041  20514707.04347  20514706.63349
  -6421211.39049  -5003536.54446         0.00041  21565544.24946  21565541.57949
  12232439.65248   9531764.29744         0.00041  24259536.35444  24259531.29648
 02 07 01 18 22 00.0000000  0  7 03 14 15 17 18 21 23
  -9627305.03548  -7501785.25746         0.00041  22598062.10046  22598059.03748
  -5317555.79248  -4143538.50844         0.00041  23736711.64144  23736705.52348
  -2525063.97549  -1967581.12347         0.00041  20443611.59347  20443609.63749
   -187264.70449   -145920.37746         0.00041  20772243.64146  20772241.51949
  -1424864.09749  -1110282.23947         0.00041  20518618.93747  20518618.74849
  -6450524.24949  -5026377.71246         0.00041  21559966.40246  21559963.70249
  12311771.75348   9593581.46344         0.00041  24274632.47744  24274628.42748
 02 07 01 18 22 30.0000000  0  8 03 09 14 15 17 18 21 23
  -9694409.83448  -7554074.66446         0.00041  22585292.10246  22585289.21748
        -0.32658        -0.25351         0.00051         0.00051  24457611.40358
  -5428913.21448  -4230310.31544         0.00041  23715521.91744  23715515.24148
  -2520137.36249  -1963742.20847         0.00041  20444549.30647  20444547.20849
   -169145.20849   -131801.30246         0.00041  20775691.39646  20775689.20449
  -1404011.34349  -1094033.34947         0.00041  20522587.24847  20522586.60949
  -6479603.73149  -5049037.02346         0.00041  21554432.71846  21554430.40549
  12391059.55348   9655364.11344         0.00041  24289719.79544  24289716.92648
 02 07 01 18 23 00.0000000  0  8 03 09 14 15 17 18 21 23
  -9761122.80648  -7606058.74646         0.00041  22572597.24946  22572594.48048
    -67471.67948         0.00041         0.00041         0.00041  24444771.57048
  -5540185.15148  -4317015.46844         0.00041  23694344.02144  23694340.69548
  -2514946.49949  -1959697.38547         0.00041  20445537.14847  20445535.16049
   -150774.05149   -117486.12646         0.00041  20779187.33746  20779185.31449
  -1382891.94649  -1077576.68847         0.00041  20526605.92147  20526605.63949
  -6508477.71049  -5071536.20746         0.00041  21548938.49646  21548936.02949
  12470275.33148   9717090.63244         0.00041  24304792.76244  24304789.54648
 02 07 01 18 23 30.0000000  0  8 03 09 14 15 17 18 21 23
  -9827420.37948  -7657719.13446         0.00041  22559981.41146  22559978.09648
   -134763.33148   -105010.08741         0.00041         0.00041  24431965.94048
  -5651347.67248  -4403635.40544         0.00041  23673193.34144  23673187.17448
  -2509468.83049  -1955429.07447         0.00041  20446579.45947  20446577.63149
   -132128.97649   -102957.50446         0.00041  20782735.18446  20782733.41949
  -1361485.98949  -1060896.72647         0.00041  20530679.34647  20530679.00849
  -6537125.01549  -5093858.76446         0.00041  21543486.84346  21543484.29349
  12549439.83348   9778777.16544         0.00041  24319860.12244  24319854.74448
 02 07 01 18 24 00.0000000  0  8 03 09 14 15 17 18 21 23
  -9893301.33148  -7709054.89946         0.00041  22547445.31546  22547441.38148
   -201872.82948   -157303.11344         0.00041  24419200.81944  24419194.69548
  -5762399.02648  -4490168.75344         0.00041  23652058.05544  23652054.25048
  -2503704.27649  -1950937.22047         0.00041  20447676.59547  20447674.58049
   -113209.63449    -88215.17546         0.00041  20786335.90046  20786333.64249
  -1339795.38349  -1043994.96347         0.00041  20534806.87247  20534806.40549
  -6565547.28949  -5116005.97246         0.00041  21538078.48846  21538075.70749
  12628551.52148   9840422.59944         0.00041  24334911.63544  24334908.41848
 02 07 01 18 24 30.0000000  0  8 03 09 14 15 17 18 21 23
  -9958735.48848  -7760042.49946         0.00041  22534993.03046  22534989.74248
   -268768.89948   -209429.78744         0.00041  24406474.83344  24406464.90448
  -5873308.38548  -4576591.42044         0.00041  23630954.41244  23630948.40248
  -2497623.99849  -1946199.35047         0.00041  20448833.74147  20448831.52749
    -93987.16649    -73236.64546         0.00041  20789993.45446  20789991.66649
  -1317793.27049  -1026850.46247         0.00041  20538993.80547  20538993.52749
  -6593717.03349  -5137956.40946         0.00041  21532717.64146  21532715.25349
  12707637.52548   9902048.00044         0.00041  24349963.68544  24349958.99348
 02 07 01 18 25 00.0000000  0  8 03 09 14 15 17 18 21 23
 -10023721.07348  -7810680.56746         0.00041  22522626.58746  22522623.38948
   -335448.70048   -261387.92544         0.00041  24393781.97444  24393776.68948
  -5984073.53448  -4662901.75445         0.00041  23609877.67245  23609870.73548
  -2491227.51049  -1941215.08047         0.00041  20450050.78547  20450048.69349
    -74461.27349    -58021.67646         0.00041  20793709.33246  20793707.07849
  -1295481.92649  -1009465.00047         0.00041  20543239.54147  20543239.23049
  -6621635.18449  -5159710.79346         0.00041  21527404.75846  21527402.47649
  12786696.57648   9963652.39344         0.00041  24365007.78444  24365002.92148
 02 07 01 18 25 30.0000000  0  8 03 09 14 15 17 18 21 23
 -10088270.56448  -7860978.83146         0.00041  22510343.64546  22510340.61148
   -401923.68548   -313186.45444         0.00041  24381133.07044  24381126.53048
  -6094706.34948  -4749108.96045         0.00041  23588823.27645  23588818.02348
  -2484528.42649  -1935995.02446         0.00041  20451325.45346  20451323.45549
    -54645.44549    -42580.78746         0.00041  20797480.20046  20797477.80949
  -1272877.18349   -991850.91247         0.00041  20547541.37247  20547540.97249
  -6649317.57549  -5181281.46446         0.00041  21522137.06446  21522134.75849
  12865713.31148  10025223.82044         0.00041  24380042.52444  24380039.47648
 02 07 01 18 26 00.0000000  0  8 03 09 14 15 17 18 21 23
 -10152399.89048  -7910949.68946         0.00041  22498140.62046  22498137.43948
   -468208.79748   -364837.07044         0.00041  24368519.09944  24368513.04048
  -6205222.12648  -4835224.94645         0.00041  23567792.60245  23567787.77048
  -2477543.89749  -1930552.54246         0.00041  20452654.50446  20452652.78749
    -34556.82049    -26927.32846         0.00041  20801303.12246  20801300.77749
  -1249998.27849   -974023.19447         0.00041  20551894.88747  20551894.42249
  -6676782.40249  -5202682.59746         0.00041  21516910.40046  21516908.21249
  12944669.06048  10086747.72344         0.00041  24395069.20844  24395065.05248
 02 07 01 18 26 30.0000000  0  8 03 09 14 15 17 18 21 23
 -10216090.24948  -7960578.50146         0.00041  22486020.17246  22486017.30348
   -534284.46248   -416324.48044         0.00041  24355944.55944  24355939.54148
  -6315601.99448  -4921235.04545         0.00041  23546787.91645  23546783.19648
  -2470256.69449  -1924874.20947         0.00041  20454041.50147  20454039.31149
    -14178.14649    -11047.85746         0.00041  20805180.79546  20805178.58049
  -1226830.65349   -955970.49647         0.00041  20556303.37847  20556303.32449
  -6704014.41849  -5223902.32246         0.00041  21511728.69746  21511726.70249
  13023579.19948  10148236.06944         0.00041  24410084.99944  24410080.56948
 02 07 01 18 27 00.0000000  0  8 03 09 14 15 17 18 21 23
 -10279332.33548  -8009858.00546         0.00041  22473985.27646  22473982.59248
   -600140.09048   -467640.46644         0.00041  24343413.73144  24343406.76748
  -6425835.99348  -5007131.49645         0.00041  23525811.75845  23525805.99948
  -2462658.96349  -1918953.91046         0.00041  20455487.01946  20455485.27149
      6498.62449      5063.89646         0.00041  20809115.01246  20809113.29449
  -1203368.01149   -937687.91347         0.00041  20560768.24547  20560767.93049
  -6731006.83349  -5244935.34346         0.00041  21506592.38246  21506589.93349
  13102450.34048  10209694.02344         0.00041  24425094.95344  24425089.58248
 02 07 01 18 27 30.0000000  0  8 03 09 14 15 17 18 21 23
 -10342123.85148  -8058786.42946         0.00041  22462035.55246  22462032.89948
   -665771.91748   -518782.07444         0.00041  24330924.05944  24330917.81248
  -6535921.12148  -5092911.92445         0.00041  23504862.76445  23504857.20648
  -2454749.29049  -1912790.53246         0.00041  20456991.95246  20456990.20449
     27474.89149     21409.02846         0.00041  20813106.92346  20813104.96949
  -1179611.25649   -919176.15647         0.00041  20565289.31647  20565288.88449
  -6757760.17649  -5265782.07646         0.00041  21501501.31346  21501498.32749
  13181282.37148  10271121.52145         0.00041  24440094.71245  24440091.36148
 02 07 01 18 28 00.0000000  0  8 03 09 14 15 17 18 21 23
 -10404472.91348  -8107370.07446         0.00041  22450171.19846  22450168.58248
   -731187.09648   -569754.84344         0.00041  24318474.45844  24318468.62848
  -6645864.63148  -5178582.03945         0.00041  23483939.61545  23483934.45848
  -2446536.84049  -1906391.22546         0.00041  20458554.76146  20458552.92649
     48741.40249     37980.31746         0.00041  20817153.99146  20817151.66349
  -1155572.11449   -900444.35547         0.00041  20569863.56647  20569863.08249
  -6784285.06749  -5286450.81146         0.00041  21496454.02146  21496450.88749
  13260064.13348  10332509.85544         0.00041  24455088.13344  24455082.60548
 02 07 01 18 28 30.0000000  0  8 03 09 14 15 17 18 21 23
 -10466389.10548  -8155616.42246         0.00041  22438389.67346  22438386.26548
   -796394.25348   -620565.55044         0.00041  24306067.37844  24306060.30348
  -6755675.68248  -5264148.92345         0.00041  23463044.40845  23463037.68248
  -2438032.35349  -1899764.35846         0.00041  20460173.26946  20460171.27849
     70287.17049     54769.21146         0.00041  20821254.39646  20821251.82049
  -1131263.64549   -881502.69347         0.00041  20574489.35347  20574489.00549
  -6810594.02249  -5306951.28346         0.00041  21491447.50346  21491444.36649
  13338783.25648  10393849.34444         0.00041  24470067.38044  24470062.14248
 02 07 01 18 29 00.0000000  0  8 03 09 14 15 17 18 21 23
 -10527848.95748  -8203507.17946         0.00041  22426694.45546  22426690.70048
   -861368.80348         0.00041         0.00041         0.00041  24293696.91148
  -6865330.60848  -5349594.14045         0.00041  23442177.78045  23442170.42548
  -2429213.62949  -1892892.63346         0.00041  20461851.62846  20461849.50049
     92134.55349     71793.12846         0.00041  20825411.47746  20825408.92049
  -1106666.00849   -862335.70547         0.00041  20579170.01747  20579169.52249
  -6836666.43849  -5327267.44246         0.00041  21486485.85246  21486482.83849
  13417460.38648  10455156.13844         0.00041  24485037.35144  24485034.42048
 02 07 01 18 29 30.0000000  0  8 03 09 14 15 17 18 21 23
 -10588849.99548  -8251040.40946         0.00041  22415086.43046  22415083.02148
   -926107.07248         0.00041         0.00041         0.00041  24281376.61048
  -6974825.95248  -5434915.02545         0.00041  23421342.05445  23421334.79648
  -2420079.51149  -1885775.14446         0.00041  20463589.68246  20463587.93949
    114284.90449     89053.12846         0.00041  20829626.38646  20829624.26949
  -1081779.81749   -842943.86847         0.00041  20583905.74447  20583905.34649
  -6862502.54249  -5347399.45046         0.00041  21481569.22946  21481566.15149
  13496095.33448  10516430.05244         0.00041  24500001.64444  24499997.83948
 02 07 01 18 30 00.0000000  0  8 03 09 14 15 17 18 21 23
 -10649383.01248  -8298208.95246         0.00041  22403567.19546  22403563.41648
   -990598.84247         0.00041         0.00041         0.00041  24269103.76747
  -7084152.01948  -5520103.99044         0.00041  23400536.52044  23400530.93948
  -2410622.07849  -1878405.71746         0.00041  20465389.01646  20465387.54049
    136746.05249    106555.30646         0.00041  20833900.67846  20833898.59049
  -1056599.62149   -823322.93346         0.00041  20588697.28646  20588696.94149
  -6888095.77249  -5367342.20146         0.00041  21476698.70446  21476696.38549
  13574694.46048  10577676.07444         0.00041  24514958.72644  24514954.15848
 02 07 01 18 30 30.0000000  0  8 03 09 14 15 17 18 21 23
 -10709449.67448  -8345014.11146         0.00041  22392136.80546  22392133.13448
  -1054844.38448         0.00041         0.00041         0.00041  24256880.20648
  -7193309.96048  -5605161.95745         0.00041  23379763.12045  23379758.90648
  -2400844.11549  -1870786.52746         0.00041  20467249.92946  20467248.18149
    159515.18649    124297.47146         0.00041  20838233.33446  20838231.27049
  -1031130.57349   -803476.92147         0.00041  20593543.97347  20593543.57949
  -6913450.60549  -5387099.18246         0.00041  21471873.38546  21471871.62749
  13653253.29948  10638890.66744         0.00041  24529906.73744  24529903.70148
 02 07 01 18 31 00.0000000  0  8 03 09 14 15 17 18 21 23
 -10769056.56348  -8391461.00646         0.00041  22380793.74446  22380790.81648
  -1118848.90848   -871828.40241         0.00041         0.00041  24244699.22848
  -7302305.48048  -5690093.32845         0.00041  23359022.55545  23359018.20748
  -2390752.93649  -1862923.28046         0.00041  20469170.35646  20469168.27849
    182584.91949    142273.86946         0.00041  20842623.39446  20842621.50149
  -1005382.13349   -783413.20447         0.00041  20598443.76247  20598443.38549
  -6938576.25149  -5406677.57846         0.00041  21467091.72446  21467090.52549
  13731763.03748  10700067.01544         0.00041  24544847.53344  24544843.94548
 02 07 01 18 31 30.0000000  0  8 03 09 14 15 17 18 21 23
 -10828222.33848  -8437564.17346         0.00041  22369534.20846  22369531.60248
  -1182630.42747         0.00041         0.00041         0.00041  24232559.94047
  -7411156.50648  -5774912.12645         0.00041  23338307.84945  23338304.22948
  -2380368.22749  -1854831.30846         0.00041  20471146.20646  20471144.21349
    205935.28349    160468.93846         0.00041  20847066.85246  20847064.54649
   -979376.56249   -763149.12447         0.00041  20603392.38547  20603391.85949
  -6963494.44749  -5426094.32046         0.00041  21462350.24546  21462348.73349
  13810202.04348  10761188.25944         0.00041  24559775.38244  24559769.75448
 02 07 01 18 32 00.0000000  0  8 03 09 14 15 17 18 21 23
 -10886916.64548  -8483299.96146         0.00041  22358364.94146  22358362.05948
  -1246157.07948         0.00041         0.00041         0.00041  24220472.77748
  -7519832.23448  -5859594.32845         0.00041  23317627.11545  23317623.88348
  -2369661.23249  -1846488.20346         0.00041  20473183.87746  20473181.76249
    229595.39549    178905.37246         0.00041  20851569.40046  20851567.18149
   -953087.01149   -742663.76747         0.00041  20608395.37547  20608394.88149
  -6988177.25949  -5445327.65346         0.00041  21457653.64446  21457651.65249
  13888597.96248  10822275.89144         0.00041  24574692.64244  24574689.55048
 02 07 01 18 32 30.0000000  0  8 03 09 14 15 17 18 21 23
 -10945103.50948  -8528640.34646         0.00041  22347292.65046  22347290.34148
  -1309391.72948         0.00041         0.00041         0.00041  24208440.35548
  -7628295.94548  -5944111.32645         0.00041  23296988.09845  23296983.40048
  -2358596.96949  -1837866.71446         0.00041  20475289.67246  20475287.50349
    253600.31749    197610.48346         0.00041  20856137.82446  20856135.23449
   -926480.76249   -721931.62947         0.00041  20613458.20747  20613457.83149
  -7012591.83949  -5464351.98246         0.00041  21453007.79746  21453005.85449
  13966984.37148  10883356.16844         0.00041  24589611.41644  24589604.06848
 02 07 01 18 33 00.0000000  0  8 03 09 14 15 17 18 21 23
 -11002804.71948  -8573602.28746         0.00041  22336312.38946  22336310.52648
  -1372354.49348  -1069364.86644         0.00041  24196463.63844  24196458.96548
  -7736568.61748  -6028479.44744         0.00041  23276383.47344  23276379.82048
  -2347198.16149  -1828984.53746         0.00041  20477458.50346  20477456.44049
    277927.09749    216566.39746         0.00041  20860767.11846  20860764.66649
   -899582.77349   -700972.16047         0.00041  20618576.53447  20618576.13449
  -7036762.40749  -5483186.18046         0.00041  21448408.46846  21448406.17149
  14045336.74948  10944409.85541         0.00041         0.00041  24604513.16248
 02 07 01 18 33 30.0000000  0  8 03 09 14 15 17 18 21 23
 -11060052.40848  -8618210.84546         0.00041  22325418.37946  22325416.19148
  -1435076.69348  -1118239.17044         0.00041  24184527.74344  24184522.63748
  -7844681.64548  -6112723.19044         0.00041  23255808.17744  23255805.94048
  -2335498.14349  -1819867.65446         0.00041  20479685.17346  20479683.02749
    302542.59449    235747.29546         0.00041  20865451.21246  20865448.94049
   -872428.59949   -679813.07147         0.00041  20623743.99047  20623743.58449
  -7060723.58649  -5501857.21946         0.00041  21443849.00846  21443846.41349
  14123620.28848  11005409.96344         0.00041  24619417.35344  24619410.93748
 02 07 01 18 34 00.0000000  0  8 03 09 14 15 17 18 21 23
 -11116934.22748  -8662534.31146         0.00041  22314594.58546  22314591.49448
  -1497644.98048  -1166993.50944         0.00041  24172623.30844  24172616.06348
  -7952722.03448  -6196910.30844         0.00041  23235250.24244  23235246.15248
  -2323585.58449  -1810585.15246         0.00041  20481951.88046  20481949.75949
    327357.89449    255083.87746         0.00041  20870173.23846  20870170.91549
   -845109.26949   -658525.28647         0.00041  20628942.86547  20628942.42549
  -7084565.37849  -5520435.22846         0.00041  21439312.00346  21439309.13149
  14201744.88348  11066286.21544         0.00041  24634277.61944  24634278.73748
 02 07 01 18 34 30.0000000  0  8 03 09 14 15 17 18 21 23
 -11173367.27148  -8706508.07446         0.00041  22303856.03046  22303853.05348
  -1559974.78748  -1215562.07744         0.00041  24160761.21744  24160754.94348
  -8060606.18548  -6280975.69444         0.00041  23214719.28344  23214716.22748
  -2311378.66549  -1801073.27646         0.00041  20484274.80846  20484272.42749
    352454.96649    274640.01846         0.00041  20874949.53746  20874946.55849
   -817544.83049   -637046.50847         0.00041  20634188.05447  20634187.44849
  -7108207.79349  -5538857.87146         0.00041  21434813.25046  21434810.37449
  14279791.08148  11127101.40544         0.00041  24649134.17644  24649131.03348
 02 07 01 18 35 00.0000000  0  8 03 09 14 15 17 18 21 23
 -11229307.29348  -8750097.67246         0.00041  22293210.28446  22293207.56248
  -1622020.72948  -1263909.42941         0.00041         0.00041  24148948.84148
  -8168289.03748  -6364884.22345         0.00041  23194229.32345  23194225.27248
  -2298834.23749  -1791298.41346         0.00041  20486662.12346  20486659.85149
    377877.02349    294449.39346         0.00041  20879786.60246  20879784.42949
   -789694.53149   -615344.98446         0.00041  20639487.78646  20639487.26949
  -7131609.38149  -5557092.85646         0.00041  21430359.50746  21430357.17449
  14357800.59748  11187887.93844         0.00041  24663981.59944  24663976.52148
 02 07 01 18 35 30.0000000  0  8 03 09 14 15 17 18 21 23
 -11284768.69248  -8793314.31446         0.00041  22282656.19646  22282653.03348
  -1683796.01248  -1312045.83644         0.00041  24137196.01244  24137192.79048
  -8275784.25048  -6448646.53545         0.00041  23173773.01145  23173769.85048
  -2285967.74749  -1781272.58846         0.00041  20489110.53046  20489108.49149
    403608.52949    314499.90446         0.00041  20884683.25546  20884680.98449
   -761576.15949   -593434.57046         0.00041  20644838.44946  20644838.08949
  -7154787.38949  -5575153.62646         0.00041  21425948.69446  21425946.64549
  14435756.40548  11248632.64944         0.00041  24678818.17044  24678810.27348
 02 07 01 18 36 00.0000000  0  8 03 09 14 15 17 18 21 23
 -11339774.16848  -8836175.69446         0.00041  22272189.67746  22272186.73048
  -1745322.10248  -1359988.06844         0.00041  24125490.74144  24125484.91248
  -8383113.79748  -6532279.77545         0.00041  23153348.22845  23153345.89448
  -2272803.04849  -1771014.39146         0.00041  20491615.65246  20491613.45849
    429625.53549    334772.87646         0.00041  20889634.71346  20889631.71149
   -733215.55049   -571335.39846         0.00041  20650235.37046  20650234.90749
  -7177767.15849  -5593059.92146         0.00041  21421576.01246  21421573.51749
  14513633.46548  11309315.97241         0.00041         0.00041  24693628.70448
 02 07 01 18 36 30.0000000  0  8 03 09 14 15 17 18 21 23
 -11394312.32748  -8878672.92946         0.00041  22261811.39446  22261808.54148
  -1806586.29548  -1407726.21044         0.00041  24113831.21244  24113826.49248
  -8490265.51848  -6615774.44245         0.00041  23132959.36745  23132955.41048
  -2259329.65949  -1760515.65546         0.00041  20494179.58346  20494177.33049
    455938.56949    355276.52946         0.00041  20894641.71146  20894639.34049
   -704604.48549   -549041.06846         0.00041  20655679.90146  20655679.51749
  -7200539.55049  -5610804.62246         0.00041  21417242.29746  21417239.86749
  14591440.86948  11369945.01841         0.00041         0.00041  24708434.98848
 02 07 01 18 37 00.0000000  0  8 03 09 14 15 17 18 21 23
 -11448326.10348  -8920761.55446         0.00041  22251531.94946  22251529.34448
  -1867530.25248  -1455214.81244         0.00041  24102232.73844  24102229.34748
  -8597181.70348  -6699085.59445         0.00041  23112614.12945  23112609.77248
  -2245491.53949  -1749732.71446         0.00041  20496812.71046  20496810.40249
    482603.68349    376054.52246         0.00041  20899715.67146  20899713.04549
   -675689.40249   -526509.83946         0.00041  20661182.23246  20661181.78449
  -7223050.42349  -5628345.54246         0.00041  21412958.90546  21412956.28849
  14669232.95948  11430562.19244         0.00041  24723241.43544  24723238.55448
 02 07 01 18 37 30.0000000  0  8 03 09 14 15 17 18 21 23
 -11501817.01748  -8962442.76146         0.00041  22241353.07646  22241350.51048
  -1928153.95748  -1502453.95841         0.00041         0.00041  24090692.81148
  -8703862.84148  -6782213.56245         0.00041  23092313.28045  23092308.45248
  -2231290.97749  -1738667.35246         0.00041  20499514.96546  20499512.92749
    509618.45749    397104.97546         0.00041  20904856.54146  20904853.90649
   -646474.51449   -503744.99046         0.00041  20666741.39146  20666741.29149
  -7245303.35649  -5645685.47446         0.00041  21408724.22746  21408721.82349
  14747006.14048         0.00041         0.00041         0.00041  24738039.29848
 02 07 01 18 38 00.0000000  0  8 03 09 14 15 17 18 21 23
 -11554815.21348  -9003740.03646         0.00041  22231268.45846  22231265.64248
  -1988486.27248  -1549466.06741         0.00041         0.00041  24079209.85448
  -8810338.28448  -6865181.27045         0.00041  23072050.39045  23072046.25048
  -2216759.27749  -1727343.95746         0.00041  20502280.28546  20502278.02949
    536951.62149    418403.52646         0.00041  20910057.45446  20910054.99649
   -616993.21849   -480772.55446         0.00041  20672351.73546  20672351.28849
  -7267331.60649  -5662850.33046         0.00041  21404532.29046  21404530.11249
  14824727.83148         0.00041         0.00041         0.00041  24752827.92248
 02 07 01 18 38 30.0000000  0  8 03 09 14 15 17 18 21 23
 -11607370.06548  -9044691.83546         0.00041  22221267.30646  22221264.75748
  -2048575.30848  -1596288.58041         0.00041         0.00041  24067776.04748
  -8916656.45248  -6948026.44745         0.00041  23051819.83245  23051814.03048
  -2201946.74749  -1715801.73546         0.00041  20505099.27146  20505097.03549
    564553.07249    439911.13846         0.00041  20915309.99146  20915307.68749
   -587298.02349   -457633.44646         0.00041  20678002.59646  20678002.15149
  -7289186.73949  -5679880.29046         0.00041  21400373.65646  21400371.38349
  14902346.16848  11612208.71044         0.00041  24767607.90744  24767601.27048
 02 07 01 18 39 00.0000000  0  8 03 09 14 15 17 18 21 23
 -11659470.22648  -9085289.33646         0.00041  22211352.88246  22211350.23848
  -2108408.34848  -1642911.53944         0.00041  24056395.96244  24056390.26048
  -9022805.22748  -7030739.63645         0.00041  23031619.43945  23031613.48848
  -2186843.10549  -1704032.67246         0.00041  20507973.44146  20507971.37149
    592432.93949    461635.69246         0.00041  20920615.63746  20920613.24749
   -557380.75949   -434321.29446         0.00041  20683695.68746  20683695.15949
  -7310859.83549  -5696768.39846         0.00041  21396249.27846  21396246.77249
  14979870.28748  11672617.07544         0.00041  24782354.37944  24782353.37948
 02 07 01 18 39 30.0000000  0  8 03 09 14 15 17 18 21 23
 -11711065.63248  -9125493.51246         0.00041  22201535.00546  22201532.26748
  -2167934.47748  -1689295.36344         0.00041  24045067.57144  24045063.51448
  -9128733.96948  -7113281.35945         0.00041  23011461.49145  23011455.98148
  -2171399.37949  -1691998.61146         0.00041  20510912.30446  20510910.04849
    620640.09949    483615.27246         0.00041  20925983.61746  20925981.06849
   -527194.91449   -410799.86046         0.00041  20689439.86946  20689439.23049
  -7332303.31549  -5713477.58246         0.00041  21392168.69646  21392166.26449
  15057347.81048  11732989.13141         0.00041         0.00041  24797094.02648
 02 07 01 18 40 00.0000000  0  7 03 09 14 15 17 18 21
 -11762153.57948  -9165302.27646         0.00041  22191813.32446  22191811.01548
  -2227149.53148  -1735436.81944         0.00041  24033799.98844  24033795.31348
  -9234438.83448  -7195648.63545         0.00041  22991346.77545  22991341.93748
  -2155613.50949  -1679697.94246         0.00041  20513916.25846  20513913.96349
    649176.39049    505851.32246         0.00041  20931413.61846  20931411.17149
   -496740.71149   -387069.31446         0.00041  20695235.14246  20695234.57149
  -7353517.59349  -5730008.16546         0.00041  21388131.37646  21388129.53949
 02 07 01 18 40 30.0000000  0  7 03 09 14 15 17 18 21
 -11812740.47248  -9204720.61046         0.00041  22182185.73146  22182183.67248
  -2286057.98148  -1781339.43644         0.00041  24022591.93644  24022584.44648
  -9339925.45348  -7277845.84945         0.00041  22971272.51945  22971269.34848
  -2139492.94249  -1667136.47246         0.00041  20516983.90446  20516981.53249
    678034.70749    528338.30046         0.00041  20936905.17046  20936902.77349
   -466027.25249   -363136.75246         0.00041  20701079.52746  20701079.18149
  -7374511.64249  -5746367.14346         0.00041  21384136.37246  21384134.58449
 02 07 01 18 41 00.0000000  0  7 03 09 14 15 17 18 21
 -11862816.66648  -9243740.98946         0.00041  22172656.22146  22172654.02748
  -2344649.07548  -1826994.73944         0.00041  24011439.03544  24011434.39948
  -9445183.21748  -7359864.74145         0.00041  22951243.26845  22951239.33248
  -2123029.18849  -1654307.58746         0.00041  20520116.77146  20520114.65649
    707223.61249    551082.87746         0.00041  20942459.62146  20942456.99049
   -435048.03949   -338997.10646         0.00041  20706974.75946  20706974.34549
  -7395277.80249  -5762548.54146         0.00041  21380185.17046  21380182.67949
 02 07 01 18 41 30.0000000  0  7 03 09 14 15 17 18 21
 -11912380.39548  -9282362.05846         0.00041  22163225.10546  22163222.48048
  -2402919.55348  -1872400.21644         0.00041  24000355.71044  24000346.27848
  -9550209.28048  -7441703.06045         0.00041  22931256.64745  22931254.45848
  -2106221.08049  -1641210.37346         0.00041  20523315.20346  20523313.24749
    736743.95649    574085.71546         0.00041  20948076.95346  20948074.50249
   -403804.20449   -314651.26446         0.00041  20712920.26646  20712919.76949
  -7415816.74749  -5778552.89546         0.00041  21376276.20846  21376273.91249
 02 07 01 18 42 00.0000000  0  8 03 06 09 14 15 17 18 21
 -11961446.55548  -9320595.40446         0.00041  22153888.41346  22153885.72048
        -0.61157         0.00051         0.00051         0.00051  24203977.31957
  -2460883.14548  -1917566.55044         0.00041  23989323.05044  23989316.60748
  -9655017.96648  -7523372.01145         0.00041  22911313.50645  22911310.32848
  -2089084.75549  -1627857.40846         0.00041  20526576.35446  20526574.30149
    766579.91749    597334.49246         0.00041  20953754.56146  20953752.23649
   -372314.13149   -290113.55246         0.00041  20718912.73046  20718912.40249
  -7436145.94549  -5794393.80746         0.00041  21372408.08646  21372405.75449
 02 07 01 18 42 30.0000000  0  7 03 09 14 15 17 18 21
 -12010056.33848  -9358473.13446         0.00041  22144638.84446  22144636.35148
  -2518579.42948  -1962524.61344         0.00041  23978341.90344  23978337.08148
  -9759649.41848  -7604902.86545         0.00041  22891402.27245  22891399.15148
  -2071661.90749  -1614281.17846         0.00041  20529891.94646  20529889.59849
    796689.27749    620796.29846         0.00041  20959484.36646  20959482.00749
   -340621.90049   -265418.31546         0.00041  20724943.61246  20724943.02349
  -7456308.75249  -5810105.06546         0.00041  21368570.91246  21368568.59749
 02 07 01 18 43 00.0000000  0  7 03 09 14 15 17 18 21
 -12058169.75448  -9395964.08646         0.00041  22135482.81246  22135480.62248
  -2575966.97348  -2007242.09544         0.00041  23967422.15244  23967416.18048
  -9864062.43048  -7686263.50545         0.00041  22871532.74945  22871529.53448
  -2053913.33049  -1600451.13546         0.00041  20533269.16146  20533266.84149
    827111.28849    644501.73746         0.00041  20965273.75246  20965271.35549
   -308690.39249   -240536.63446         0.00041  20731019.97046  20731019.47949
  -7476267.85649  -5825657.59946         0.00041  21364773.21946  21364770.43449
 02 07 01 18 43 30.0000000  0  7 03 09 14 15 17 18 21
 -12105774.00948  -9433058.29146         0.00041  22126423.66646  22126421.44348
  -2633031.81648  -2051708.09044         0.00041  23956564.96244  23956558.10248
  -9968243.43648  -7767443.39345         0.00041  22851708.01245  22851704.05948
  -2035827.31949  -1586358.15646         0.00041  20536710.92246  20536708.54349
    857857.57749    668459.85146         0.00041  20971124.88346  20971121.85749
   -276509.91249   -215460.94746         0.00041  20737143.68246  20737143.26049
  -7496012.68549  -5841043.16246         0.00041  21361015.74346  21361013.16749
 02 07 01 18 44 00.0000000  0  7 03 09 14 15 17 18 21
 -12152878.41248  -9469763.00046         0.00041  22117460.46446  22117457.32548
  -2689781.72048  -2095928.72344         0.00041  23945762.97844  23945758.98848
 -10072200.83148  -7848449.03545         0.00041  22831925.92845  22831919.75648
  -2017414.13149  -1572010.23146         0.00041  20540214.55346  20540212.48749
    888918.33649    692663.01246         0.00041  20977035.70746  20977032.78949
   -244092.50449   -190200.64646         0.00041  20743312.30246  20743312.25749
  -7515555.42549  -5856271.25146         0.00041  21357297.04546  21357294.54949
 02 07 01 18 44 30.0000000  0  7 03 09 14 15 17 18 21
 -12199506.49848  -9506096.55746         0.00041  22108587.15446  22108584.18548
  -2746238.71448  -2139921.11844         0.00041  23935018.77944  23935015.57748
 -10175957.28248  -7929298.09745         0.00041  22812180.28845  22812175.12448
  -1998698.08649  -1557426.30946         0.00041  20543776.60546  20543774.07049
    920268.82349    717091.93546         0.00041  20983001.50346  20982998.66649
   -211464.64449   -164776.35646         0.00041  20749521.24746  20749520.89349
  -7534921.86249  -5871361.96246         0.00041  21353611.46446  21353609.07049
 02 07 01 18 45 00.0000000  0  7 03 09 14 15 17 18 21
 -12245636.00348  -9542041.61746         0.00041  22099808.65346  22099805.15548
  -2802378.93248  -2183666.66044         0.00041  23924337.28144  23924331.72948
 -10279489.00848  -8009972.04645         0.00041  22792479.71045  22792474.31048
  -1979657.54649  -1542589.53346         0.00041  20547399.53346  20547396.93849
    951930.81549    741763.59246         0.00041  20989026.34846  20989023.48149
   -178607.07449   -139173.06946         0.00041  20755773.88346  20755773.59149
  -7554091.62049  -5886299.42146         0.00041  21349963.21846  21349961.37649
 02 07 01 18 45 30.0000000  0  7 03 09 14 15 17 18 21
 -12291259.89848  -9577592.68946         0.00041  22091127.51746  22091124.57748
  -2858193.94548  -2227158.77844         0.00041  23913714.84644  23913709.90948
 -10382788.20548  -8090464.79945         0.00041  22772821.72145  22772818.45948
  -1960286.08149  -1527494.89546         0.00041  20551085.79346  20551083.36349
    983910.30349    766682.64646         0.00041  20995111.59246  20995109.06249
   -145515.67949   -113387.58346         0.00041  20762070.84946  20762070.54649
  -7573060.13449  -5901080.06246         0.00041  21346353.69746  21346351.54349
 02 07 01 18 46 00.0000000  0  7 03 09 14 15 17 18 21
 -12336346.82948  -9612725.35246         0.00041  22082546.86046  22082544.77548
  -2913651.02248  -2270371.98944         0.00041  23903162.36744  23903157.37348
 -10485822.70448  -8170751.28445         0.00041  22753213.38345  22753211.77148
  -1940553.66449  -1512119.00046         0.00041  20554840.72446  20554838.54149
   1016237.78449    791872.86546         0.00041  21001263.81046  21001260.76249
   -112161.77149    -87397.53846         0.00041  20768418.14946  20768417.87849
  -7591798.60149  -5915681.44646         0.00041  21342787.73746  21342785.87149
 02 07 01 18 46 30.0000000  0  7 03 09 14 15 17 18 21
 -12380920.79948  -9647458.30346         0.00041  22074065.04446  22074062.21448
  -2968772.67048  -2313323.85944         0.00041  23892672.18944  23892668.45748
 -10588615.33148  -8250849.30545         0.00041  22733652.25745  22733650.58348
  -1920485.12149  -1496481.18746         0.00041  20558659.54646  20558657.39149
   1048888.45048    817314.91046         0.00041  21007476.60346  21007473.91048
    -78572.49449    -61224.09446         0.00041  20774810.14246  20774809.81949
  -7610333.30349  -5930124.05346         0.00041  21339260.89546  21339258.79549
 02 07 01 18 47 00.0000000  0  7 03 09 14 15 17 18 21
 -12424959.46048  -9681774.12946         0.00041  22065684.52346  22065682.23548
  -3023535.15148  -2355995.86644         0.00041  23882252.11044  23882247.08848
 -10691142.77848  -8330740.67445         0.00041  22714140.44145  22714139.97348
  -1900058.56049  -1480564.40046         0.00041  20562546.95746  20562544.44649
   1081883.65648    843025.43346         0.00041  21013755.57046  21013752.48848
    -44728.15649    -34851.89546         0.00041  20781250.19846  20781250.00549
  -7628644.20249  -5944392.26446         0.00041  21335776.43146  21335774.25149
 02 07 01 18 47 30.0000000  0  7 03 09 14 15 17 18 21
 -12468473.54948  -9715681.19746         0.00041  22057404.33846  22057401.77648
  -3077947.38948  -2398394.96944         0.00041  23871896.58844  23871892.92648
 -10793414.25248  -8410432.60545         0.00041  22694679.23245  22694677.40148
  -1879285.15449  -1464377.34446         0.00041  20566499.70946  20566497.54349
   1115212.30048    868995.76746         0.00041  21020097.99846  21020094.86848
    -10641.97549     -8291.24946         0.00041  20787736.73846  20787736.14949
  -7646744.02149  -5958496.00146         0.00041  21332332.10746  21332329.74749
 02 07 01 18 48 00.0000000  0  8 03 09 14 15 17 18 21 31
 -12511463.83748  -9749180.10446         0.00041  22049223.21046  22049220.83048
  -3132008.73148  -2440520.62845         0.00041  23861611.33545  23861604.38148
 -10895429.88748  -8489925.16845         0.00041  22675266.44545  22675264.18448
  -1858166.53949  -1447921.29846         0.00041  20570518.59446  20570516.12249
   1148872.64549    895224.58046         0.00041  21026503.00346  21026500.68549
     23682.41849     18455.01746         0.00041  20794268.44646  20794267.79649
  -7664635.65349  -5972437.51946         0.00041  21328927.47946  21328925.12149
        -0.03058         0.00051         0.00051         0.00051  24812753.39158
 02 07 01 18 48 30.0000000  0  8 03 09 14 15 17 18 21 31
 -12553938.42148  -9782277.16646         0.00041  22041141.56746  22041138.56848
  -3185725.72848  -2482377.91444         0.00041  23851390.07344  23851382.24148
 -10997196.54548  -8569223.72945         0.00041  22655902.06945  22655899.12848
  -1836712.06549  -1431203.54746         0.00041  20574601.35646  20574599.06649
   1182855.80049    921704.94046         0.00041  21032970.30546  21032967.20149
     58233.73349     45378.10346         0.00041  20800843.41846  20800842.95849
  -7682329.71549  -5986225.09246         0.00041  21325560.21846  21325557.96849
    -93572.87548         0.00041         0.00041         0.00041  24794945.74048
 02 07 01 18 49 00.0000000  0  8 03 09 14 15 17 18 21 31
 -12595914.57748  -9814985.85246         0.00041  22033153.20146  22033150.37548
  -3239114.41448  -2523979.38444         0.00041  23841227.60444  23841223.34048
 -11098730.45648  -8648340.94045         0.00041  22636580.10745  22636577.31548
  -1814939.59049  -1414237.99546         0.00041  20578744.07846  20578742.12249
   1217143.67749    948422.73346         0.00041  21039495.07246  21039492.08349
     92992.09049     72462.52746         0.00041  20807457.72846  20807457.10949
  -7699845.85549  -5999874.02146         0.00041  21322227.41646  21322224.84349
   -186901.09048         0.00041         0.00041         0.00041  24777186.20748
 02 07 01 18 49 30.0000000  0  8 03 09 14 15 17 18 21 31
 -12637383.79748  -9847299.50846         0.00041  22025261.91046  22025258.73148
  -3292164.43648  -2565316.99944         0.00041  23831131.49144  23831127.91648
 -11200022.26048  -8727269.49345         0.00041  22617305.07045  22617301.67048
  -1792841.25649  -1397018.53346         0.00041  20582949.53646  20582947.54449
   1251744.08449    975384.05946         0.00041  21046079.12046  21046076.59449
    127963.12349     99712.66746         0.00041  20814112.34046  20814111.99249
  -7717177.21849  -6013378.96946         0.00041  21318929.22546  21318926.79949
   -279974.69648         0.00041         0.00041         0.00041  24759474.60148
 02 07 01 18 50 00.0000000  0  7 03 09 14 15 17 18 21
 -12678309.54348  -9879189.69346         0.00041  22017474.13746  22017471.23148
  -3344837.99548  -2606361.22744         0.00041  23821111.22244  23821104.57148
 -11301033.93448  -8805979.77146         0.00041  22598083.97846  22598080.21548
  -1770381.23349  -1379517.23246         0.00041  20587223.80246  20587221.27349
   1286692.56549   1002616.60346         0.00041  21052729.71546  21052727.08949
    163180.81349    127155.01446         0.00041  20820814.20246  20820813.71049
  -7734289.61049  -6026713.29446         0.00041  21315672.88146  21315670.28449
 02 07 01 18 50 30.0000000  0  8 03 09 14 15 17 18 21 31
 -12718705.78548  -9910667.26846         0.00041  22009786.84146  22009783.58948
  -3397147.45448  -2647121.74444         0.00041  23811156.13644  23811150.12748
 -11401778.04248  -8884481.55546         0.00041  22578912.54346  22578909.17648
  -1747574.29949  -1361745.61646         0.00041  20591563.93446  20591561.44949
   1321974.58649   1030109.03646         0.00041  21059443.49646  21059441.12149
    198629.13449    154777.07346         0.00041  20827559.62846  20827559.31549
  -7751199.63649  -6039889.92846         0.00041  21312454.85346  21312452.70449
        -1.09958         0.00051         0.00051         0.00051  24724213.93658
 02 07 01 18 51 00.0000000  0  8 03 09 14 15 17 18 21 31
 -12758575.84448  -9941734.83946         0.00041  22002200.25746  22002197.04748
  -3449094.48848  -2687599.88545         0.00041  23801270.03545  23801265.15948
 -11502256.88148  -8962776.63346         0.00041  22559792.62646  22559788.80048
  -1724424.22449  -1343706.61246         0.00041  20595968.76246  20595966.69249
   1357586.11649   1057858.27246         0.00041  21066219.39446  21066217.54749
    234301.68649    182573.84946         0.00041  20834348.14446  20834347.64949
  -7767912.34549  -6052912.80746         0.00041  21309274.47946  21309272.48049
    -92225.56748         0.00041         0.00041         0.00041  24706664.75848
 02 07 01 18 51 30.0000000  0  8 03 09 14 15 17 18 21 31
 -12797918.58048  -9972391.50846         0.00041  21994712.77646  21994710.64348
  -3500676.35748  -2727793.43245         0.00041  23791455.04145  23791450.06548
 -11602468.37648  -9040863.39846         0.00041  22540722.16846  22540718.94548
  -1700930.50649  -1325399.83546         0.00041  20600439.63246  20600437.44049
   1393527.81649   1085864.77246         0.00041  21073059.18146  21073056.96749
    270196.72649    210544.00446         0.00041  20841178.76646  20841178.16849
  -7784428.39649  -6065782.44946         0.00041  21306131.65646  21306129.56449
   -184170.16548   -143508.87044         0.00041  24689175.79844  24689168.68748
 02 07 01 18 52 00.0000000  0  8 03 09 14 15 17 18 21 31
 -12836783.67948 -10002675.98746         0.00041  21987317.52446  21987314.37548
  -3551940.92248  -2767739.75044         0.00041  23781698.51544  23781694.78348
 -11702460.79848  -9118779.45346         0.00041  22521694.33346  22521691.12048
  -1677143.41849  -1306864.46346         0.00041  20604966.28646  20604964.06849
   1429749.17549   1114089.15046         0.00041  21079952.16546  21079949.96949
    306262.40549    238647.12346         0.00041  20848041.60246  20848041.08349
  -7800799.70849  -6078539.30246         0.00041  21303016.00646  21303014.08849
   -275883.16548   -214973.46844         0.00041  24671720.26644  24671716.30948
 02 07 01 18 52 30.0000000  0  8 03 09 14 15 17 18 21 31
 -12875163.89548 -10032582.62646         0.00041  21980014.28446  21980011.33248
  -3602879.47948  -2807432.03445         0.00041  23772005.47045  23772000.93448
 -11802225.70948  -9196518.22546         0.00041  22502709.38546  22502706.26048
  -1653056.49949  -1288095.45446         0.00041  20609549.81046  20609548.02049
   1466256.80748   1142536.61046         0.00041  21086899.40946  21086896.84848
    342503.51449    266886.93846         0.00041  20854938.02346  20854937.68349
  -7817021.49649  -6091179.63946         0.00041  21299929.24946  21299927.04349
   -367356.16848   -286251.00844         0.00041  24654315.22244  24654309.98648
 02 07 01 18 53 00.0000000  0  8 03 09 14 15 17 18 21 31
 -12913041.51548 -10062097.64146         0.00041  21972805.05146  21972803.37848
  -3653472.81548  -2846855.31444         0.00041  23762376.39944  23762373.13748
 -11901744.36048  -9274065.10046         0.00041  22483770.66746  22483767.48748
  -1628652.78849  -1269079.59846         0.00041  20614193.65046  20614191.86549
   1503067.66048   1171220.37646         0.00041  21093904.45946  21093901.69448
    378935.03749    295275.12746         0.00041  20861871.06146  20861870.55849
  -7833077.68249  -6103690.94446         0.00041  21296874.02746  21296871.58549
   -458570.01748   -357326.59944         0.00041  24636956.30744  24636952.57448
 02 07 01 18 53 30.0000000  0  8 03 09 14 15 17 18 21 31
 -12950346.07548 -10091166.12046         0.00041  21965706.73346  21965704.52948
  -3703648.93848  -2885953.49444         0.00041  23752826.48144  23752825.19448
 -12000945.00848  -9351364.18246         0.00041  22464893.90946  22464890.42548
  -1603862.34149  -1249762.38646         0.00041  20618911.37846  20618908.96349
   1540251.31648   1200194.63146         0.00041  21100979.84146  21100977.44448
    415624.64449    323864.42146         0.00041  20868852.85846  20868852.37349
  -7848900.00749  -6116020.01346         0.00041  21293862.93646  21293860.77549
   -549453.21048   -428144.59644         0.00041  24619662.12444  24619657.09548
 02 07 01 18 54 00.0000000  0  8 03 09 14 15 17 18 21 31
 -12987055.54148 -10119770.88946         0.00041  21958721.08746  21958719.00648
  -3753384.19548  -2924708.13444         0.00041  23743363.13144  23743360.08948
 -12099804.34548  -9428397.31446         0.00041  22446081.75346  22446078.34748
  -1578663.70249  -1230127.10846         0.00041  20623706.61746  20623704.25249
   1577829.18548   1229476.05546         0.00041  21108130.91846  21108128.33348
    452591.97649    352670.12246         0.00041  20875887.19446  20875886.59549
  -7864468.72849  -6128151.47546         0.00041  21290900.22846  21290898.36149
   -639982.25148   -498686.58044         0.00041  24602432.75644  24602429.22648
 02 07 01 18 54 30.0000000  0  8 03 09 14 15 17 18 21 31
 -13023244.55048 -10147970.11146         0.00041  21951834.69146  21951832.41148
  -3802751.57248  -2963176.09044         0.00041  23733968.99144  23733965.56948
 -12198395.70148  -9505221.62146         0.00041  22427321.29446  22427317.42948
  -1553132.05649  -1210232.33946         0.00041  20628564.75346  20628562.60849
   1615726.25048   1259006.19746         0.00041  21115342.61046  21115340.21648
    489759.78949    381632.04846         0.00041  20882960.17246  20882959.55449
  -7879860.66049  -6140145.17746         0.00041  21287971.32746  21287969.08649
   -730230.26848   -569009.56144         0.00041  24585260.71844  24585254.96448
 02 07 01 18 55 00.0000000  0  8 03 09 14 15 17 18 21 31
 -13058919.21548 -10175768.54246         0.00041  21945046.00946  21945043.57248
  -3851755.57548  -3001360.96544         0.00041  23724645.04844  23724640.82748
 -12296723.77948  -9581840.79346         0.00041  22408609.64746  22408605.70648
  -1527273.95949  -1190083.18646         0.00041  20633485.67546  20633483.23849
   1653935.83149   1288779.86446         0.00041  21122613.78546  21122611.22949
    527119.67049    410743.63446         0.00041  20890069.20146  20890068.87049
  -7895083.23549  -6152006.91546         0.00041  21285074.68746  21285072.46149
   -820202.00948   -639117.22944         0.00041  24568138.60344  24568134.43548
 02 07 01 18 55 30.0000000  0  8 03 09 14 15 17 18 21 31
 -13094048.65848 -10203142.13446         0.00041  21938361.20846  21938358.92848
  -3900363.60448  -3039237.24644         0.00041  23715394.73844  23715391.08248
 -12394756.70048  -9658229.96146         0.00041  22389954.24646  22389951.07548
  -1501059.09349  -1169656.03746         0.00041  20638474.26846  20638471.94949
   1692488.07549   1318820.53846         0.00041  21129950.53946  21129947.57949
    564700.03049    440027.01746         0.00041  20897220.56546  20897220.26049
  -7910107.46849  -6163714.09446         0.00041  21282215.49746  21282213.15949
   -909865.18548   -708984.50744         0.00041  24551079.07644  24551073.71748
 02 07 01 18 56 00.0000000  0  8 03 09 14 15 17 18 21 31
 -13128626.63048 -10230086.00746         0.00041  21931781.61646  21931778.89148
  -3948567.59448  -3076798.70344         0.00041  23706221.92244  23706217.75048
 -12492486.70048  -9734383.09246         0.00041  22371356.67646  22371353.58848
  -1474481.84049  -1148946.51246         0.00041  20643531.96046  20643529.63349
   1731388.65949   1349132.64646         0.00041  21137352.28146  21137350.08249
    602504.78949    469485.26046         0.00041  20904414.68946  20904414.32549
  -7924928.89949  -6175263.25146         0.00041  21279395.05246  21279392.56549
   -999212.09848   -778605.33241         0.00041         0.00041  24534070.87448
 02 07 01 18 56 30.0000000  0  8 03 09 14 15 17 18 21 31
 -13162646.82948 -10256595.24946         0.00041  21925307.67746  21925304.89148
  -3996359.42248  -3114038.96044         0.00041  23697126.03844  23697122.88348
 -12589905.97948  -9810294.09546         0.00041  22352817.83246  22352815.76148
  -1447536.25049  -1127949.97446         0.00041  20648659.29946  20648657.22349
   1770643.41149   1379720.72546         0.00041  21144822.45746  21144819.94849
    640538.07749    499121.57246         0.00041  20911652.36646  20911651.72549
  -7939543.17449  -6186650.98946         0.00041  21276613.94746  21276611.97149
  -1088234.86447   -847973.55344         0.00041  24517131.15644  24517129.46347
 02 07 01 18 57 00.0000000  0  7 03 09 14 15 17 18 21
 -13196142.63448 -10282695.86646         0.00041  21918933.55046  21918930.78948
  -4043771.07048  -3150982.99344         0.00041  23688104.46944  23688101.42748
 -12687046.88148  -9885988.19746         0.00041  22334332.68246  22334330.79448
  -1420256.42849  -1106692.99246         0.00041  20653850.62646  20653848.42549
   1810218.07549   1410558.07746         0.00041  21152353.59046  21152350.92449
    678763.93249    528907.94446         0.00041  20918926.73546  20918926.27549
  -7953985.93049  -6197905.07246         0.00041  21273865.59046  21273863.79749
 02 07 01 18 57 30.0000000  0  7 03 09 14 15 17 18 21
 -13229108.71248 -10308383.70746         0.00041  21912659.77546  21912657.10048
  -4090795.37148  -3187625.22644         0.00041  23679157.81844  23679152.28748
 -12783902.34748  -9961459.86446         0.00041  22315900.96346  22315899.62148
  -1392637.33749  -1085171.64346         0.00041  20659106.01246  20659103.94949
   1850117.94049   1441648.83646         0.00041  21159945.99246  21159943.69849
    717185.69049    558846.96546         0.00041  20926237.97746  20926237.52049
  -7968253.19949  -6209022.41346         0.00041  21271150.52546  21271148.57449
 02 07 01 18 58 00.0000000  0  7 03 09 14 15 17 18 21
 -13261513.10348 -10333633.86646         0.00041  21906493.53846  21906490.70448
  -4137398.94048  -3223939.65144         0.00041  23670288.89144  23670283.84848
 -12880439.26248 -10036683.32146         0.00041  22297531.84346  22297529.01948
  -1364647.65649  -1063361.52546         0.00041  20664432.49646  20664430.36249
   1890373.93448   1473017.10746         0.00041  21167606.59346  21167604.02048
    755832.77349    588961.56746         0.00041  20933592.30446  20933591.90749
  -7982315.18249  -6219979.79446         0.00041  21268474.56946  21268472.96149
 02 07 01 18 58 30.0000000  0  8 03 09 14 15 17 18 21 31
 -13293354.13448 -10358445.05246         0.00041  21900434.45846  21900431.52248
  -4183578.40748  -3259923.57444         0.00041  23661501.45844  23661496.56048
 -12976655.01048 -10111656.51846         0.00041  22279222.47246  22279218.80848
  -1336286.29149  -1041261.78646         0.00041  20669829.47446  20669827.29049
   1930987.28748   1504663.83746         0.00041  21175334.89946  21175332.63348
    794704.31949    619251.07346         0.00041  20940989.03546  20940988.68549
  -7996172.12149  -6230777.39746         0.00041  21265837.77546  21265835.97949
         0.24358         0.00051         0.00051         0.00051  24449952.54458
 02 07 01 18 59 00.0000000  0  8 03 09 14 15 17 18 21 31
 -13324673.86348 -10382850.02846         0.00041  21894474.79146  21894472.14848
  -4229373.88848  -3295608.26844         0.00041  23652786.35444  23652781.42048
 -13072589.66048 -10186410.67946         0.00041  22260965.46146  22260962.37848
  -1307595.49449  -1018905.34246         0.00041  20675289.04046  20675286.90749
   1971915.69848   1536556.06646         0.00041  21183123.43946  21183121.12948
    833756.42149    649681.27346         0.00041  20948420.49146  20948419.78549
  -8009867.90149  -6241449.42346         0.00041  21263231.49846  21263229.60249
    -87468.74448    -68156.61144         0.00041  24433312.83144  24433308.12448
 02 07 01 18 59 30.0000000  0  8 03 09 14 15 17 18 21 31
 -13355491.58948 -10406863.82646         0.00041  21888610.44746  21888607.76848
  -4274802.96148  -3331007.48445         0.00041  23644140.89645  23644136.84348
 -13168261.42148 -10260959.99646         0.00041  22242759.08546  22242756.27948
  -1278595.28849   -996307.79946         0.00041  20680807.86746  20680805.53149
   2013138.88948   1568677.98346         0.00041  21190968.10046  21190965.25948
    872967.14249    680235.06646         0.00041  20955882.11546  20955881.61949
  -8023423.42949  -6252012.16246         0.00041  21260652.25546  21260650.21249
   -174660.49148   -136098.09644         0.00041  24416721.19744  24416714.85748
 02 07 01 19 00 00.0000000  0  7 03 09 14 15 17 18 21
 -13385755.12648 -10430445.80146         0.00041  21882851.31046  21882849.08148
  -4319812.04648  -3366079.43045         0.00041  23635577.15845  23635571.60348
 -13263616.76948 -10335262.75546         0.00041  22224613.63846  22224611.48848
  -1249233.91549   -973428.83446         0.00041  20686395.13046  20686392.98849
   2054708.76548   1601070.04546         0.00041  21198878.72246  21198875.51748
    912386.70449    710951.60146         0.00041  20963383.72846  20963383.26649
  -8036788.76549  -6262426.69946         0.00041  21258108.95246  21258106.59249
 02 07 01 19 00 30.0000000  0  7 03 09 14 15 17 18 21
 -13415489.45749 -10453615.40746         0.00041  21877192.67246  21877190.69949
  -4364424.12848  -3400841.97844         0.00041  23627085.50144  23627082.35548
 -13358678.92048 -10409337.05246         0.00041  22206524.44946  22206522.32848
  -1219536.43949   -950287.96846         0.00041  20692046.26046  20692044.30949
   2096599.96448   1633712.49946         0.00041  21206850.91346  21206847.81448
    951988.17149    741809.87446         0.00041  20970919.38346  20970918.98849
  -8049989.74149  -6272713.16946         0.00041  21255596.87346  21255594.22449
 02 07 01 19 01 00.0000000  0  8 03 09 14 15 17 18 21 31
 -13444647.94548 -10476336.30646         0.00041  21871643.85646  21871641.62448
  -4408590.90448  -3435257.58544         0.00041  23618680.91544  23618677.65548
 -13453400.18648 -10483145.71046         0.00041  22188499.38446  22188496.70948
  -1189456.82049   -926849.32746         0.00041  20697770.16446  20697768.32349
   2138858.66048   1666641.29846         0.00041  21214892.03346  21214889.54348
    991815.88149    772844.44046         0.00041  20978498.61546  20978498.16649
  -8062981.74249  -6282836.80146         0.00041  21253124.60846  21253122.07949
        -1.21958        -1.62251         0.00051         0.00051  24367311.90458
 02 07 01 19 01 30.0000000  0  8 03 09 14 15 17 18 21 31
 -13473269.16349 -10498638.55546         0.00041  21866197.90946  21866195.48049
  -4452349.07248  -3469354.81844         0.00041  23610355.12044  23610351.31848
 -13547817.40048 -10556717.44946         0.00041  22170532.18546  22170529.27848
  -1159034.04449   -903143.29746         0.00041  20703559.71546  20703557.49749
   2181445.77548   1699826.00846         0.00041  21222996.53246  21222993.50948
   1031829.09649    804023.55446         0.00041  20986112.29346  20986112.20749
  -8075804.63149  -6292828.65846         0.00041  21250684.08046  21250681.74349
    -85879.82648    -66919.88944         0.00041  24350974.03044  24350970.04848
 02 07 01 19 02 00.0000000  0  8 03 09 14 15 17 18 21 31
 -13501386.09549 -10520547.84546         0.00041  21860847.65646  21860844.79849
  -4495729.88348  -3503157.97944         0.00041  23602100.27844  23602095.23448
 -13641962.07948 -10630076.83746         0.00041  22152616.99346  22152613.96448
  -1128301.26449   -879195.69746         0.00041  20709407.91046  20709405.55249
   2224327.91548   1733240.61046         0.00041  21231156.77246  21231153.63148
   1071992.87149    835319.98546         0.00041  20993755.72846  20993755.14949
  -8088493.49849  -6302716.07946         0.00041  21248269.46446  21248267.33649
   -171470.83348   -133614.07344         0.00041  24334690.29844  24334682.53048
 02 07 01 19 02 30.0000000  0  8 03 09 14 15 17 18 21 31
 -13528934.68549 -10542014.27346         0.00041  21855605.13646  21855602.68549
  -4538667.38648  -3536615.67044         0.00041  23593928.20244  23593924.29148
 -13735768.61348 -10703172.73346         0.00041  22134766.51746  22134763.35048
  -1097194.76249   -854956.88846         0.00041  20715326.81046  20715324.67949
   2267568.79749   1766934.75946         0.00041  21239385.44946  21239382.38349
   1112369.34949    866782.15846         0.00041  21001438.93046  21001438.57049
  -8100985.62049  -6312450.19546         0.00041  21245892.40446  21245890.37649
   -256708.50548   -200032.93944         0.00041  24318465.75644  24318462.20248
 02 07 01 19 03 00.0000000  0  8 03 09 14 15 17 18 21 31
 -13555887.91449 -10563016.78646         0.00041  21850475.95146  21850473.93949
  -4581132.98648  -3569705.72244         0.00041  23585847.68444  23585844.25648
 -13829208.49048 -10775982.94146         0.00041  22116985.56146  22116982.58248
  -1065687.94249   -830406.14246         0.00041  20721322.62446  20721320.59149
   2311194.80348   1800929.00046         0.00041  21247686.96146  21247684.07848
   1152983.29849    898429.37746         0.00041  21009167.59746  21009167.16449
  -8113255.89249  -6322011.43946         0.00041  21243557.61546  21243555.53249
   -341564.26648   -266154.20344         0.00041  24302319.10744  24302313.95348
 02 07 01 19 03 30.0000000  0  8 03 09 14 15 17 18 21 31
 -13582270.49349 -10583574.64246         0.00041  21845455.60046  21845453.39249
  -4623149.59448  -3602445.91044         0.00041  23577852.76444  23577847.89348
 -13922305.05248 -10848525.62046         0.00041  22099269.53646  22099266.43848
  -1033805.94049   -805563.04846         0.00041  20727389.86046  20727387.39049
   2355181.01548   1835203.92546         0.00041  21256057.10046  21256054.60148
   1193808.06849    930240.87346         0.00041  21016936.49146  21016935.91149
  -8125330.46149  -6331420.18746         0.00041  21241259.58946  21241257.59949
   -426061.17448   -331995.83344         0.00041  24286236.31544  24286234.12948
 02 07 01 19 04 00.0000000  0  8 03 09 14 15 17 18 21 31
 -13608090.98148 -10603694.50746         0.00041  21840541.41846  21840539.18148
  -4664724.19048  -3634841.66744         0.00041  23569940.81344  23569935.67648
 -14015065.40448 -10920806.31246         0.00041  22081617.17846  22081614.93248
  -1001557.80149   -780434.64346         0.00041  20733526.43446  20733524.32049
   2399518.13248   1869752.29046         0.00041  21264494.63246  21264491.60748
   1234832.97949    962208.32146         0.00041  21024743.03146  21024742.79049
  -8137219.62149  -6340684.46246         0.00041  21238997.12446  21238995.25449
   -510206.19548   -397563.29544         0.00041  24270225.00944  24270222.71648
 02 07 01 19 04 30.0000000  0  8 03 09 14 15 17 18 21 31
 -13633419.14049 -10623430.74946         0.00041  21835722.11146  21835719.83849
  -4705924.51348  -3666945.77744         0.00041  23562100.12844  23562096.41548
 -14107557.65148 -10992878.09646         0.00041  22064016.93846  22064014.64948
   -969013.49149   -755075.46046         0.00041  20739719.60046  20739716.99949
   2444136.37848   1904519.71246         0.00041  21272985.13446  21272982.08748
   1275986.29749    994275.83346         0.00041  21032574.29546  21032573.93249
  -8148994.72349  -6349859.85846         0.00041  21236756.61446  21236754.57749
   -594067.20648   -462909.41744         0.00041  24254268.20244  24254265.66248
 02 07 01 19 05 00.0000000  0  8 03 09 14 15 17 18 21 31
 -13658272.78348 -10642797.22046         0.00041  21830992.51846  21830990.31248
  -4746766.69848  -3698770.80744         0.00041  23554328.26344  23554325.03948
 -14199798.02548 -11064753.61546         0.00041  22046464.06946  22046461.75048
   -936190.93249   -729499.46746         0.00041  20745965.48446  20745962.88749
   2489017.36248   1939491.85946         0.00041  21281525.60446  21281522.49248
   1317248.42649   1026428.12246         0.00041  21040426.12746  21040425.51449
  -8160674.86849  -6358961.26446         0.00041  21234533.61946  21234531.80449
   -677660.38148   -528046.85344         0.00041  24238361.18944  24238358.01648
 02 07 01 19 05 30.0000000  0  8 03 09 14 15 17 18 21 31
 -13682519.39548 -10661690.68946         0.00041  21826379.44146  21826376.29348
  -4787116.49648  -3730212.16744         0.00041  23546649.76444  23546645.97148
 -14291652.59448 -11136328.51546         0.00041  22028983.92246  22028981.86348
   -902957.89549   -703603.62146         0.00041  20752289.77146  20752286.90749
   2534293.40048   1974771.84146         0.00041  21290140.98646  21290138.25348
   1358750.05549   1058767.03746         0.00041  21048323.26746  21048323.23149
  -8172128.94649  -6367886.51446         0.00041  21232354.41246  21232352.36649
   -760851.41048   -592870.97044         0.00041  24222530.01644  24222526.30648
 02 07 01 19 06 00.0000000  0  8 03 09 14 15 17 18 21 31
 -13706163.00948 -10680114.28046         0.00041  21821879.82046  21821876.76948
  -4826976.18548  -3761271.63445         0.00041  23539064.84045  23539060.65848
 -14383123.22048 -11207604.24846         0.00041  22011577.97146  22011575.29248
   -869318.50049   -677391.13946         0.00041  20758690.69946  20758688.20549
   2579960.15348   2010356.27346         0.00041  21298831.59946  21298828.39848
   1400485.39649   1091288.06146         0.00041  21056265.58446  21056265.23049
  -8183361.76449  -6376639.35846         0.00041  21230217.02046  21230214.75749
   -843642.43248   -657383.34844         0.00041  24206775.95144  24206770.10448
 02 07 01 19 06 30.0000000  0  8 03 09 14 15 17 18 21 31
 -13729284.74248 -10698131.20846         0.00041  21817479.91046  21817476.72848
  -4866424.33148  -3792010.42745         0.00041  23531557.94045  23531555.17548
 -14474289.60348 -11278642.90946         0.00041  21994229.66346  21994227.25948
   -835353.98749   -650925.30746         0.00041  20765154.13646  20765151.70949
   2625936.39248   2046181.86946         0.00041  21307580.49546  21307577.65848
   1442371.67249   1123926.69546         0.00041  21064236.58346  21064236.15749
  -8194456.10049  -6385284.29746         0.00041  21228105.46746  21228103.56649
   -926112.53148   -721645.68644         0.00041  24191078.54144  24191076.78048
 02 07 01 19 07 00.0000000  0  8 03 09 14 15 17 18 21 31
 -13751839.59648 -10715706.41946         0.00041  21813187.78246  21813184.92148
  -4905414.51948  -3822392.39244         0.00041  23524137.54944  23524135.03048
 -14565105.53948 -11349408.49546         0.00041  21976947.91946  21976945.57548
   -801020.06149   -624171.62646         0.00041  20771688.16146  20771685.31749
   2672266.38248   2082283.10446         0.00041  21316396.64046  21316393.98148
   1484451.62049   1156716.23546         0.00041  21072243.95046  21072243.55949
  -8205368.73249  -6393787.64546         0.00041  21226029.22946  21226027.10549
  -1008215.40248   -785621.84241         0.00041         0.00041  24175452.82948
 02 07 01 19 07 30.0000000  0  8 03 09 14 15 17 18 21 31
 -13773833.54548 -10732844.56746         0.00041  21809002.54346  21808999.58448
  -4943951.39148  -3852421.04844         0.00041  23516806.85244  23516801.74848
 -14655575.36748 -11419904.39146         0.00041  21959732.10846  21959729.93048
   -766323.05549   -597135.03146         0.00041  20778290.72846  20778288.03949
   2718943.73848   2118655.01846         0.00041  21325278.99046  21325276.26148
   1526717.40949   1189650.59346         0.00041  21080287.07846  21080286.32549
  -8216106.77549  -6402154.95446         0.00041  21223985.72546  21223983.47349
  -1089955.35148   -849315.22241         0.00041         0.00041  24159899.42048
 02 07 01 19 08 00.0000000  0  8 03 09 14 15 17 18 21 31
 -13795269.21348 -10749547.68346         0.00041  21804922.78346  21804920.73048
  -4982035.42648  -3882096.90044         0.00041  23509558.59144  23509554.37648
 -14745699.93748 -11490131.25146         0.00041  21942581.33846  21942579.56848
   -731265.37149   -569817.38046         0.00041  20784961.71446  20784959.41849
   2765965.89048   2155295.59546         0.00041  21334226.86246  21334224.29448
   1569164.87349   1222726.51246         0.00041  21088364.63246  21088364.00749
  -8226674.30649  -6410389.39546         0.00041  21221974.79846  21221972.60049
  -1171332.94548   -912726.23144         0.00041  24144416.04644  24144413.39848
 02 07 01 19 08 30.0000000  0  8 03 09 14 15 17 18 21 31
 -13816131.82849 -10765804.28446         0.00041  21800953.03846  21800951.14849
  -5019649.93848  -3911406.88644         0.00041  23502399.78144  23502397.16148
 -14835462.80548 -11560076.26146         0.00041  21925500.27946  21925498.08248
   -695832.71749   -542207.54546         0.00041  20791704.56046  20791702.27849
   2813347.22048   2192216.04746         0.00041  21343243.68646  21343240.57848
   1611807.27749   1255954.34146         0.00041  21096479.07546  21096478.31049
  -8237058.04449  -6418480.61646         0.00041  21219998.83946  21219996.40149
  -1252331.41548   -975841.79041         0.00041         0.00041  24128999.41448
 02 07 01 19 09 00.0000000  0  8 03 09 14 15 17 18 21 31
 -13836425.03649 -10781617.18846         0.00041  21797091.60146  21797089.64549
  -5056796.76148  -3940352.42244         0.00041  23495331.83344  23495327.53048
 -14924866.10348 -11629741.08846         0.00041  21908486.75346  21908485.04548
   -660028.82649   -514308.44546         0.00041  20798517.60346  20798515.28249
   2861083.88748   2229413.40546         0.00041  21352327.87946  21352324.36248
   1654639.21449   1289329.86046         0.00041  21104629.68446  21104628.87049
  -8247263.03649  -6426432.55546         0.00041  21218056.75146  21218054.18249
  -1332952.70048  -1038663.48944         0.00041  24113666.88644  24113657.20648
 02 07 01 19 09 30.0000000  0  8 03 09 14 15 17 18 21 31
 -13856149.48249 -10796986.90746         0.00041  21793337.83346  21793336.14449
  -5093474.51648  -3968932.44945         0.00041  23488353.13945  23488347.88848
 -15013908.45248 -11699124.65846         0.00041  21891542.65946  21891540.32148
   -623854.30749   -486120.53946         0.00041  20805401.59046  20805399.34049
   2909174.89448   2266886.87946         0.00041  21361479.20246  21361476.07848
   1697658.16749   1322851.10246         0.00041  21112815.97346  21112815.33349
  -8257291.12549  -6434246.64746         0.00041  21216148.52846  21216146.48949
  -1413195.52748  -1101190.25344         0.00041  24098390.08644  24098386.27748
 02 07 01 19 10 00.0000000  0  8 03 09 14 15 17 18 21 31
 -13875332.83548 -10811934.99046         0.00041  21789687.23246  21789684.87448
  -5129709.34348  -3997167.35145         0.00041  23481457.00745  23481453.81548
 -15102616.17348 -11768247.48346         0.00041  21874662.50946  21874660.28448
   -587337.23649   -457665.71446         0.00041  20812350.17446  20812347.94649
   2957592.20948   2304614.60646         0.00041  21370692.59346  21370689.30248
   1740834.67749   1356495.11246         0.00041  21121032.60546  21121031.72449
  -8267171.00749  -6441945.24746         0.00041  21214268.32146  21214266.36249
  -1493085.78348  -1163442.29544         0.00041  24083189.52844  24083184.59648
 02 07 01 19 10 30.0000000  0  8 03 09 14 15 17 18 21 31
 -13893969.95748 -10826457.43846         0.00041  21786140.67546  21786138.58348
  -5165494.01548  -4025051.49345         0.00041  23474647.21245  23474643.55148
 -15190982.34648 -11837104.17746         0.00041  21857846.99146  21857844.56348
   -550472.62449   -428940.07846         0.00041  20819365.34346  20819362.89049
   3006340.91248   2342600.54146         0.00041  21379969.29046  21379966.08348
   1784172.66749   1390264.95146         0.00041  21129279.42846  21129278.96649
  -8276898.56249  -6449525.15546         0.00041  21212417.21746  21212415.23049
  -1572616.27948  -1225414.02544         0.00041  24068056.85944  24068052.04548
 02 07 01 19 11 00.0000000  0  8 03 09 14 15 17 18 21 31
 -13912033.82448 -10840533.18746         0.00041  21782703.44746  21782701.07448
  -5200799.32448  -4052562.08645         0.00041  23467929.09045  23467924.54948
 -15278978.14648 -11905672.26946         0.00041  21841101.84346  21841099.64248
   -513233.35449   -399922.50046         0.00041  20826451.45746  20826449.21349
   3055448.08948   2380865.82746         0.00041  21389314.35046  21389311.32948
   1827697.52049   1424180.39946         0.00041  21137562.06746  21137561.52149
  -8286447.83649  -6456966.14346         0.00041  21210600.11746  21210598.27349
  -1651758.02948  -1287082.85044         0.00041  24052995.34344  24052992.30048
 02 07 01 19 11 30.0000000  0  8 03 09 14 15 17 18 21 31
 -13929523.22948 -10854161.30046         0.00041  21779376.00146  21779373.13048
  -5235622.45148  -4079696.95545         0.00041  23461303.35145  23461298.33148
 -15366600.32048 -11973949.22046         0.00041  21824427.35246  21824425.34048
   -475618.31249   -370612.11446         0.00041  20833609.48946  20833607.46249
   3104914.47648   2419411.00346         0.00041  21398727.66046  21398724.67448
   1871408.95349   1458241.23246         0.00041  21145879.51446  21145879.14849
  -8295818.80049  -6464268.18946         0.00041  21208817.08646  21208814.91149
  -1730507.87148  -1348446.26644         0.00041  24038009.18844  24038007.00148
 02 07 01 19 12 00.0000000  0  8 03 09 14 15 17 18 21 31
 -13946467.43248 -10867364.58046         0.00041  21776151.83146  21776148.88048
  -5269990.89448  -4106477.54645         0.00041  23454761.99745  23454757.81148
 -15453876.73248 -12041956.74446         0.00041  21807819.55046  21807817.00848
   -437657.06349   -341031.95846         0.00041  20840833.62546  20840831.32249
   3154710.61548   2458213.10846         0.00041  21408203.60046  21408200.40048
   1915276.16449   1492423.45246         0.00041  21154227.21046  21154226.72049
  -8305042.81349  -6471455.73146         0.00041  21207061.56046  21207059.61049
  -1808893.39148  -1409525.74944         0.00041  24023097.75744  24023089.31848
 02 07 01 19 12 30.0000000  0  8 03 09 14 15 17 18 21 31
 -13962865.18348 -10880142.05946         0.00041  21773031.45246  21773028.15248
  -5303901.59848  -4132901.43244         0.00041  23448308.60444  23448304.59148
 -15540804.33749 -12109692.47946         0.00041  21791277.49946  21791275.69949
   -399348.30549   -311181.01546         0.00041  20848123.72546  20848121.36249
   3204837.65548   2497273.06646         0.00041  21417742.58846  21417739.43348
   1959299.29849   1526727.17246         0.00041  21162604.96246  21162604.06749
  -8314119.17149  -6478528.21646         0.00041  21205334.46946  21205332.50549
  -1886911.12848  -1470318.65244         0.00041  24008247.02144  24008243.80948
 02 07 01 19 13 00.0000000  0  8 03 09 14 15 17 18 21 31
 -13978688.04648 -10892471.56646         0.00041  21770020.06646  21770016.99348
  -5337324.04648  -4158944.89244         0.00041  23441948.71244  23441944.47548
 -15627352.94049 -12177132.87146         0.00041  21774807.73446  21774805.86149
   -360663.41649   -281036.97946         0.00041  20855485.05646  20855482.63549
   3255323.85048   2536612.89446         0.00041  21427349.68546  21427346.66148
   2003504.89749   1561173.06346         0.00041  21171016.85646  21171016.24249
  -8323020.09749  -6485464.00346         0.00041  21203640.78546  21203638.41849
  -1964530.65548  -1530801.36144         0.00041  23993476.13344  23993472.95948
 02 07 01 19 13 30.0000000  0  8 03 09 14 15 17 18 21 31
 -13993948.09048 -10904362.51646         0.00041  21767116.19646  21767113.18448
  -5370268.45348  -4184615.82044         0.00041  23435678.47744  23435674.49048
 -15713533.08849 -12244286.15746         0.00041  21758408.45246  21758406.51349
   -321614.75549   -250609.48846         0.00041  20862915.82246  20862913.46349
   3306157.01248   2576223.07346         0.00041  21437023.02246  21437019.92248
   2047879.24449   1595750.45146         0.00041  21179461.06546  21179460.56249
  -8331759.20549  -6492273.69846         0.00041  21201977.64546  21201975.53149
  -2041762.28748  -1590981.73844         0.00041  23978780.24144  23978776.06448
 02 07 01 19 14 00.0000000  0  8 03 09 14 15 17 18 21 31
 -14008624.55749 -10915798.73646         0.00041  21764323.74646  21764320.70849
  -5402712.11148  -4209896.57844         0.00041  23429506.42244  23429502.02948
 -15799322.18549 -12311134.73746         0.00041  21742083.28046  21742081.48249
   -282181.66549   -219882.44446         0.00041  20870420.02346  20870417.22049
   3357357.72248   2616119.67646         0.00041  21446766.45946  21446763.27748
   2092441.82949   1630474.51546         0.00041  21187941.01246  21187940.52749
  -8340316.02349  -6498941.35046         0.00041  21200349.43546  21200347.07249
  -2118583.13348  -1650842.06744         0.00041  23964159.72544  23964156.51648
 02 07 01 19 14 30.0000000  0  8 03 09 14 15 17 18 21 31
 -14022734.36649 -10926793.40146         0.00041  21761637.93046  21761635.42849
  -5434669.99048  -4234798.77244         0.00041  23423424.34344  23423420.31348
 -15884735.05149 -12377690.14846         0.00041  21725830.04346  21725827.41049
   -242380.98349   -188868.95946         0.00041  20877993.75546  20877990.93249
   3408908.91548   2656289.36846         0.00041  21456576.20646  21456573.03348
   2137174.43849   1665331.07146         0.00041  21196453.49246  21196452.85249
  -8348709.39949  -6505481.64646         0.00041  21198752.14646  21198750.00949
  -2195008.10048  -1710393.85344         0.00041  23949617.87544  23949612.15248
 02 07 01 19 15 00.0000000  0  8 03 09 14 15 17 18 21 31
 -14036319.11849 -10937378.93246         0.00041  21759053.13546  21759050.55249
  -5466181.71548  -4259353.29944         0.00041  23417426.80644  23417423.31948
 -15969811.36649 -12443983.31846         0.00041  21709640.26746  21709637.92549
   -202254.25349   -157601.40846         0.00041  20885629.35446  20885627.06649
   3460768.99048   2696699.74846         0.00041  21466445.21146  21466441.65448
   2182034.38449   1700286.84346         0.00041  21204989.97446  21204989.30649
  -8356981.70949  -6511927.60646         0.00041  21197178.01546  21197176.08349
  -2271076.55848  -1769667.92444         0.00041  23935143.62444  23935138.09448
 02 07 01 19 15 30.0000000  0  8 03 09 14 15 17 18 21 31
 -14049347.70249 -10947531.09146         0.00041  21756573.65946  21756571.14649
  -5497214.32248  -4283534.48944         0.00041  23411521.96444  23411518.79148
 -16054518.24549 -12509988.61346         0.00041  21693521.07346  21693518.84749
   -161770.40849   -126055.59146         0.00041  20893333.86846  20893330.90249
   3512969.01748   2737375.04346         0.00041  21476378.26046  21476375.08148
   2227051.37349   1735364.99046         0.00041  21213556.55146  21213556.08249
  -8365102.54349  -6518255.52746         0.00041  21195632.69846  21195630.59149
  -2346755.53648  -1828638.48444         0.00041  23920740.81344  23920737.25948
 02 07 01 19 16 00.0000000  0  8 03 09 14 15 17 18 21 31
 -14061802.67849 -10957236.28146         0.00041  21754203.99346  21754201.56249
  -5527748.57948  -4307327.38045         0.00041  23405711.90345  23405708.40948
 -16138836.66549 -12575691.21146         0.00041  21677475.41246  21677473.61249
   -120911.90149    -94217.83246         0.00041  20901108.90346  20901105.98649
   3565526.24848   2778328.67646         0.00041  21486379.61546  21486376.28848
   2272241.51249   1770578.05746         0.00041  21222156.17546  21222155.44449
  -8373055.33349  -6524452.51046         0.00041  21194119.36546  21194117.27349
  -2422025.52548  -1887290.34444         0.00041  23906418.47044  23906414.11248
 02 07 01 19 16 30.0000000  0  8 03 09 14 15 17 18 21 31
 -14073700.70649 -10966507.49246         0.00041  21751939.56546  21751937.42349
  -5557799.45448  -4330743.58145         0.00041  23399996.47545  23399989.43148
 -16222781.36649 -12641102.60646         0.00041  21661501.25646  21661499.38749
    -79695.52449    -62101.20946         0.00041  20908952.09046  20908949.31349
   3618423.81448   2819547.50846         0.00041  21496446.01646  21496442.59148
   2317586.75649   1805911.98946         0.00041  21230784.83746  21230784.30349
  -8380857.41949  -6530532.05246         0.00041  21192634.45546  21192632.76949
  -2496901.14448  -1945634.91644         0.00041  23892170.94644  23892164.95048
 02 07 01 19 17 00.0000000  0  8 03 09 14 15 17 18 21 31
 -14085030.07449 -10975335.58646         0.00041  21749783.66246  21749781.31349
  -5587352.89248  -4353772.19045         0.00041  23394369.54145  23394365.31148
 -16306338.60749 -12706212.08046         0.00041  21645601.05346  21645598.98849
    -38109.29349    -29696.38546         0.00041  20916865.52746  20916862.79849
   3671673.66248   2861040.83246         0.00041  21506578.75746  21506575.57448
   2363097.86449   1841375.15646         0.00041  21239445.68646  21239444.81549
  -8388497.77249  -6536485.57246         0.00041  21191180.87846  21191178.87249
  -2571368.38448  -2003661.26144         0.00041  23878001.09044  23877995.19848
 02 07 01 19 17 30.0000000  0  8 03 09 14 15 17 18 21 31
 -14095801.66549 -10983729.05246         0.00041  21747733.62446  21747731.59249
  -5616417.64948  -4376420.01845         0.00041  23388839.90745  23388834.76348
 -16389517.40649 -12771026.66446         0.00041  21629771.83446  21629770.52249
      3835.75949      2988.03846         0.00041  20924847.38746  20924844.45049
   3725264.76248   2902800.06746         0.00041  21516776.90946  21516773.69048
   2408762.77849   1876958.17346         0.00041  21248134.91546  21248134.39149
  -8395988.57849  -6542322.56546         0.00041  21189754.83446  21189753.05549
  -2645436.11248  -2061376.28444         0.00041  23863904.03144  23863900.10648
 02 07 01 19 18 00.0000000  0  8 03 09 14 15 17 18 21 31
 -14106015.16149 -10991687.64046         0.00041  21745790.08846  21745787.93549
  -5644991.88148  -4398685.60345         0.00041  23383401.18945  23383397.07748
 -16472315.78349 -12835544.81646         0.00041  21614016.43746  21614014.57349
     46139.93949     35952.30546         0.00041  20932897.45846  20932895.02549
   3779197.43548   2944825.46946         0.00041  21527040.29746  21527037.00248
   2454580.48949   1912660.26046         0.00041  21256853.88546  21256853.32349
  -8403329.50949  -6548042.76846         0.00041  21188358.07246  21188356.21249
  -2719101.91448  -2118778.10844         0.00041  23849886.12044  23849881.14348
 02 07 01 19 18 30.0000000  0  8 03 09 14 15 17 18 21 31
 -14115672.38049 -10999212.76446         0.00041  21743953.12346  21743950.81449
  -5673075.38148  -4420568.81245         0.00041  23378056.60645  23378052.79148
 -16554733.63349 -12899766.45946         0.00041  21598332.54846  21598330.40749
     88801.67549     69195.18946         0.00041  20941015.58846  20941013.51949
   3833469.75848   2987115.51146         0.00041  21537367.65546  21537364.82848
   2500548.11449   1948479.16446         0.00041  21265601.09446  21265600.48449
  -8410523.96849  -6553648.84146         0.00041  21186989.44046  21186987.22149
  -2792365.53848  -2175866.54244         0.00041  23835945.27744  23835939.33048
 02 07 01 19 19 00.0000000  0  8 03 09 14 15 17 18 21 31
 -14124731.12649 -11006271.54346         0.00041  21742229.30246  21742226.56249
  -5700624.08048  -4442035.29345         0.00041  23372814.49645  23372810.62048
 -16636726.67149 -12963657.07446         0.00041  21582729.62146  21582727.76149
    131863.19849    102749.58546         0.00041  20949209.97646  20949207.72649
   3888123.96048   3029703.13146         0.00041  21547767.82946  21547764.99948
   2546706.76949   1984446.91746         0.00041  21274384.92346  21274384.38249
  -8417530.82749  -6559108.73546         0.00041  21185655.73546  21185653.54349
  -2865182.65448  -2232607.06844         0.00041  23822088.54744  23822082.55448
 02 07 01 19 19 30.0000000  0  8 03 09 14 15 17 18 21 31
 -14133220.19149 -11012886.40846         0.00041  21740613.37946  21740610.75049
  -5727664.64948  -4463105.84844         0.00041  23367668.39644  23367664.83248
 -16718321.69349 -13027237.55346         0.00041  21567202.03046  21567200.49349
    175296.08249    136593.35046         0.00041  20957475.10846  20957472.48249
   3943131.44648   3072566.02946         0.00041  21558235.81946  21558232.76148
   2593026.62449   2020540.28846         0.00041  21283199.44146  21283198.95449
  -8424379.24549  -6564445.16346         0.00041  21184352.59846  21184350.58249
  -2937579.68348  -2289020.22445         0.00041  23808313.11745  23808306.90748
 02 07 01 19 20 00.0000000  0  8 03 09 14 15 17 18 21 31
 -14141153.28549 -11019068.06146         0.00041  21739104.08546  21739101.03149
  -5754208.80148  -4483789.54645         0.00041  23362617.74145  23362613.90248
 -16799530.57249 -13090517.13046         0.00041  21551748.84746  21551747.32649
    219086.75349    170715.90346         0.00041  20965808.23246  20965805.89749
   3998478.43848   3115693.47346         0.00041  21568768.36746  21568765.06248
   2639493.14649   2056747.93846         0.00041  21292041.69746  21292041.10949
  -8431083.71649  -6569669.42546         0.00041  21183076.76246  21183074.61149
  -3009568.22348  -2345115.10544         0.00041  23794612.86344  23794608.07548
 02 07 01 19 20 30.0000000  0  8 03 09 14 15 17 18 21 31
 -14148522.17149 -11024810.06246         0.00041  21737701.95446  21737698.99649
  -5780246.08248  -4504078.30145         0.00041  23357661.74045  23357659.44648
 -16880343.00949 -13153487.79346         0.00041  21536370.79146  21536369.33849
    263243.73349    205123.90646         0.00041  20974211.10046  20974208.96649
   4054173.37148   3159092.05046         0.00041  21579366.69546  21579363.49848
   2686113.64649   2093075.57646         0.00041  21300913.45646  21300912.88049
  -8437636.04949  -6574775.13946         0.00041  21181829.79846  21181827.63949
  -3081137.72748  -2400883.47044         0.00041  23780992.07144  23780987.69448
 02 07 01 19 21 00.0000000  0  8 03 09 14 15 17 18 21 31
 -14155330.91848 -11030115.60046         0.00041  21736406.20546  21736403.21048
  -5805779.03548  -4523974.05545         0.00041  23352804.43445  23352800.15948
 -16960761.35149 -13216151.37746         0.00041  21521067.29246  21521066.01949
    307762.90249    239814.12446         0.00041  20982683.29746  20982680.55649
   4110212.02248   3202758.47546         0.00041  21590030.79846  21590026.93748
   2732882.82249   2129519.06046         0.00041  21309813.14146  21309812.80449
  -8444041.18749  -6579766.15846         0.00041  21180610.79946  21180608.97949
  -3152290.25548  -2456326.89344         0.00041  23767453.92544  23767447.38448
 02 07 01 19 21 30.0000000  0  8 03 09 14 15 17 18 21 31
 -14161562.93049 -11034971.69146         0.00041  21735220.64846  21735217.77949
  -5830788.95348  -4543462.26945         0.00041  23348044.38645  23348041.28548
 -17040766.89549 -13278493.29946         0.00041  21505843.25546  21505841.48849
    352660.91349    274799.53246         0.00041  20991227.21746  20991224.52049
   4166611.06548   3246705.71546         0.00041  21600763.42046  21600758.86348
   2779816.26249   2166090.55446         0.00041  21318744.40746  21318743.59349
  -8450283.03349  -6584629.92846         0.00041  21179423.16146  21179421.17549
  -3223007.01048  -2511430.78444         0.00041  23753996.37544  23753990.74748
 02 07 01 19 22 00.0000000  0  8 03 09 14 15 17 18 21 31
 -14167211.80449 -11039373.44246         0.00041  21734145.86546  21734142.89749
  -5855267.51248  -4562536.42145         0.00041  23343387.79845  23343383.40548
 -17120351.10949 -13340506.91946         0.00041  21490698.90246  21490696.95049
    397944.65349    310085.50646         0.00041  20999843.96146  20999841.52149
   4223377.08248   3290938.92146         0.00041  21611566.08746  21611561.12748
   2826919.53049   2202794.37546         0.00041  21327707.64146  21327707.07449
  -8456355.95949  -6589362.07346         0.00041  21178267.80746  21178265.61249
  -3293279.28348  -2566188.31044         0.00041  23740622.11544  23740619.17848
 02 07 01 19 22 30.0000000  0  8 03 09 14 15 17 18 21 31
 -14172294.13049 -11043333.71046         0.00041  21733178.54146  21733175.84449
  -5879229.29348  -4581207.91645         0.00041  23338826.47045  23338823.22948
 -17199528.65649 -13402203.65546         0.00041  21475631.63846  21475629.80349
    443597.41849    345659.04346         0.00041  21008531.59146  21008529.09749
   4280493.54648   3335445.19646         0.00041  21622434.74846  21622430.32048
   2874175.45949   2239617.15346         0.00041  21336700.90846  21336699.91249
  -8462277.12249  -6593975.96246         0.00041  21177140.87246  21177138.97149
  -3363121.44848  -2620610.67644         0.00041  23727333.05844  23727328.55648
 02 07 01 19 23 00.0000000  0  8 03 09 14 15 17 18 21 31
 -14176825.92149 -11046864.99146         0.00041  21732316.42246  21732313.50249
  -5902688.46548  -4599487.76845         0.00041  23334362.18045  23334358.99748
 -17278313.62849 -13463594.49146         0.00041  21460639.21946  21460637.22049
    489603.44249    381507.86046         0.00041  21017286.41946  21017283.48649
   4337944.45548   3380212.06046         0.00041  21633366.50746  21633363.32448
   2921566.81549   2276545.46546         0.00041  21345718.74046  21345718.16249
  -8468063.07749  -6598484.49446         0.00041  21176039.85546  21176038.01949
  -3432547.33248  -2674708.70544         0.00041  23714122.21844  23714116.98648
 02 07 01 19 23 30.0000000  0  8 03 09 14 15 17 18 21 31
 -14180808.89049 -11049968.61646         0.00041  21731558.26046  21731555.73249
  -5925644.65348  -4617375.67545         0.00041  23329993.55645  23329990.17448
 -17356705.64449 -13524679.12646         0.00041  21445721.97246  21445719.78749
    535961.47549    417630.96346         0.00041  21026108.48246  21026105.54949
   4395728.26348   3425238.33646         0.00041  21644362.57146  21644359.42048
   2969091.40149   2313577.58746         0.00041  21354763.04346  21354762.01649
  -8473715.85449  -6602889.25146         0.00041  21174964.10946  21174962.01849
  -3501556.32248  -2728481.84244         0.00041  23700989.72044  23700984.99148
 02 07 01 19 24 00.0000000  0  8 03 09 14 15 17 18 21 31
 -14184234.63249 -11052638.04546         0.00041  21730906.29246  21730903.32349
  -5948087.42448  -4634863.51144         0.00041  23325724.57944  23325718.88648
 -17434694.44349 -13585449.55546         0.00041  21430880.99946  21430879.21849
    582680.01949    454034.96946         0.00041  21034998.25146  21034995.68249
   4453853.53148   3470530.67946         0.00041  21655422.64146  21655420.49948
   3016756.70349   2350719.35646         0.00041  21363833.04746  21363832.43449
  -8479227.37349  -6607183.94046         0.00041  21173915.43646  21173913.52249
  -3570137.75248  -2781921.86844         0.00041  23687936.97044  23687933.61148
 02 07 01 19 24 30.0000000  0  8 03 09 14 15 17 18 21 31
 -14187107.30149 -11054876.50146         0.00041  21730359.61046  21730356.98049
  -5970018.80048  -4651952.91845         0.00041  23321550.68545  23321545.89748
 -17512282.00449 -13645907.33846         0.00041  21416116.39946  21416115.00149
    629755.39049    490717.03446         0.00041  21043956.48746  21043953.74449
   4512316.42048   3516086.08446         0.00041  21666547.74346  21666545.27148
   3064557.85649   2387966.98546         0.00041  21372929.31346  21372928.84949
  -8484602.36949  -6611372.24546         0.00041  21172892.33246  21172890.68149
  -3638293.40548  -2835030.13444         0.00041  23674968.40444  23674962.72848
 02 07 01 19 25 00.0000000  0  8 03 09 14 15 17 18 21 31
 -14189414.04049 -11056673.98446         0.00041  21729920.08246  21729917.82349
  -5991424.45348  -4668632.63945         0.00041  23317476.86745  23317472.69848
 -17589453.56449 -13706040.96746         0.00041  21401431.08046  21401429.60249
    677200.39149    527687.11946         0.00041  21052984.91846  21052982.35049
   4571129.53848   3561914.39746         0.00041  21677740.43946  21677737.05248
   3112506.92649   2425329.87346         0.00041  21382053.41246  21382052.63349
  -8489828.61849  -6615444.64446         0.00041  21171897.82146  21171895.65549
  -3706008.29048  -2887794.89744         0.00041  23662082.35944  23662079.00048
 02 07 01 19 25 30.0000000  0  8 03 09 14 15 17 18 21 31
 -14191112.21749 -11057997.26846         0.00041  21729596.95546  21729594.72149
  -6012259.32748  -4684867.58145         0.00041  23313512.98145  23313508.97748
 -17666164.42749 -13765815.61346         0.00041  21386833.50046  21386831.79649
    725058.12649    564978.82046         0.00041  21062091.44446  21062089.51249
   4630335.92348   3608049.16146         0.00041  21689006.70846  21689003.73248
   3160645.95049   2462840.78446         0.00041  21391214.09546  21391213.18249
  -8494863.53649  -6619367.95946         0.00041  21170939.89646  21170937.66849
  -3773237.30348  -2940181.10044         0.00041  23649286.21944  23649284.60548
 02 07 01 19 26 00.0000000  0  8 03 09 14 15 17 18 21 31
 -14192242.67449 -11058878.16546         0.00041  21729382.21146  21729379.52749
  -6032562.34148  -4700688.09745         0.00041  23309648.96745  23309645.18948
 -17742453.06949 -13825261.26246         0.00041  21372316.09946  21372314.13949
    773288.12249    602560.63246         0.00041  21071269.67346  21071267.34149
   4689895.07648   3654458.81346         0.00041  21700340.84146  21700337.21248
   3208933.37249   2500467.30046         0.00041  21400402.87646  21400401.93749
  -8499747.87149  -6623173.93946         0.00041  21170010.54446  21170008.27549
  -3840019.02948  -2992218.77244         0.00041  23636580.55044  23636576.48748
 02 07 01 19 26 30.0000000  0  8 03 09 14 15 17 18 21 31
 -14192852.58549 -11059353.44946         0.00041  21729265.84046  21729263.59149
  -6052378.83848  -4716129.49345         0.00041  23305878.44145  23305874.10648
 -17818364.86449 -13884413.25646         0.00041  21357870.94346  21357868.81249
    821843.51549    640395.94946         0.00041  21080509.65746  21080507.31449
   4749759.75348   3701106.52846         0.00041  21711732.61346  21711729.49648
   3257321.27049   2538172.13946         0.00041  21409611.02346  21409609.99149
  -8504529.76249  -6626900.09046         0.00041  21169100.15846  21169098.33449
  -3906398.43948  -3043942.89944         0.00041  23623950.89644  23623944.41448
 02 07 01 19 27 00.0000000  0  8 03 09 14 15 17 18 21 31
 -14192896.85749 -11059387.96946         0.00041  21729257.60946  21729255.13649
  -6071661.84348  -4731155.17045         0.00041  23302209.73245  23302204.64048
 -17893852.87549 -13943235.03746         0.00041  21343506.11246  21343504.25349
    870769.59149    678520.12546         0.00041  21089819.92146  21089817.58749
   4809975.37048   3748027.71846         0.00041  21723191.42646  21723188.33848
   3305854.16749   2575989.96146         0.00041  21418846.40446  21418845.81449
  -8509164.20849  -6630511.34846         0.00041  21168218.56946  21168216.63649
  -3972328.04748  -3095316.59844         0.00041  23611402.81444  23611400.53948
 02 07 01 19 27 30.0000000  0  8 03 09 14 15 17 18 21 31
 -14192383.72849 -11058988.15146         0.00041  21729355.05446  21729352.89249
  -6090417.26448  -4745769.74745         0.00041  23298640.84845  23298635.28348
 -17968922.96249 -14001731.15846         0.00041  21329220.92746  21329218.83549
    920058.61449    716927.11646         0.00041  21099199.53246  21099196.83649
   4870533.76948   3795216.02546         0.00041  21734715.70846  21734712.27848
   3354523.18449   2613913.84646         0.00041  21428108.12746  21428107.37549
  -8513659.56749  -6634014.22846         0.00041  21167363.30346  21167361.13249
  -4037813.68348  -3146344.31844         0.00041  23598940.41844  23598937.18548
 02 07 01 19 28 00.0000000  0  8 03 09 14 15 17 18 21 31
 -14191314.95349 -11058155.35846         0.00041  21729559.11546  21729556.08649
  -6108644.71148  -4759972.91044         0.00041  23295169.63744  23295166.69548
 -18043574.67949 -14059901.27846         0.00041  21315014.76746  21315013.25949
    969709.14049    755615.80146         0.00041  21108648.19646  21108645.15649
   4931433.73148   3842670.48146         0.00041  21746304.87446  21746301.77148
   3403326.51549   2651942.38346         0.00041  21437395.09846  21437394.01549
  -8518017.54549  -6637410.05746         0.00041  21166533.90546  21166532.02949
  -4102854.68248  -3197025.56044         0.00041  23586566.42544  23586561.54748
 02 07 01 19 28 30.0000000  0  8 03 09 14 15 17 18 21 31
 -14189658.43849 -11056864.58746         0.00041  21729874.43246  21729871.70949
  -6126310.49448  -4773738.40945         0.00041  23291808.77945  23291805.14648
 -18117773.47649 -14117718.48046         0.00041  21300895.15046  21300893.22549
   1019753.58649    794611.43446         0.00041  21118171.26546  21118168.37349
   4992707.49648   3890416.20446         0.00041  21757964.78946  21757961.53948
   3452295.86349   2690100.29246         0.00041  21446713.65446  21446712.69049
  -8522206.61249  -6640674.26546         0.00041  21165736.63846  21165734.81449
  -4167416.61148  -3247333.53444         0.00041  23574278.65444  23574275.58848
 02 07 01 19 29 00.0000000  0  8 03 09 14 15 17 18 21 31
 -14187415.20749 -11055116.63346         0.00041  21730301.90546  21730298.95649
  -6143413.62248  -4787065.49245         0.00041  23288553.04045  23288550.50748
 -18191518.64149 -14175182.19646         0.00041  21286861.53046  21286859.86349
   1070191.45149    833913.61446         0.00041  21127769.39346  21127766.32149
   5054354.30548   3938452.60446         0.00041  21769695.40346  21769692.79948
   3501429.46049   2728386.18346         0.00041  21456062.99946  21456062.50649
  -8526228.00849  -6643807.82546         0.00041  21164971.64146  21164969.52249
  -4231498.05748  -3297267.05244         0.00041  23562086.17744  23562082.57448
 02 07 01 19 29 30.0000000  0  8 03 09 14 15 17 18 21 31
 -14184615.02049 -11052934.69546         0.00041  21730834.40946  21730831.37549
  -6159981.89048  -4799975.80045         0.00041  23285400.96245  23285397.83348
 -18264837.95549 -14232314.08046         0.00041  21272908.89146  21272907.67749
   1120993.18849    873499.33346         0.00041  21137436.10346  21137433.36349
   5116344.54648   3986756.61746         0.00041  21781492.00246  21781488.79448
   3550696.97149   2766776.43146         0.00041  21465438.48946  21465437.99049
  -8530111.46549  -6646833.89646         0.00041  21164232.67046  21164230.73449
  -4295126.47848  -3346847.61044         0.00041  23549975.07044  23549972.75948
 02 07 01 19 30 00.0000000  0  8 03 09 14 15 17 18 21 31
 -14181288.94049 -11050342.96546         0.00041  21731467.36546  21731464.40149
  -6176044.27348  -4812491.92844         0.00041  23282344.86244  23282340.99548
 -18337760.16349 -14289136.53646         0.00041  21259032.48146  21259030.52449
   1172128.43549    913344.92846         0.00041  21147167.25946  21147164.12049
   5178647.56648   4035304.35146         0.00041  21793347.49346  21793344.33748
   3600067.00149   2805246.55746         0.00041  21474833.26046  21474832.78849
  -8533888.28749  -6649776.88046         0.00041  21163513.97346  21163511.68649
  -4358330.50748  -3396097.42644         0.00041  23537949.03644  23537944.54848
 02 07 01 19 30 30.0000000  0  8 03 09 14 15 17 18 21 31
 -14177428.74549 -11047335.04246         0.00041  21732201.45046  21732198.57849
  -6191590.46348  -4824605.81345         0.00041  23279387.20545  23279382.02348
 -18410274.72749 -14345641.33946         0.00041  21245233.64446  21245232.12249
   1223605.73649    953457.06546         0.00041  21156963.22546  21156960.04649
   5241271.87148   4084102.41746         0.00041  21805264.84346  21805261.75048
   3649547.59849   2843802.84446         0.00041  21484249.04446  21484248.54949
  -8537549.89349  -6652630.08546         0.00041  21162816.63646  21162814.86149
  -4421099.31948  -3445008.13444         0.00041  23526004.76644  23525999.93048
 02 07 01 19 31 00.0000000  0  8 03 09 14 15 17 18 21 31
 -14173004.24849 -11043887.40646         0.00041  21733043.57346  21733040.34949
  -6206588.33448  -4836292.48844         0.00041  23276532.14244  23276528.23348
 -18482349.53449 -14401803.47846         0.00041  21231518.00446  21231516.86749
   1275455.58349    993859.48846         0.00041  21166829.86646  21166827.01549
   5304247.86648   4133174.54446         0.00041  21817249.47446  21817245.70448
   3699168.45849   2882468.42246         0.00041  21493691.82046  21493691.13749
  -8541066.69249  -6655370.45546         0.00041  21162147.64346  21162145.65649
  -4483400.71448  -3493554.60744         0.00041  23514149.41244  23514145.59848
 02 07 01 19 31 30.0000000  0  8 03 09 14 15 17 18 21 31
 -14168002.07349 -11039989.62746         0.00041  21733995.31746  21733992.21949
  -6221022.23048  -4847539.64645         0.00041  23273786.40445  23273781.46048
 -18553968.87549 -14457610.71246         0.00041  21217889.14946  21217888.09349
   1327691.93849   1034563.09346         0.00041  21176770.11946  21176766.98449
   5367589.48948   4182531.56046         0.00041  21829302.14046  21829298.96248
   3748942.73249   2921253.54346         0.00041  21503163.71446  21503162.53549
  -8544424.84949  -6657987.20846         0.00041  21161508.69746  21161506.54949
  -4545218.46148  -3541724.21544         0.00041  23502384.43844  23502380.82048
 02 07 01 19 32 00.0000000  0  8 03 09 14 15 17 18 21 31
 -14162449.47348 -11035662.94746         0.00041  21735051.82146  21735048.99448
  -6234917.29748  -4858366.97045         0.00041  23271140.92145  23271136.50448
 -18625157.66349 -14513082.44946         0.00041  21204342.76346  21204341.46249
   1380288.06849   1075547.03846         0.00041  21186778.66246  21186775.49749
   5431269.97148   4232152.65646         0.00041  21841421.04946  21841416.89848
   3798842.96749   2960136.81246         0.00041  21512658.96546  21512658.49749
  -8547651.26649  -6660501.30946         0.00041  21160894.76546  21160892.52549
  -4606577.30648  -3589536.29144         0.00041  23490707.40744  23490703.63148
 02 07 01 19 32 30.0000000  0  8 03 09 14 15 17 18 21 31
 -14156323.14548 -11030889.21246         0.00041  21736217.32646  21736214.58948
  -6248248.73448  -4868755.07845         0.00041  23268605.45045  23268599.99748
 -18695890.56049 -14568198.94546         0.00041  21190882.64346  21190881.35149
   1433267.59849   1116829.74646         0.00041  21196860.64646  21196857.56049
   5495312.74848   4282056.04146         0.00041  21853608.60446  21853604.49748
   3848892.23849   2999136.21346         0.00041  21522183.49146  21522182.23449
  -8550723.17249  -6662895.01146         0.00041  21160310.09946  21160307.94349
  -4667451.70548  -3636970.78844         0.00041  23479125.17444  23479121.11348
 02 07 01 19 33 00.0000000  0  8 03 09 14 15 17 18 21 31
 -14149596.95149 -11025648.05146         0.00041  21737497.67046  21737495.42349
  -6260988.82048  -4878682.42545         0.00041  23266180.68745  23266175.95548
 -18766139.65749 -14622938.45946         0.00041  21177514.27546  21177513.06649
   1486657.13349   1158431.93046         0.00041  21207020.73346  21207017.59549
   5559743.80048   4332261.97046         0.00041  21865869.53246  21865865.47148
   3899116.13949   3038271.68946         0.00041  21531740.81946  21531739.79849
  -8553614.84149  -6665148.26746         0.00041  21159759.80646  21159757.61749
  -4727813.33548  -3684005.78544         0.00041  23467638.00344  23467634.85448
 02 07 01 19 33 30.0000000  0  8 03 09 14 15 17 18 21 31
 -14142313.31849 -11019972.51946         0.00041  21738883.73646  21738881.41349
  -6273177.35748  -4888179.98345         0.00041  23263862.17045  23263856.58648
 -18835944.89249 -14677332.10946         0.00041  21164231.00046  21164229.39849
   1540414.82349   1200320.99146         0.00041  21217250.04246  21217247.12049
   5624521.67148   4382738.15346         0.00041  21878196.40746  21878191.99648
   3949472.24949   3077510.19346         0.00041  21541323.37446  21541322.45049
  -8556367.89849  -6667293.51446         0.00041  21159236.18946  21159233.86749
  -4787701.88548  -3730672.14444         0.00041  23456241.82344  23456238.22748
 02 07 01 19 34 00.0000000  0  8 03 09 14 15 17 18 21 31
 -14134492.65849 -11013878.52646         0.00041  21740372.05046  21740369.42949
  -6284832.74548  -4897262.07945         0.00041  23261642.21145  23261638.98948
 -18905324.27649 -14731393.92146         0.00041  21151028.47646  21151026.93249
   1594520.65849   1242481.32146         0.00041  21227546.01546  21227543.08049
   5689626.06948   4433468.77746         0.00041  21890585.36746  21890580.73648
   3999940.15149   3116835.79646         0.00041  21550927.00546  21550926.13349
  -8559002.56049  -6669346.50646         0.00041  21158734.84646  21158732.47149
  -4847135.16748  -3776983.74645         0.00041  23444933.17845  23444929.24548
 02 07 01 19 34 30.0000000  0  8 03 09 14 15 17 18 21 31
 -14126127.68049 -11007360.38946         0.00041  21741963.91146  21741961.40049
  -6295945.84248  -4905921.62045         0.00041  23259528.36745  23259524.18248
 -18974268.46049 -14785116.62346         0.00041  21137908.66546  21137907.40249
   1648982.57849   1284919.14046         0.00041  21237910.08046  21237907.04849
   5755064.88248   4484459.97746         0.00041  21903038.05946  21903033.25848
   4050526.82249   3156253.95746         0.00041  21560553.20746  21560552.60949
  -8561511.53649  -6671301.56146         0.00041  21158257.28946  21158254.99049
  -4906103.63248  -3822933.15545         0.00041  23433712.68845  23433706.94448
 02 07 01 19 35 00.0000000  0  8 03 09 14 15 17 18 21 31
 -14117221.06249 -11000420.19546         0.00041  21743658.73946  21743656.26649
  -6306517.29348  -4914159.10345         0.00041  23257517.84645  23257512.27848
 -19042777.76749 -14838500.45646         0.00041  21124872.06146  21124870.33149
   1703798.59249   1327632.86746         0.00041  21248341.26446  21248338.21449
   5820835.92248   4535710.06546         0.00041  21915554.05546  21915549.00548
   4101229.79949   3195762.73946         0.00041  21570202.06646  21570200.88349
  -8563897.18149  -6673160.51646         0.00041  21157803.24646  21157801.11249
  -4964607.26948  -3868520.37645         0.00041  23422576.79745  23422574.56048
 02 07 01 19 35 30.0000000  0  8 03 09 14 15 17 18 21 31
 -14107744.65249 -10993036.00146         0.00041  21745462.64546  21745459.48249
  -6316517.08048  -4921951.11745         0.00041  23255612.99345  23255609.28048
 -19110821.93249 -14891521.84246         0.00041  21111923.34746  21111921.68849
   1758997.17049   1370644.70046         0.00041  21258845.04946  21258841.94049
   5886967.55048   4587241.11946         0.00041  21928138.55646  21928133.91248
   4152076.76849   3235383.72946         0.00041  21579877.49846  21579876.56449
  -8566131.04749  -6674901.19546         0.00041  21157378.02546  21157375.92349
  -5022615.64848  -3913721.66545         0.00041  23411541.29145  23411536.25948
 02 07 01 19 36 00.0000000  0  8 03 09 14 15 17 18 21 31
 -14097681.63348 -10985194.70746         0.00041  21747377.02446  21747373.78848
  -6325926.19848  -4929282.87745         0.00041  23253823.08745  23253819.50748
 -19178381.59549 -14944165.69446         0.00041  21099067.20546  21099065.39249
   1814595.82949   1413968.28346         0.00041  21269424.86946  21269421.78449
   5953477.15548   4639066.70146         0.00041  21940795.02246  21940789.86848
   4203084.79349   3275130.21246         0.00041  21589584.50346  21589583.47549
  -8568195.89249  -6676510.17046         0.00041  21156985.13946  21156983.19149
  -5080109.17948  -3958521.78145         0.00041  23400598.09645  23400594.48748
 02 07 01 19 36 30.0000000  0  8 03 09 14 15 17 18 21 31
 -14087069.19448 -10976925.29246         0.00041  21749396.68146  21749392.46848
  -6334779.60648  -4936181.60544         0.00041  23252137.84144  23252134.72048
 -19245491.96149 -14996459.44946         0.00041  21086296.50746  21086294.97949
   1870558.07549   1457575.17846         0.00041  21280074.75046  21280071.75149
   6020327.95348   4691158.12746         0.00041  21953515.95646  21953511.31748
   4254216.72249   3314973.23546         0.00041  21599314.26546  21599313.05349
  -8570128.86249  -6678016.38646         0.00041  21156617.46846  21156615.35149
  -5137122.64248  -4002947.80245         0.00041  23389746.68045  23389745.23948
 02 07 01 19 37 00.0000000  0  8 03 09 14 15 17 18 21 31
 -14075923.43348 -10968240.30546         0.00041  21751517.68246  21751513.70348
  -6343091.45448  -4942658.37644         0.00041  23250556.29344  23250552.45648
 -19312166.69549 -15048413.75046         0.00041  21073608.89046  21073607.31449
   1926868.42649   1501453.31846         0.00041  21290790.32846  21290787.18349
   6087504.60148   4743503.47446         0.00041  21966299.11846  21966295.39348
   4305456.73749   3354900.49046         0.00041  21609065.18646  21609064.31849
  -8571946.03149  -6679432.36446         0.00041  21156271.55846  21156269.50049
  -5193669.38448  -4047010.14645         0.00041  23378989.19145  23378985.41148
 02 07 01 19 37 30.0000000  0  8 03 09 14 15 17 18 21 31
 -14064250.01748 -10959144.15246         0.00041  21753738.46946  21753735.27548
  -6350865.60548  -4948716.11545         0.00041  23249077.91845  23249073.36748
 -19378409.16249 -15100031.21846         0.00041  21061002.88946  21061001.69549
   1983521.58049   1545598.57946         0.00041  21301570.83646  21301567.75749
   6155001.52648   4796098.41046         0.00041  21979143.57246  21979139.36148
   4356799.07349   3394907.47746         0.00041  21618834.66246  21618834.15849
  -8573652.39249  -6680761.99646         0.00041  21155946.77546  21155944.74049
  -5249752.76448  -4090711.42145         0.00041  23368316.03245  23368312.50848
 02 07 01 19 38 00.0000000  0  8 03 09 14 15 17 18 21 31
 -14052059.06249 -10949644.73746         0.00041  21756058.67246  21756056.01449
  -6358110.40548  -4954361.40944         0.00041  23247698.11444  23247694.00248
 -19444227.42149 -15151318.13446         0.00041  21048478.23546  21048477.09949
   2040507.95249   1590003.49346         0.00041  21312415.13046  21312412.04449
   6222808.90248   4848935.23446         0.00041  21992047.76046  21992042.59248
   4408233.41549   3434986.15846         0.00041  21628623.14446  21628622.21949
  -8575257.56849  -6682012.78146         0.00041  21155641.65146  21155639.07849
  -5305380.56548  -4134057.72045         0.00041  23357730.56345  23357727.58448
 02 07 01 19 38 30.0000000  0  8 03 09 14 15 17 18 21 31
 -14039311.74849 -10939711.80746         0.00041  21758484.43446  21758482.46649
  -6364784.96848  -4959562.35544         0.00041  23246427.74244  23246423.63548
 -19509580.17649 -15202242.31546         0.00041  21036041.79646  21036040.51249
   2097867.30549   1634699.05346         0.00041  21323330.38246  21323327.27049
   6290966.49048   4902044.96146         0.00041  22005017.33646  22005012.97748
   4459799.08249   3475167.16546         0.00041  21638435.21446  21638434.52849
  -8576722.04749  -6683153.93646         0.00041  21155362.76746  21155360.43149
  -5360511.03648  -4177016.49145         0.00041  23347237.91145  23347235.58648
 02 07 01 19 39 00.0000000  0  8 03 09 14 15 17 18 21 31
 -14025991.45949 -10929332.40946         0.00041  21761019.19746  21761017.27149
  -6370870.39848  -4964304.25045         0.00041  23245268.80345  23245265.66048
 -19574448.41649 -15252788.95146         0.00041  21023697.68446  21023696.13949
   2155617.03149   1679698.79246         0.00041  21334319.61746  21334316.44749
   6359491.60548   4955441.06346         0.00041  22018056.34546  22018052.69048
   4511512.90549   3515463.62146         0.00041  21648276.11046  21648275.46749
  -8578029.04849  -6684172.37746         0.00041  21155114.23546  21155111.89449
  -5415125.04648  -4219572.81645         0.00041  23336845.70745  23336843.03748
 02 07 01 19 39 30.0000000  0  8 03 09 14 15 17 18 21 31
 -14012108.63749 -10918514.66946         0.00041  21763660.85446  21763659.24849
  -6376375.43748  -4968593.87045         0.00041  23244222.43345  23244218.79448
 -19638840.56649 -15302964.60946         0.00041  21011444.30046  21011442.75149
   2213746.99449   1724994.81646         0.00041  21345381.52346  21345378.25149
   6428373.72048   5009115.34846         0.00041  22031164.07646  22031160.54448
   4563364.21649   3555867.20846         0.00041  21658143.23846  21658142.26249
  -8579188.55449  -6685075.88846         0.00041  21154893.56046  21154891.03049
  -5469230.73048  -4261733.02945         0.00041  23326551.01945  23326547.09548
 02 07 01 19 40 00.0000000  0  8 03 09 14 15 17 18 21 31
 -13997692.18749 -10907281.11846         0.00041  21766404.74046  21766402.82649
  -6381326.86148  -4972452.12345         0.00041  23243280.65945  23243276.24248
 -19702782.93949 -15352789.79446         0.00041  20999276.62046  20999275.38749
   2272228.93149   1770565.10346         0.00041  21356510.08546  21356507.06849
   6497584.82248   5063045.99546         0.00041  22044335.39746  22044331.03748
   4615324.74849   3596355.90446         0.00041  21668030.71446  21668030.21649
  -8580228.73449  -6685886.42646         0.00041  21154695.26246  21154693.16749
  -5522854.29948  -4303517.59645         0.00041  23316347.88145  23316343.82548
 02 07 01 19 40 30.0000000  0  8 03 09 14 15 17 18 21 31
 -13982770.86449 -10895654.15146         0.00041  21769243.96246  21769241.81249
  -6385751.73548  -4975900.04545         0.00041  23242438.38945  23242434.05148
 -19766302.33749 -15402285.39046         0.00041  20987189.16846  20987187.99949
   2331034.93149   1816387.90946         0.00041  21367700.58246  21367697.65349
   6567096.53548   5117210.88145         0.00041  22057562.50945  22057558.63448
   4667365.72049   3636907.27446         0.00041  21677935.06846  21677933.38049
  -8581178.69949  -6686626.66446         0.00041  21154514.77046  21154512.88549
  -5576021.95448  -4344946.90145         0.00041  23306228.48945  23306225.78748
 02 07 01 19 41 00.0000000  0  8 03 09 14 15 17 18 21 31
 -13967329.63549 -10883622.05346         0.00041  21772182.70146  21772179.61049
  -6389632.89048  -4978924.33345         0.00041  23241699.61045  23241696.44348
 -19829381.50049 -15451437.94746         0.00041  20975185.28746  20975184.11549
   2390180.58049   1862475.36546         0.00041  21378955.62746  21378952.60349
   6636924.41848   5171622.12946         0.00041  22070849.79846  22070846.30648
   4719502.54849   3677533.32846         0.00041  21687855.25346  21687854.37149
  -8582022.17449  -6687283.92046         0.00041  21154353.84446  21154352.11349
  -5628716.18948  -4386007.30345         0.00041  23296201.06945  23296197.89048
 02 07 01 19 41 30.0000000  0  8 03 09 14 15 17 18 21 31
 -13951339.56148 -10871162.27546         0.00041  21775225.19446  21775221.41348
  -6392939.24048  -4981500.67345         0.00041  23241071.26845  23241066.96848
 -19891988.69449 -15500222.73646         0.00041  20963271.58646  20963270.35849
   2449695.56649   1908850.61846         0.00041  21390281.06446  21390277.98149
   6707098.13548   5226302.84446         0.00041  22084204.72746  22084200.56048
   4771764.36649   3718256.78546         0.00041  21697801.09946  21697800.06649
  -8582729.69049  -6687835.23346         0.00041  21154219.47546  21154217.54749
  -5680905.47548  -4426674.22645         0.00041  23286271.71145  23286266.36748
 02 07 01 19 42 00.0000000  0  8 03 09 14 15 17 18 21 31
 -13934797.42148 -10858272.32646         0.00041  21778373.68246  21778369.54848
  -6395665.42948  -4983624.96445         0.00041  23240550.96045  23240547.37648
 -19954118.51049 -15548635.54146         0.00041  20951448.93146  20951447.55949
   2509584.16949   1955517.00246         0.00041  21401677.55646  21401674.63549
   6777621.50448   5281256.01246         0.00041  22097625.24346  22097620.97748
   4824155.18149   3759080.75946         0.00041  21707770.06946  21707769.35749
  -8583297.07449  -6688277.35346         0.00041  21154111.57946  21154109.67249
  -5732583.80048  -4466943.01145         0.00041  23276435.96445  23276432.82048
 02 07 01 19 42 30.0000000  0  8 03 09 14 15 17 18 21 31
 -13917676.46648 -10844931.34646         0.00041  21781631.31046  21781628.09748
  -6397783.23848  -4985275.20645         0.00041  23240148.36045  23240145.18248
 -20015742.24849 -15596654.00346         0.00041  20939722.39746  20939721.14249
   2569873.30649   2002495.48846         0.00041  21413150.37146  21413147.18349
   6848521.51748   5336502.68446         0.00041  22111115.69646  22111112.39248
   4876701.63249   3800026.01046         0.00041  21717769.88846  21717768.58749
  -8583697.26149  -6688589.19246         0.00041  21154035.47246  21154033.13349
  -5783722.05848  -4506790.99145         0.00041  23266706.11245  23266702.23648
 02 07 01 19 43 00.0000000  0  8 03 09 14 15 17 18 21 31
 -13899989.26649 -10831149.14046         0.00041  21784997.34546  21784994.18949
  -6399302.90048  -4986459.37144         0.00041  23239861.35144  23239856.12548
 -20076869.78549 -15644285.81846         0.00041  20928089.73246  20928088.59749
   2630551.53748   2049777.16646         0.00041  21424696.64646  21424693.41848
   6919786.56848   5392033.79246         0.00041  22124678.05746  22124673.53748
   4929391.78449   3841083.22946         0.00041  21727796.15346  21727795.36549
  -8583942.21549  -6688780.07046         0.00041  21153988.64746  21153986.89049
  -5834330.08248  -4546225.75745         0.00041  23257074.73945  23257071.67948
 02 07 01 19 43 30.0000000  0  8 03 09 14 15 17 18 21 31
 -13881772.40249 -10816954.21846         0.00041  21788463.32646  21788461.04349
  -6400259.33048  -4987204.68244         0.00041  23239676.03444  23239673.42348
 -20137535.44349 -15691557.72546         0.00041  20916545.53846  20916544.34749
   2691582.96849   2097334.06546         0.00041  21436310.91746  21436307.85249
   6991380.56848   5447821.23146         0.00041  22138302.67346  22138297.54148
   4982189.45149   3882224.23446         0.00041  21737843.54746  21737842.48549
  -8584067.73149  -6688877.87846         0.00041  21153965.07146  21153962.91149
  -5884441.97048  -4585273.93744         0.00041  23247538.54844  23247534.85148
 02 07 01 19 44 00.0000000  0  8 03 09 14 15 17 18 21 31
 -13863040.42949 -10802357.92446         0.00041  21792028.15646  21792026.02749
  -6400665.22448  -4987521.97345         0.00041  23239599.07545  23239596.52748
 -20197751.40649 -15738479.22246         0.00041  20905086.94546  20905085.50149
   2752953.70849   2145155.36646         0.00041  21447989.85246  21447986.78449
   7063289.49748   5503854.06846         0.00041  22151986.88646  22151981.64948
   5035080.54349   3923438.03346         0.00041  21747908.12046  21747907.36749
  -8584087.74949  -6688893.48746         0.00041  21153961.33946  21153959.13649
  -5934069.57248  -4623944.80345         0.00041  23238094.23845  23238091.04048
 02 07 01 19 44 30.0000000  0  8 03 09 14 15 17 18 21 31
 -13843787.51649 -10787355.70546         0.00041  21795691.99046  21795690.19449
  -6400512.35548  -4987401.76445         0.00041  23239626.68145  23239626.26748
 -20257509.38549 -15785043.85246         0.00041  20893715.44946  20893714.01549
   2814670.54449   2193246.35846         0.00041  21459734.20446  21459730.98349
   7135519.94948   5560137.44246         0.00041  22165731.40246  22165727.25848
   5088071.49049   3964729.65046         0.00041  21757992.22846  21757991.15649
  -8583995.64049  -6688821.72246         0.00041  21153978.76546  21153976.75549
  -5983204.44048  -4662231.69145         0.00041  23228745.62645  23228741.54848
 02 07 01 19 45 00.0000000  0  8 03 09 14 15 17 18 21 31
 -13823963.29549 -10771908.30646         0.00041  21799464.38146  21799461.66649
  -6399748.56148  -4986806.55744         0.00041  23239776.02244  23239771.07948
 -20316756.84049 -15831210.67246         0.00041  20882440.88146  20882439.73149
   2876784.54249   2241646.81346         0.00041  21471554.16646  21471550.74249
   7208122.76948   5616710.97046         0.00041  22179547.22746  22179542.69248
   5141213.26449   4006138.79546         0.00041  21768104.78646  21768103.94749
  -8583740.24749  -6688622.72546         0.00041  21154027.46246  21154025.25149
  -6031793.65848  -4700093.41145         0.00041  23219499.10345  23219495.46148
 02 07 01 19 45 30.0000000  0  8 03 09 14 15 17 18 21 31
 -13803565.28748 -10756013.80046         0.00041  21803345.74546  21803342.64948
  -6398369.50548  -4985732.00144         0.00041  23240036.19444  23240032.69048
 -20375488.78649 -15876975.79346         0.00041  20871264.55746  20871263.40549
   2939298.79649   2290359.15846         0.00041  21483450.27446  21483446.87149
   7281101.19048   5673577.18445         0.00041  22193434.68345  22193429.70148
   5194508.72349   4047667.67846         0.00041  21778246.57746  21778245.44049
  -8583317.92749  -6688293.65446         0.00041  21154107.74946  21154105.52849
  -6079832.14148  -4737525.97345         0.00041  23210356.82045  23210353.49948
 02 07 01 19 46 00.0000000  0  8 03 09 14 15 17 18 21 31
 -13782632.03348 -10739702.21246         0.00041  21807329.56946  21807325.87048
  -6396411.85948  -4984206.57944         0.00041  23240407.81244  23240405.55448
 -20433741.58349 -15922367.55446         0.00041  20860179.49246  20860178.16649
   3002175.59149   2339354.00346         0.00041  21495415.51346  21495412.15749
   7354417.28548   5730706.49845         0.00041  22207385.33545  22207381.31448
   5247919.94349   4089286.78246         0.00041  21788410.33846  21788410.00149
  -8582766.48749  -6687863.96946         0.00041  21154212.74546  21154210.44449
  -6127355.97348  -4774557.50745         0.00041  23201312.83045  23201309.36948
 02 07 01 19 46 30.0000000  0  8 03 09 14 15 17 18 21 31
 -13761160.85948 -10722971.46046         0.00041  21811415.55346  21811411.79548
  -6393871.16048  -4982226.80544         0.00041  23240892.71844  23240889.62348
 -20491509.95149 -15967381.83646         0.00041  20849186.74846  20849185.17949
   3065418.31049   2388633.98346         0.00041  21507449.91946  21507446.59349
   7428074.17848   5788101.38045         0.00041  22221402.54845  22221398.47848
   5301449.99349   4130998.46946         0.00041  21798597.06246  21798595.69149
  -8582082.34749  -6687330.88646         0.00041  21154342.93546  21154340.63249
  -6174359.68548  -4811183.76344         0.00041  23192369.37044  23192364.36248
 02 07 01 19 47 00.0000000  0  8 03 09 14 15 17 18 21 31
 -13739180.62848 -10705844.04046         0.00041  21815598.55346  21815594.65048
  -6390774.21248  -4979813.60545         0.00041  23241481.74645  23241478.66348
 -20548820.56649 -16012039.42946         0.00041  20838280.13446  20838279.15149
   3128999.22648   2438177.48746         0.00041  21519548.94346  21519545.74448
   7502044.04248   5845740.09645         0.00041  22235477.92945  22235474.61648
   5355071.14949   4172781.14146         0.00041  21808801.00546  21808799.72349
  -8581293.23749  -6686716.00446         0.00041  21154493.02746  21154490.86649
  -6220869.51848  -4847425.14944         0.00041  23183518.73744  23183512.78548
 02 07 01 19 47 30.0000000  0  8 03 09 14 15 17 18 21 31
 -13716693.28149 -10688321.46346         0.00041  21819877.88146  21819874.69349
  -6387120.96648  -4976966.89845         0.00041  23242177.65045  23242174.36148
 -20605672.91749 -16056339.93646         0.00041  20827461.94046  20827460.84549
   3192917.23748   2487983.67146         0.00041  21531712.16046  21531708.97848
   7576325.56348   5903621.67945         0.00041  22249614.18945  22249610.17748
   5408782.03249   4214633.73746         0.00041  21819021.54546  21819020.09949
  -8580400.58149  -6686020.43746         0.00041  21154662.92246  21154660.78549
  -6266884.79348  -4883281.19644         0.00041  23174761.13944  23174758.01948
 02 07 01 19 48 00.0000000  0  8 03 09 14 15 17 18 21 31
 -13693715.81749 -10670416.98246         0.00041  21824250.41446  21824247.58949
  -6382926.17748  -4973698.25144         0.00041  23242975.44944  23242972.23448
 -20662081.59049 -16100294.71146         0.00041  20816727.57346  20816726.29449
   3257156.05948   2538039.83546         0.00041  21543936.90746  21543933.33648
   7650902.63848   5961733.54045         0.00041  22263806.37345  22263801.82848
   5462566.17549   4256543.40846         0.00041  21829256.60646  21829255.34549
  -8579420.16849  -6685256.49146         0.00041  21154849.48846  21154847.20649
  -6312419.80348  -4918762.99944         0.00041  23166096.59944  23166093.39748
 02 07 01 19 48 30.0000000  0  8 03 09 14 15 17 18 21 31
 -13670205.94649 -10652097.64146         0.00041  21828724.25146  21828721.37649
  -6378145.66348  -4969973.17145         0.00041  23243886.92445  23243881.88348
 -20718001.56149 -16143868.68446         0.00041  20806086.25946  20806085.17749
   3321758.98648   2588379.70546         0.00041  21556230.43546  21556226.52848
   7725818.01648   6020109.02645         0.00041  22278062.33245  22278057.62848
   5516466.88849   4298543.92546         0.00041  21839512.79746  21839512.18749
  -8578308.60449  -6684390.34646         0.00041  21155060.63346  21155058.88649
  -6357429.42548  -4953835.41844         0.00041  23157531.34844  23157528.20848
 02 07 01 19 49 00.0000000  0  8 03 09 14 15 17 18 21 31
 -13646133.69249 -10633340.08746         0.00041  21833304.74646  21833302.27849
  -6372747.76748  -4965767.00145         0.00041  23244913.71945  23244909.88648
 -20773401.02549 -16187037.06446         0.00041  20795544.14646  20795542.93549
   3386756.57449   2639027.11646         0.00041  21568598.84546  21568595.63449
   7801102.38848   6078772.06645         0.00041  22292389.28845  22292383.10548
   5570514.40049   4340658.82946         0.00041  21849798.13146  21849797.12449
  -8577034.86249  -6683397.82746         0.00041  21155303.14846  21155301.26249
  -6401881.45348  -4988473.32944         0.00041  23149071.14244  23149068.16848
 02 07 01 19 49 30.0000000  0  8 03 09 14 15 17 18 21 31
 -13621547.99949 -10614182.44546         0.00041  21837983.66546  21837980.85349
  -6366779.66948  -4961116.58644         0.00041  23246048.30444  23246044.92748
 -20828326.53549 -16229836.13046         0.00041  20785092.21646  20785091.08949
   3452100.86849   2689944.67746         0.00041  21581033.67346  21581030.49949
   7876707.61348   6137685.13445         0.00041  22306775.35145  22306770.45948
   5624661.02549   4382850.95946         0.00041  21860102.11546  21860100.82549
  -8575647.21249  -6682316.54746         0.00041  21155567.45446  21155565.41649
  -6445822.10948  -5022712.78145         0.00041  23140711.48845  23140707.52348
 02 07 01 19 50 00.0000000  0  8 03 09 14 15 17 18 21 31
 -13596444.35449 -10594621.20746         0.00041  21842760.53146  21842757.45549
  -6360234.91748  -4956016.79345         0.00041  23247294.04745  23247290.29348
 -20882771.00649 -16272260.36246         0.00041  20774732.02746  20774730.53449
   3517797.02949   2741136.42646         0.00041  21593535.25746  21593532.23749
   7952638.84848   6196852.22445         0.00041  22321224.99845  22321220.00248
   5678911.76949   4425124.22846         0.00041  21870425.58246  21870424.97349
  -8574139.92849  -6681142.04846         0.00041  21155854.26446  21155852.09049
  -6489244.29748  -5056548.22045         0.00041  23132448.24045  23132444.72848
 02 07 01 19 50 30.0000000  0  8 03 09 14 15 17 18 21 31
 -13570822.56849 -10574656.22446         0.00041  21847635.88846  21847632.91049
  -6353111.25448  -4950465.89845         0.00041  23248649.48245  23248646.40648
 -20936731.69949 -16314307.62646         0.00041  20764463.34946  20764462.06049
   3583846.62649   2792603.57346         0.00041  21606104.20146  21606101.00349
   8028897.08148   6256274.10045         0.00041  22335736.63945  22335731.93348
   5733268.04649   4467479.72546         0.00041  21880769.82946  21880768.52449
  -8572511.62149  -6679873.24146         0.00041  21156164.11446  21156162.00549
  -6532144.97148  -5089977.31745         0.00041  23124285.95545  23124280.53648
 02 07 01 19 51 00.0000000  0  8 03 09 14 15 17 18 21 31
 -13544672.08248 -10554279.26746         0.00041  21852611.90046  21852608.99548
  -6345396.32548  -4944454.26145         0.00041  23250118.55945  23250114.09548
 -20990195.91949 -16355968.03446         0.00041  20754289.20446  20754287.96649
   3650260.87848   2844354.87346         0.00041  21618741.89346  21618738.75448
   8105493.64848   6315959.60945         0.00041  22350312.41345  22350307.75248
   5787741.07949   4509926.20546         0.00041  21891135.76246  21891134.73749
  -8570750.95749  -6678501.29946         0.00041  21156499.31846  21156497.10949
  -6574511.11548  -5122989.84545         0.00041  23116224.14245  23116219.14748
 02 07 01 19 51 30.0000000  0  8 03 09 14 15 17 18 21 31
 -13517988.58748 -10533486.97646         0.00041  21857689.64646  21857686.48948
  -6337084.04348  -4937977.17945         0.00041  23251699.92145  23251696.44748
 -21043156.87249 -16397236.27546         0.00041  20744211.12146  20744209.79549
   3717045.06048   2896394.43646         0.00041  21631450.93546  21631447.01348
   8182433.59248   6375912.69945         0.00041  22364953.64545  22364949.36548
   5842336.06449   4552467.70846         0.00041  21901524.69846  21901523.51349
  -8568852.49449  -6677021.98646         0.00041  21156860.67146  21156858.29149
  -6616335.85448  -5155580.54545         0.00041  23108264.78245  23108260.37648
 02 07 01 19 52 00.0000000  0  8 03 09 14 15 17 18 21 31
 -13490745.31948 -10512258.49946         0.00041  21862874.34346  21862870.85748
  -6328145.72348  -4931012.24745         0.00041  23253400.11345  23253397.43148
 -21095585.22749 -16438089.50746         0.00041  20734234.24946  20734233.22049
   3784227.06448   2948743.98146         0.00041  21644234.99846  21644231.82448
   8259744.46048   6436154.81345         0.00041  22379665.92745  22379661.63848
   5897080.58748   4595125.75346         0.00041  21911941.96046  21911941.13848
  -8566787.71449  -6675413.07646         0.00041  21157253.61946  21157251.24449
  -6657589.70048  -5187726.37745         0.00041  23100413.71645  23100409.54148
 02 07 01 19 52 30.0000000  0  8 03 09 14 15 17 18 21 31
 -13462979.92249 -10490623.16546         0.00041  21868158.40346  21868154.92849
  -6318617.10048  -4923587.35945         0.00041  23255214.50445  23255210.27848
 -21147516.38249 -16478555.31546         0.00041  20724352.27146  20724351.13749
   3851769.90148   3001374.70246         0.00041  21657088.39846  21657085.26948
   8337389.54348   6496657.33045         0.00041  22394441.85445  22394436.89648
   5951938.18148   4637871.88846         0.00041  21922381.37446  21922380.15248
  -8564592.74549  -6673702.71646         0.00041  21157671.08846  21157668.63349
  -6698307.60348  -5219454.58545         0.00041  23092666.10345  23092661.23348
 02 07 01 19 53 00.0000000  0  8 03 09 14 15 17 18 21 31
 -13434733.44349 -10468612.96546         0.00041  21873533.35846  21873530.14349
  -6308537.30548  -4915732.96345         0.00041  23257133.16945  23257127.99148
 -21198989.10649 -16518663.90546         0.00041  20714556.85646  20714555.83149
   3919633.48148   3054255.35846         0.00041  21670002.18946  21669998.59448
   8415328.50348   6557388.85145         0.00041  22409273.06045  22409268.03448
   6006868.87348   4680674.98146         0.00041  21932834.15546  21932833.00648
  -8562307.85749  -6671922.29546         0.00041  21158106.03946  21158103.53049
  -6738528.05848  -5250795.18645         0.00041  23085010.76245  23085007.61148
 02 07 01 19 53 30.0000000  0  8 03 09 14 15 17 18 21 31
 -13406007.36249 -10446229.05146         0.00041  21879000.05446  21878996.92849
  -6297905.96248  -4907448.79245         0.00041  23259154.38545  23259151.22048
 -21250002.08049 -16558414.24946         0.00041  20704849.69846  20704848.36649
   3987817.39248   3107385.60746         0.00041  21682977.37146  21682973.83748
   8493560.53248   6618348.76245         0.00041  22424161.14545  22424154.31648
   6061872.08848   4723534.59146         0.00041  21943300.82246  21943300.08048
  -8559933.23449  -6670071.95046         0.00041  21158557.78446  21158555.37049
  -6778249.70448  -5281747.10745         0.00041  23077452.17545  23077449.18448
 02 07 01 19 54 00.0000000  0  8 03 09 14 15 17 18 21 31
 -13376787.11249 -10423460.07246         0.00041  21884560.52446  21884557.34249
  -6286706.93448  -4898722.29245         0.00041  23261285.84945  23261282.61048
 -21300538.57549 -16597793.30746         0.00041  20695233.08046  20695231.61849
   4056337.17448   3160777.56746         0.00041  21696016.16146  21696012.95448
   8572101.15448   6679549.13345         0.00041  22439106.06245  22439099.06148
   6116963.39548   4766462.85346         0.00041  21953784.84446  21953783.49848
  -8557452.76449  -6668139.12246         0.00041  21159029.73846  21159027.70349
  -6817455.57248  -5312297.12345         0.00041  23069991.03345  23069987.39748
 02 07 01 19 54 30.0000000  0  8 03 09 14 15 17 18 21 31
 -13347048.08749 -10400286.85046         0.00041  21890219.62046  21890216.49149
  -6274913.46948  -4889532.57345         0.00041  23263529.55445  23263526.44448
 -21350571.49749 -16636779.97746         0.00041  20685711.94546  20685710.65749
   4125218.48648   3214451.23746         0.00041  21709124.05246  21709120.81048
   8650975.66148   6741009.65345         0.00041  22454116.62645  22454109.99948
   6172168.49248   4809479.76946         0.00041  21964289.85846  21964288.64648
  -8554840.89149  -6666103.90446         0.00041  21159526.95246  21159524.98449
  -6856118.36648  -5342423.96845         0.00041  23062635.15045  23062629.90848
 02 07 01 19 55 00.0000000  0  8 03 09 14 15 17 18 21 31
 -13316800.12948 -10376717.06546         0.00041  21895975.08046  21895971.91248
  -6262533.77148  -4879886.03244         0.00041  23265884.01044  23265881.60748
 -21400108.55149 -16675380.25847         0.00041  20676285.42047  20676284.13049
   4194452.20848   3268399.52646         0.00041  21722298.67546  21722295.77148
   8730175.20148   6802723.45945         0.00041  22469187.16345  22469182.62248
   6227478.67748   4852578.56946         0.00041  21974815.21646  21974813.67048
  -8552106.13949  -6663972.94246         0.00041  21160047.42246  21160045.12449
  -6894245.37948  -5372133.30245         0.00041  23055379.26345  23055376.68048
 02 07 01 19 55 30.0000000  0  8 03 09 14 15 17 18 21 31
 -13286063.33448 -10352766.36246         0.00041  21901824.03546  21901820.74048
  -6249585.73048  -4869796.65144         0.00041  23268352.28044  23268345.27748
 -21449166.93449 -16713607.54746         0.00041  20666949.60246  20666948.76249
   4264019.58448   3322607.79846         0.00041  21735537.75846  21735533.93248
   8809680.48448   6864675.50745         0.00041  22484316.06445  22484312.00548
   6282874.98948   4895744.49346         0.00041  21985355.96346  21985355.06148
  -8549266.62649  -6661760.34246         0.00041  21160587.65046  21160585.24549
  -6931853.89448  -5401438.62745         0.00041  23048220.67945  23048218.69348
 02 07 01 19 56 00.0000000  0  8 03 09 14 15 17 18 21 31
 -13254848.63948 -10328443.27746         0.00041  21907763.74746  21907760.82448
  -6236078.44848  -4859271.48344         0.00041  23270920.91944  23270916.11748
 -21497755.18749 -16751468.49646         0.00041  20657703.65746  20657702.59849
   4333910.67248   3377068.31346         0.00041  21748837.65546  21748833.66148
   8889481.72748   6926858.15345         0.00041  22499501.42645  22499497.34648
   6338348.00548   4938970.19046         0.00041  21995912.90546  21995911.22748
  -8546331.59449  -6659473.31546         0.00041  21161146.20346  21161143.74749
  -6968951.97048  -5430346.20745         0.00041  23041162.96145  23041159.54648
 02 07 01 19 56 30.0000000  0  8 03 09 14 15 17 18 21 31
 -13223087.06348 -10303694.04346         0.00041  21913808.11646  21913804.78848
  -6221941.57348  -4848255.72044         0.00041  23273609.99744  23273606.80148
 -21545802.09449 -16788907.61846         0.00041  20648560.65146  20648559.83049
   4404195.13248   3431835.35046         0.00041  21762212.83246  21762208.40848
   8969648.33448   6989325.49945         0.00041  22514756.92245  22514752.78048
   6393967.55148   4982310.05146         0.00041  22006497.14746  22006495.70148
  -8543231.63149  -6657057.77646         0.00041  21161736.14746  21161733.89049
  -7005468.44448  -5458800.57645         0.00041  23034213.75845  23034210.84148
 02 07 01 19 57 00.0000000  0  8 03 09 14 15 17 18 21 31
 -13190759.52848 -10278503.81246         0.00041  21919960.37946  21919957.20448
  -6207154.13148  -4836733.01544         0.00041  23276425.08144  23276419.88248
 -21593286.42149 -16825908.37046         0.00041  20639524.46046  20639523.53049
   4474893.18848   3486924.66946         0.00041  21775665.34846  21775662.07648
   9050200.24448   7052093.09145         0.00041  22530086.33945  22530081.17848
   6449753.71948   5025779.75846         0.00041  22017112.52846  22017111.50748
  -8539946.18049  -6654497.69346         0.00041  21162361.32946  21162359.21349
  -7041381.63448  -5486784.85745         0.00041  23027380.70645  23027376.09148
 02 07 01 19 57 30.0000000  0  8 03 09 14 15 17 18 21 31
 -13157969.12748 -10252952.90346         0.00041  21926200.08746  21926197.09248
  -6191817.24148  -4824782.20445         0.00041  23279340.53845  23279338.08648
 -21640308.84649 -16862549.19446         0.00041  20630576.35246  20630575.27249
   4545902.55648   3542256.57046         0.00041  21789177.88746  21789174.52748
   9131035.23248   7115081.25945         0.00041  22545468.22845  22545463.79848
   6505604.65148   5069299.93046         0.00041  22027740.61546  22027739.81948
  -8536576.70649  -6651872.13846         0.00041  21163002.75946  21163000.45349
  -7076791.96348  -5514377.28945         0.00041  23020641.29445  23020637.44248
 02 07 01 19 58 00.0000000  0  8 03 09 14 15 17 18 21 31
 -13124700.77249 -10227029.57046         0.00041  21932530.94946  21932527.98649
  -6175913.85148  -4812389.95345         0.00041  23282369.81145  23282364.98448
 -21686851.55949 -16898816.21647         0.00041  20621719.50847  20621718.31249
   4617239.62648   3597843.82646         0.00041  21802753.51646  21802749.35748
   9212169.28648   7178302.47645         0.00041  22560908.15045  22560902.36148
   6561537.12448   5112883.63246         0.00041  22038384.19046  22038383.26648
  -8533105.97949  -6649167.68646         0.00041  21163663.15946  21163661.08149
  -7111681.64148  -5541564.03545         0.00041  23014002.89845  23013998.05948
 02 07 01 19 58 30.0000000  0  8 03 09 14 15 17 18 21 31
 -13090940.59849 -10200722.99746         0.00041  21938955.07846  21938952.24549
  -6159428.57648  -4799544.26545         0.00041  23285505.72045  23285501.98448
 -21732898.13749 -16934696.64147         0.00041  20612957.54747  20612956.58749
   4688919.16848   3653697.93846         0.00041  21816393.83346  21816389.79948
   9293617.37548   7241768.37645         0.00041  22576405.37845  22576401.92748
   6617566.11848   5156542.54646         0.00041  22049046.13946  22049044.86948
  -8529518.62249  -6646372.35746         0.00041  21164345.56446  21164343.65349
  -7146034.17748  -5568332.21945         0.00041  23007464.97445  23007462.37548
 02 07 01 19 59 00.0000000  0  8 03 09 14 15 17 18 21 31
 -13056668.52949 -10174017.54446         0.00041  21945477.36746  21945474.33449
  -6142339.52348  -4786228.13945         0.00041  23288758.02545  23288754.42948
 -21778426.43749 -16970173.21847         0.00041  20604293.73647  20604292.77549
   4760962.14148   3709835.23746         0.00041  21830102.60246  21830098.88548
   9375400.27348   7305495.16445         0.00041  22591968.85045  22591964.81148
   6673712.88748   5200293.23146         0.00041  22059731.22246  22059729.80848
  -8525793.21849  -6643469.45246         0.00041  21165054.65846  21165052.60949
  -7179826.95148  -5594664.25045         0.00041  23001033.80645  23001031.22448
 02 07 01 19 59 30.0000000  0  8 03 09 14 15 17 18 21 31
 -13021919.54049 -10146940.46446         0.00041  21952089.69846  21952086.84249
  -6124679.95748  -4772467.42845         0.00041  23292117.57045  23292114.77748
 -21823468.76949 -17005271.11647         0.00041  20595722.02447  20595721.19249
   4833334.93348   3766229.54146         0.00041  21843874.58846  21843870.69348
   9457484.07748   7369456.44745         0.00041  22607588.80845  22607585.35748
   6729944.04848   5244109.66946         0.00041  22070431.04646  22070430.08048
  -8521963.17849  -6640485.01546         0.00041  21165783.66146  21165781.33349
  -7213092.12648  -5620585.16445         0.00041  22994702.89845  22994700.57948
 02 07 01 20 00 00.0000000  0  8 03 09 14 15 17 18 21 31
 -12986699.05149 -10119495.98646         0.00041  21958791.71046  21958789.04749
  -6106453.29348  -4758264.82945         0.00041  23295586.43845  23295583.22248
 -21868028.44049 -17039992.91247         0.00041  20587242.77047  20587241.76249
   4906033.10648   3822877.38746         0.00041  21857708.57846  21857705.29648
   9539864.07348   7433648.52745         0.00041  22623266.76145  22623262.13548
   6786255.29448   5287988.52846         0.00041  22081147.29446  22081145.40048
  -8518032.41249  -6637422.09346         0.00041  21166531.65246  21166529.39149
  -7245832.75348  -5646097.33545         0.00041  22988472.21845  22988470.29148
 02 07 01 20 00 30.0000000  0  8 03 09 14 15 17 18 21 31
 -12950985.83548 -10091667.56346         0.00041  21965587.83946  21965584.61748
  -6087636.72748  -4743602.59245         0.00041  23299166.81445  23299163.65848
 -21912081.47549 -17074319.93547         0.00041  20578859.92947  20578859.03449
   4979079.21548   3879796.35346         0.00041  21871608.81346  21871605.51548
   9622562.71648   7498088.87245         0.00041  22639004.16245  22638999.00248
   6842669.51349   5331947.61746         0.00041  22091882.41746  22091881.37749
  -8513977.64749  -6634262.54946         0.00041  21167303.36546  21167301.01249
  -7278024.75048  -5671181.99645         0.00041  22982348.58345  22982344.84048
 02 07 01 20 01 00.0000000  0  8 03 09 14 15 17 18 21 31
 -12914777.86648 -10063453.61746         0.00041  21972478.90046  21972474.83048
  -6068226.33948  -4728477.61145         0.00041  23302861.43445  23302857.60748
 -21955623.31749 -17108248.62047         0.00041  20570574.40747  20570573.21549
   5052476.20448   3936988.72646         0.00041  21885576.40346  21885573.26048
   9705582.81048   7562779.72245         0.00041  22654802.84345  22654797.41948
   6899190.09848   5375989.58046         0.00041  22102637.79346  22102636.73848
  -8509795.27849  -6631003.56846         0.00041  21168099.18046  21168096.82249
  -7309663.50348  -5695835.55945         0.00041  22976327.72445  22976324.56448
 02 07 01 20 01 30.0000000  0  8 03 09 14 15 17 18 21 31
 -12878057.31348 -10034840.25646         0.00041  21979465.87446  21979462.28448
  -6048202.57348  -4712874.68645         0.00041  23306671.54445  23306668.31948
 -21998633.83549 -17141763.28747         0.00041  20562389.56747  20562388.68349
   5126243.01248   3994469.26446         0.00041  21899613.80746  21899610.75648
   9788943.25348   7627735.73945         0.00041  22670666.45445  22670659.88948
   6955836.32948   5420129.46946         0.00041  22113417.54046  22113415.73848
  -8505465.49249  -6627629.72246         0.00041  21168922.71846  21168920.55349
  -7340728.58248  -5720042.11045         0.00041  22970415.97545  22970412.93348
 02 07 01 20 02 00.0000000  0  8 03 09 14 15 17 18 21 31
 -12840829.24548 -10005831.43546         0.00041  21986550.20046  21986546.88448
  -6027568.92748  -4696796.52945         0.00041  23310598.90345  23310593.10548
 -22041115.98649 -17174866.24747         0.00041  20554305.16447  20554304.58449
   5200375.38848   4052234.66846         0.00041  21913720.59946  21913717.27148
   9872639.58448   7692953.48945         0.00041  22686592.85645  22686586.88948
   7012604.54248   5464364.38746         0.00041  22124219.21446  22124218.15248
  -8500992.06049  -6624143.93946         0.00041  21169773.99946  21169771.84149
  -7371222.71848  -5743803.74745         0.00041  22964613.56145  22964608.73248
 02 07 01 20 02 30.0000000  0  8 03 09 14 15 17 18 21 31
 -12803132.21148  -9976457.17746         0.00041  21993723.50746  21993720.28748
  -6006362.15448  -4680271.78545         0.00041  23314632.26545  23314629.80348
 -22083105.60149 -17207585.40547         0.00041  20546314.84747  20546314.20849
   5274836.23348   4110256.00646         0.00041  21927890.18646  21927886.71448
   9956634.47748   7758403.89445         0.00041  22702574.99845  22702570.77748
   7069457.80648   5508665.57746         0.00041  22135039.36746  22135037.40848
  -8496411.88749  -6620574.98846         0.00041  21170645.94046  21170643.21349
  -7401181.58348  -5767148.30245         0.00041  22958912.54545  22958907.69648
 02 07 01 20 03 00.0000000  0  7 03 14 15 17 18 21 31
 -12764990.07048  -9946736.09046         0.00041  22000981.58246  22000978.42248
 -22124624.30149 -17239937.61547         0.00041  20538414.11347  20538413.58949
   5349602.78348   4168515.57446         0.00041  21942118.09646  21942114.81248
  10040904.93848   7824069.02045         0.00041  22718611.23445  22718607.53448
   7126373.62748   5553015.52246         0.00041  22145869.92146  22145868.34748
  -8491746.64649  -6616939.74646         0.00041  21171533.34046  21171531.24649
  -7430626.69448  -5790092.54045         0.00041  22953309.75945  22953304.39248
 02 07 01 20 03 30.0000000  0  7 03 14 15 17 18 21 31
 -12726382.31349  -9916652.18846         0.00041  22008329.38246  22008326.19849
 -22165649.29249 -17271905.12047         0.00041  20530607.41747  20530606.76949
   5424696.44048   4227030.02746         0.00041  21956407.74646  21956404.53048
  10125472.33748   7889965.52945         0.00041  22734706.01345  22734699.56848
   7183373.85248   5597431.24446         0.00041  22156716.26346  22156715.47648
  -8486974.41949  -6613221.13446         0.00041  21172441.52946  21172439.46449
  -7459534.96848  -5812618.43345         0.00041  22947807.76945  22947804.40148
 02 07 01 20 04 00.0000000  0  7 03 14 15 17 18 21 31
 -12687281.76549  -9886184.29646         0.00041  22015769.74746  22015766.53849
 -22206150.73949 -17303464.66747         0.00041  20522900.38847  20522899.42249
   5500145.44148   4285821.37246         0.00041  21970765.35446  21970762.04548
  10210364.79248   7956115.31545         0.00041  22750860.33345  22750854.55648
   7240487.31948   5641935.19046         0.00041  22167584.79246  22167582.85048
  -8482065.77249  -6609396.21646         0.00041  21173375.50346  21173373.88049
  -7487876.74048  -5834702.91845         0.00041  22942414.69445  22942410.28548
 02 07 01 20 04 30.0000000  0  7 03 14 15 17 18 21 31
 -12647687.04448  -9855331.33146         0.00041  22023304.45846  22023301.27348
 -22246124.85849 -17334613.31347         0.00041  20515293.51947  20515292.62749
   5575952.63448   4344891.81946         0.00041  21985191.45646  21985188.10148
  10295584.99748   8022520.51045         0.00041  22767078.04145  22767071.90048
   7297717.45748   5686530.06546         0.00041  22178474.96946  22178474.04148
  -8477017.67049  -6605462.63446         0.00041  21174336.40146  21174334.38849
  -7515647.60248  -5856342.53645         0.00041  22937129.58645  22937126.51548
 02 07 01 20 05 00.0000000  0  7 03 14 15 17 18 21 31
 -12607603.49448  -9824097.45846         0.00041  22030932.29146  22030928.59048
 -22285574.80649 -17365353.51247         0.00041  20507786.41247  20507785.43349
   5652113.58448   4404237.91546         0.00041  21999684.07246  21999680.86148
  10381128.46548   8089177.58245         0.00041  22783357.14745  22783349.27948
   7355060.23748   5731212.71146         0.00041  22189388.18246  22189386.43548
  -8471833.66649  -6601423.15846         0.00041  21175322.89146  21175320.87349
  -7542850.67248  -5877539.72245         0.00041  22931952.66345  22931949.34948
 02 07 01 20 05 30.0000000  0  7 03 14 15 17 18 21 31
 -12567071.82348  -9792514.40146         0.00041  22038644.91846  22038640.98448
 -22324538.58849 -17395714.88147         0.00041  20500371.75747  20500370.94849
   5728588.95048   4463829.01446         0.00041  22014237.59646  22014233.88248
  10466955.64948   8156055.74445         0.00041  22799687.68445  22799681.74448
   7412476.86948   5775952.91246         0.00041  22200313.52546  22200311.46348
  -8466552.30749  -6597307.81346         0.00041  21176328.09446  21176325.66849
  -7569523.83248  -5898324.00445         0.00041  22926877.00645  22926874.35248
 02 07 01 20 06 00.0000000  0  7 03 14 15 17 18 21 31
 -12526085.94348  -9760577.40446         0.00041  22046444.77346  22046440.65548
 -22363008.07649 -17425691.08447         0.00041  20493051.33947  20493050.33049
   5805385.76248   4523670.59746         0.00041  22028851.03246  22028847.83248
  10553073.17848   8223160.15945         0.00041  22816075.72545  22816069.25048
   7469974.86548   5820756.50146         0.00041  22211255.35446  22211253.97848
  -8461165.37149  -6593110.20446         0.00041  21177352.77546  21177350.64349
  -7595658.74248  -5918688.86545         0.00041  22921902.72845  22921900.93748
 02 07 01 20 06 30.0000000  0  7 03 14 15 17 18 21 31
 -12484642.60348  -9728283.94346         0.00041  22054331.43346  22054326.90448
 -22400977.14549 -17455277.35247         0.00041  20485825.76447  20485824.91549
   5882508.70848   4583766.30046         0.00041  22043527.68346  22043523.86348
  10639485.65748   8290494.38345         0.00041  22832520.00145  22832513.40048
   7527559.56848   5865627.66446         0.00041  22222213.18446  22222211.84248
  -8455667.53749  -6588826.18546         0.00041  21178399.24446  21178397.06549
  -7621249.31448  -5938629.57245         0.00041  22917033.90945  22917030.76448
 02 07 01 20 07 00.0000000  0  7 03 14 15 17 18 21 31
 -12442715.77448  -9695613.74046         0.00041  22062309.84546  22062305.90748
 -22438417.47449 -17484451.61347         0.00041  20478701.05847  20478700.35849
   5959984.76548   4644137.17246         0.00041  22058270.71446  22058266.72248
  10726219.93448   8358079.35245         0.00041  22849024.82645  22849019.70248
   7585258.22348   5910587.61046         0.00041  22233192.31646  22233191.46748
  -8450031.44749  -6584434.42946         0.00041  21179471.49646  21179469.42249
  -7646267.13348  -5958123.98445         0.00041  22912273.43045  22912270.67048
 02 07 01 20 07 30.0000000  0  7 03 14 15 17 18 21 31
 -12400309.59948  -9662570.03946         0.00041  22070379.04846  22070375.79048
 -22475331.23649 -17513215.56147         0.00041  20471676.57347  20471675.98049
   6037810.69948   4704780.67446         0.00041  22073080.70446  22073076.71448
  10813272.92348   8425912.65045         0.00041  22865591.39545  22865585.04548
   7643068.47248   5955634.52746         0.00041  22244193.58746  22244192.16348
  -8444258.94449  -6579936.38046         0.00041  21180570.27946  21180568.03449
  -7670713.94048  -5977173.45745         0.00041  22907621.62145  22907618.42048
 02 07 01 20 08 00.0000000  0  7 03 14 15 17 18 21 31
 -12357423.23449  -9629152.15646         0.00041  22078540.34146  22078537.54649
 -22511714.76849 -17541566.34347         0.00041  20464753.00147  20464752.31949
   6115988.77548   4765698.58146         0.00041  22087958.14346  22087953.24448
  10900646.69848   8493995.90745         0.00041  22882214.86245  22882211.76948
   7700993.17048   6000770.61546         0.00041  22255216.85746  22255215.20948
  -8438346.66049  -6575329.41246         0.00041  21181695.41546  21181692.98749
  -7694586.20548  -5995775.20645         0.00041  22903078.94645  22903075.10048
 02 07 01 20 08 30.0000000  0  7 03 14 15 17 18 21 31
 -12314070.59849  -9595370.95746         0.00041  22086790.04146  22086786.96949
 -22547579.85949 -17569513.14447         0.00041  20457928.27147  20457927.45749
   6194506.15148   4826880.87346         0.00041  22102899.68246  22102894.27548
  10988328.10048   8562318.91945         0.00041  22898902.14345  22898897.13348
   7759019.98448   6045986.26746         0.00041  22266258.71646  22266257.21448
  -8432306.64149  -6570622.91046         0.00041  21182844.70646  21182842.39349
  -7717895.41948  -6013938.23645         0.00041  22898644.61345  22898639.74148
 02 07 01 20 09 00.0000000  0  8 03 14 15 17 18 21 25 31
 -12270262.32748  -9561234.71446         0.00041  22095126.60146  22095123.58948
 -22582934.80049 -17597062.43247         0.00041  20451200.31547  20451199.44649
   6273353.65448   4888320.39646         0.00041  22117903.57646  22117899.10548
  11076307.57748   8630874.20744         0.00041  22915645.23744  22915638.34148
   7817140.06348   6091274.59546         0.00041  22277318.67446  22277316.89048
  -8426147.78949  -6565823.80946         0.00041  21184016.89546  21184014.31149
        -0.38757         0.00051         0.00051         0.00051  24945686.30157
  -7740649.65348  -6031668.80245         0.00041  22894313.90545  22894309.43848
 02 07 01 20 09 30.0000000  0  8 03 14 15 17 18 21 25 31
 -12226040.79648  -9526776.44746         0.00041  22103541.37346  22103538.17448
 -22617819.34549 -17624245.17547         0.00041  20444561.92847  20444561.12049
   6352489.89248   4949984.89846         0.00041  22132961.67446  22132958.13948
  11164543.86648   8699629.55744         0.00041  22932435.20044  22932429.43948
   7875313.02148   6136604.12746         0.00041  22288389.17546  22288387.01348
  -8419910.32649  -6560963.45646         0.00041  21185203.73146  21185201.64349
    -96172.28048         0.00041         0.00041         0.00041  24927385.88148
  -7762888.68148  -6048997.91745         0.00041  22890081.09745  22890078.02048
 02 07 01 20 10 00.0000000  0  8 03 14 15 17 18 21 25 31
 -12181395.76548  -9491988.17346         0.00041  22112036.57846  22112033.08648
 -22652221.03349 -17651051.66647         0.00041  20438015.66747  20438014.67849
   6431926.27748   5011883.27846         0.00041  22148078.57746  22148074.67948
  11253048.17348   8768593.78644         0.00041  22949278.31644  22949271.50648
   7933550.87948   6181984.23546         0.00041  22299470.10146  22299469.22548
  -8413581.91049  -6556032.23346         0.00041  21186407.86546  21186405.77949
   -192486.84148         0.00041         0.00041         0.00041  24909056.55148
  -7784599.98848  -6065915.81145         0.00041  22885949.80145  22885946.48348
 02 07 01 20 10 30.0000000  0  8 03 14 15 17 18 21 25 31
 -12136304.01748  -9456851.79846         0.00041  22120617.88846  22120613.63248
 -22686114.58049 -17677462.20447         0.00041  20431565.70447  20431565.11149
   6511686.89848   5074034.30346         0.00041  22163256.94346  22163253.07148
  11341844.38448   8837785.49344         0.00041  22966176.43444  22966169.17448
   7991878.54748   6227434.31346         0.00041  22310570.58746  22310568.56848
  -8407137.44549  -6551010.58146         0.00041  21187634.15346  21187632.30449
   -288916.09848         0.00041         0.00041         0.00041  24890707.36448
  -7805758.00948  -6082402.59345         0.00041  22881921.93245  22881919.60148
 02 07 01 20 11 00.0000000  0  8 03 14 15 17 18 21 25 31
 -12090761.41148  -9421364.11346         0.00041  22129285.67746  22129280.75848
 -22719492.91249 -17703471.27747         0.00041  20425214.21147  20425213.58549
   6591777.76048   5136442.65546         0.00041  22178497.66146  22178493.60948
  11430938.31848   8907209.14544         0.00041  22983129.77044  22983123.84348
   8050302.38148   6272959.33346         0.00041  22321688.13746  22321686.74648
  -8400569.95549  -6545893.06546         0.00041  21188883.84946  21188881.99849
   -385451.20248         0.00041         0.00041         0.00041  24872338.18248
  -7826355.71548  -6098452.74945         0.00041  22878004.18945  22878000.39648
 02 07 01 20 11 30.0000000  0  8 03 14 15 17 18 21 25 31
 -12044781.92948  -9385536.00346         0.00041  22138034.35046  22138030.82248
 -22752368.01549 -17729088.22047         0.00041  20418958.20247  20418957.41849
   6672185.80248   5199098.16646         0.00041  22193798.92546  22193794.98948
  11520316.96848   8976854.65944         0.00041  23000136.08844  23000131.18848
   8108810.32748   6318549.88646         0.00041  22332821.92946  22332819.91248
  -8393891.63749  -6540689.19146         0.00041  21190154.70746  21190152.64649
   -482101.65048         0.00041         0.00041         0.00041  24853945.12248
  -7846404.74848  -6114075.37545         0.00041  22874189.77645  22874185.56248
 02 07 01 20 12 00.0000000  0  8 03 14 15 17 18 21 25 31
 -11998353.61748  -9349358.16146         0.00041  22146869.37846  22146865.98348
 -22784725.61049 -17754301.91347         0.00041  20412800.82747  20412799.96749
   6752924.17648   5262011.09746         0.00041  22209162.70646  22209158.77148
  11609993.06148   9046731.91545         0.00041  23017203.00245  23017196.61748
   8167416.08648   6364216.65346         0.00041  22343974.63646  22343972.47448
  -8387088.23049  -6535387.84846         0.00041  21191449.56346  21191447.34749
   -578851.19048         0.00041         0.00041         0.00041  24835533.29848
  -7865890.83948  -6129259.33846         0.00041  22870480.54746  22870477.00248
 02 07 01 20 12 30.0000000  0  8 03 14 15 17 18 21 25 31
 -11951478.68648  -9312832.31746         0.00041  22155789.70346  22155786.21848
 -22816565.23149 -17779111.99147         0.00041  20406742.00047  20406741.33449
   6833991.97848   5325180.71246         0.00041  22224589.87646  22224585.20348
  11699965.89348   9116840.38845         0.00041  23034323.11245  23034319.31748
   8226119.69148   6409959.66946         0.00041  22355144.56946  22355143.93348
  -8380159.27349  -6529988.67446         0.00041  21192768.03246  21192766.07249
   -675697.15247         0.00041         0.00041         0.00041  24817102.02547
  -7884813.41948  -6144004.20745         0.00041  22866880.52345  22866877.05548
 02 07 01 20 13 00.0000000  0  8 03 14 15 17 18 21 25 31
 -11904183.45448  -9275978.96946         0.00041  22164789.71046  22164786.32348
 -22847910.98149 -17803537.23347         0.00041  20400776.80347  20400776.17949
   6915363.88548   5388587.29946         0.00041  22240075.61446  22240070.72148
  11790210.05448   9187160.30445         0.00041  23051496.84445  23051491.34648
   8284896.59448   6455759.82246         0.00041  22366329.73846  22366328.72448
  -8373129.14249  -6524510.66146         0.00041  21194106.05346  21194103.78649
   -772661.12048         0.00041         0.00041         0.00041  24798652.13148
  -7903196.60148  -6158328.76845         0.00041  22863382.23045  22863378.07648
 02 07 01 20 13 30.0000000  0  8 03 14 15 17 18 21 25 31
 -11856459.16248  -9238791.27446         0.00041  22173871.82646  22173867.62548
 -22878751.84649 -17827569.06247         0.00041  20394907.91847  20394907.09349
   6997050.36548   5452238.99546         0.00041  22255619.56946  22255615.35848
  11880735.13948   9257699.13144         0.00041  23068725.00944  23068718.64148
   8343757.65348   6501625.53546         0.00041  22377530.89546  22377529.41248
  -8365986.52849  -6518944.99946         0.00041  21195465.04146  21195462.89549
   -869729.86147         0.00041         0.00041         0.00041  24780181.78047
  -7921029.02448  -6172224.16145         0.00041  22859988.69545  22859984.17548
 02 07 01 20 14 00.0000000  0  7 03 14 15 17 18 21 31
 -11808295.31248  -9201261.06646         0.00041  22183036.89046  22183032.21648
 -22909074.81749 -17851197.33847         0.00041  20389137.81547  20389137.02549
   7079062.86048   5516144.72846         0.00041  22271225.75146  22271221.61948
  11971553.00748   9328466.07944         0.00041  23086007.34144  23086000.32448
   8402715.38648   6547566.56246         0.00041  22388751.08146  22388748.89348
  -8358718.92949  -6513281.94746         0.00041  21196848.25546  21196845.63949
  -7938297.87248  -6185680.41745         0.00041  22856701.32445  22856698.14348
 02 07 01 20 14 30.0000000  0  7 03 14 15 17 18 21 31
 -11759672.76948  -9163373.42746         0.00041  22192289.26946  22192284.18448
 -22938858.37249 -17874405.28547         0.00041  20383470.19547  20383469.39349
   7161421.69348   5580320.31646         0.00041  22286897.91446  22286894.34148
  12062683.72848   9399476.84444         0.00041  23103346.79344  23103341.96248
   8461790.96448   6593599.42546         0.00041  22399992.24546  22399990.64248
  -8351304.81049  -6507504.71646         0.00041  21198258.83146  21198256.53349
  -7954981.55048  -6198680.69145         0.00041  22853527.40045  22853524.20348
 02 07 01 20 15 00.0000000  0  7 03 14 15 17 18 21 31
 -11710584.30048  -9125122.72346         0.00041  22201629.92846  22201625.79348
 -22968093.46449 -17897185.85847         0.00041  20377906.83247  20377906.19849
   7244135.31348   5644772.37446         0.00041  22302638.71046  22302633.96448
  12154135.64648   9470737.89944         0.00041  23120751.65944  23120745.26248
   8520993.57748   6639731.28446         0.00041  22411258.21546  22411256.25748
  -8343734.93449  -6501606.12146         0.00041  21199699.49746  21199697.32849
  -7971070.60048  -6211217.61845         0.00041  22850465.98745  22850461.42648
 02 07 01 20 15 30.0000000  0  7 03 14 15 17 18 21 31
 -11661056.77048  -9086529.90846         0.00041  22211054.66146  22211051.42148
 -22996804.36149 -17919557.97047         0.00041  20372443.40247  20372442.74149
   7327177.96948   5709480.83646         0.00041  22318441.32246  22318435.49348
  12245882.76748   9542228.91844         0.00041  23138210.16344  23138204.14848
   8580298.56748   6685942.91546         0.00041  22422543.76946  22422542.25748
  -8336033.15349  -6495604.74246         0.00041  21201164.92446  21201162.65349
  -7986589.36948  -6223310.16945         0.00041  22847511.83445  22847508.98748
 02 07 01 20 16 00.0000000  0  7 03 14 15 17 18 21 31
 -11611130.99648  -9047626.77546         0.00041  22220554.97146  22220551.79348
 -23025029.44749 -17941551.52647         0.00041  20367072.24047  20367071.60949
   7410510.13148   5774414.88346         0.00041  22334298.72146  22334293.35648
  12337885.75948   9613919.31944         0.00041  23155719.15544  23155711.45548
   8639667.32248   6732204.23246         0.00041  22433841.10446  22433839.73648
  -8328238.12249  -6489530.70046         0.00041  21202648.08246  21202646.15049
  -8001576.17948  -6234988.21245         0.00041  22844660.07645  22844657.51248
 02 07 01 20 16 30.0000000  0  7 03 14 15 17 18 21 31
 -11560799.87448  -9008407.79246         0.00041  22230133.37446  22230130.28448
 -23052759.28949 -17963159.18047         0.00041  20361795.24247  20361794.74849
   7494140.38648   5839581.21446         0.00041  22350213.12246  22350208.06848
  12430152.55748   9685815.30345         0.00041  23173278.62145  23173269.43848
   8699108.99648   6778522.36546         0.00041  22445151.82746  22445151.29748
  -8320340.06649  -6483376.38346         0.00041  21204151.25846  21204149.12149
  -8016021.70248  -6246244.47145         0.00041  22841910.31645  22841907.90348
 02 07 01 20 17 00.0000000  0  7 03 14 15 17 18 21 31
 -11510075.76348  -8968882.59946         0.00041  22239785.96446  22239783.17448
 -23080003.80149 -17984388.65847         0.00041  20356610.76747  20356610.28849
   7578057.95048   5904971.43546         0.00041  22366182.35646  22366177.58348
  12522672.21748   9757908.31344         0.00041  23190885.28144  23190875.35248
   8758613.57148   6824889.51946         0.00041  22456475.48646  22456474.09448
  -8312348.98849  -6477149.57646         0.00041  21205671.72246  21205669.64449
  -8029935.71148  -6257086.58345         0.00041  22839263.23245  22839261.74448
 02 07 01 20 17 30.0000000  0  8 03 14 15 17 18 21 25 31
 -11458927.09448  -8929026.57446         0.00041  22249519.92246  22249516.74848
 -23106729.51149 -18005213.86947         0.00041  20351525.33447  20351524.54549
   7662295.07348   5970610.64146         0.00041  22382212.11446  22382207.27948
  12615477.10548   9830223.58445         0.00041  23208544.68845  23208535.75248
   8818214.37148   6871331.63846         0.00041  22467818.06846  22467815.76748
  -8304231.03649  -6470823.91146         0.00041  21207216.72946  21207214.55849
         0.04158         0.75251         0.00051         0.00051  24631850.09058
  -8043284.57748  -6267488.29345         0.00041  22836721.57945  22836721.02448
 02 07 01 20 18 00.0000000  0  8 03 14 15 17 18 21 25 31
 -11407359.80248  -8888844.34446         0.00041  22259332.66546  22259329.49848
 -23132940.27649 -18025637.82447         0.00041  20346537.74747  20346536.90949
   7746847.10848   6036495.23846         0.00041  22398302.35546  22398297.14948
  12708562.31848   9902757.25144         0.00041  23226255.77744  23226249.08348
   8877907.69948   6917845.86146         0.00041  22479176.56246  22479175.27548
  -8295989.54349  -6464401.98146         0.00041  21208784.95946  21208782.79449
    -97818.07548         0.00041         0.00041         0.00041  24613234.80148
  -8056071.86048  -6277452.42745         0.00041  22834289.03445  22834287.37248
 02 07 01 20 18 30.0000000  0  8 03 14 15 17 18 21 25 31
 -11355381.46848  -8848341.81746         0.00041  22269223.68346  22269219.94848
 -23158640.67249 -18045664.09247         0.00041  20341646.69247  20341646.12149
   7831707.85548   6102620.36546         0.00041  22414450.98846  22414445.43048
  12801921.95648   9975504.79544         0.00041  23244022.19044  23244013.99848
   8937688.66348   6964428.38346         0.00041  22490552.57846  22490551.01048
  -8287629.85449  -6457887.95346         0.00041  21210376.18846  21210373.55049
   -195711.24248         0.00041         0.00041         0.00041  24594606.32948
  -8068302.52848  -6286982.81545         0.00041  22831963.03945  22831960.00148
 02 07 01 20 19 00.0000000  0  8 03 14 15 17 18 21 25 31
 -11302966.61748  -8807499.14246         0.00041  22279198.42646  22279194.16048
 -23183803.35549 -18065271.36147         0.00041  20336858.31747  20336857.74249
   7916904.12348   6169006.94546         0.00041  22430663.24546  22430658.27048
  12895582.20248  10048486.54144         0.00041  23261844.88044  23261837.94748
   8997584.61448   7011100.51246         0.00041  22501950.64246  22501949.33748
  -8279123.66349  -6451259.76746         0.00041  21211994.58946  21211992.30649
   -293649.39248         0.00041         0.00041         0.00041  24575969.41248
  -8079948.95348  -6296057.96645         0.00041  22829746.94945  22829743.59748
 02 07 01 20 19 30.0000000  0  8 03 14 15 17 18 21 25 31
 -11250113.13848  -8766314.67846         0.00041  22289256.24546  22289251.77748
 -23208423.85449 -18084456.14647         0.00041  20332173.33847  20332172.73349
   8002439.34248   6235657.67745         0.00041  22446939.07945  22446934.93548
  12989546.31548  10121705.07844         0.00041  23279727.48444  23279718.79748
   9057599.88848   7057865.60446         0.00041  22513371.72946  22513369.29548
  -8270466.48249  -6444513.92146         0.00041  21213642.09846  21213639.70349
   -391625.04548         0.00041         0.00041         0.00041  24557326.27348
  -8091006.74348  -6304674.44745         0.00041  22827644.12745  22827638.87948
 02 07 01 20 20 00.0000000  0  8 03 14 15 17 18 21 25 31
 -11196851.78348  -8724812.39346         0.00041  22299390.98246  22299387.26348
 -23232530.63649 -18103240.63247         0.00041  20327586.18947  20327585.63849
   8088284.24248   6302549.70645         0.00041  22463275.90345  22463270.53148
  13083784.76148  10195137.40344         0.00041  23297662.48144  23297653.04948
   9117706.12848   7104701.60046         0.00041  22524809.03246  22524807.73648
  -8261686.14849  -6437672.11146         0.00041  21215312.62446  21215310.68449
   -489664.04948         0.00041         0.00041         0.00041  24538671.22648
  -8101504.08148  -6312854.14845         0.00041  22825644.61345  22825641.31248
 02 07 01 20 20 30.0000000  0  8 03 14 15 17 18 21 25 31
 -11143178.47648  -8682989.11546         0.00041  22309604.55946  22309601.21048
 -23256117.10549 -18121619.68147         0.00041  20323097.70347  20323097.04849
   8174444.04548   6369687.10745         0.00041  22479670.35245  22479665.79648
  13178302.95448  10268787.62444         0.00041  23315644.12944  23315640.06048
   9177909.65448   7151613.39146         0.00041  22536266.26646  22536263.89648
  -8252775.79049  -6430728.98346         0.00041  21217008.32346  21217006.06649
   -587757.66648         0.00041         0.00041         0.00041  24520003.16548
  -8111434.79148  -6320592.37045         0.00041  22823755.79245  22823751.69348
 02 07 01 20 21 00.0000000  0  8 03 14 15 17 18 21 25 31
 -11089117.58348  -8640863.83646         0.00041  22319892.26646  22319889.22248
 -23279205.73149 -18139610.80047         0.00041  20318703.87347  20318703.24249
   8260895.47248   6437051.74845         0.00041  22496122.67245  22496116.76548
  13273077.36648  10342637.53944         0.00041  23333683.06644  23333675.20548
   9238188.55448   7198583.91046         0.00041  22547736.93146  22547734.57948
  -8243757.71949  -6423701.92646         0.00041  21218724.25446  21218722.40349
   -685925.21848         0.00041         0.00041         0.00041  24501322.57248
  -8120820.98248  -6327906.30345         0.00041  22821969.63045  22821966.51648
 02 07 01 20 21 30.0000000  0  8 03 14 15 17 18 21 25 31
 -11034692.72048  -8598454.94146         0.00041  22330249.10146  22330246.21948
 -23301817.75049 -18157230.53447         0.00041  20314401.16647  20314400.45349
   8347616.22148   6504626.23245         0.00041  22512625.65945  22512619.62448
  13368085.29848  10416669.41944         0.00041  23351762.93444  23351753.25448
   9298521.35548   7245596.43846         0.00041  22559217.46646  22559215.33448
  -8234652.66449  -6416607.09046         0.00041  21220456.99946  21220454.89949
   -784185.54648         0.00041         0.00041         0.00041  24482624.43548
  -8129684.05848  -6334812.61245         0.00041  22820282.44945  22820279.34348
 02 07 01 20 22 00.0000000  0  8 03 14 15 17 18 21 25 31
 -10979905.26048  -8555763.50946         0.00041  22340674.56146  22340671.20248
 -23323952.43049 -18174478.31947         0.00041  20310189.11847  20310188.43149
   8434606.16648   6572410.48345         0.00041  22529178.39845  22529173.36148
  13463326.67148  10490883.21844         0.00041  23369888.16544  23369877.24348
   9358908.99148   7292651.68446         0.00041  22570709.61446  22570706.93748
  -8225459.53949  -6409443.62646         0.00041  21222206.49546  21222204.64649
   -882534.63048         0.00041         0.00041         0.00041  24463907.40748
  -8138023.22948  -6341310.68845         0.00041  22818695.13245  22818692.56648
 02 07 01 20 22 30.0000000  0  8 03 14 15 17 18 21 25 31
 -10924720.24048  -8512762.28946         0.00041  22351175.81046  22351172.62548
 -23345572.56849 -18191325.16747         0.00041  20306074.64947  20306073.97049
   8521901.55448   6640432.75345         0.00041  22545791.28245  22545785.94648
  13558837.79648  10565307.22044         0.00041  23388060.29044  23388053.80948
   9419388.91148   7339778.85346         0.00041  22582217.56746  22582216.04248
  -8216140.48649  -6402182.03446         0.00041  21223979.87246  21223977.68249
   -980932.70648         0.00041         0.00041         0.00041  24445181.82748
  -8145801.07048  -6347371.37045         0.00041  22817215.94645  22817211.94048
 02 07 01 20 23 00.0000000  0  8 03 14 15 17 18 21 25 31
 -10869138.37448  -8469451.82246         0.00041  22361753.01146  22361749.41148
 -23366676.74149 -18207769.96747         0.00041  20302058.76047  20302058.12249
   8609503.06148   6708693.55345         0.00041  22562460.66145  22562455.73148
  13654618.91948  10639941.60944         0.00041  23406288.01244  23406281.23348
   9479962.49348   7386978.99946         0.00041  22593744.89746  22593743.32048
  -8206693.47049  -6394820.73546         0.00041  21225777.65046  21225775.46049
  -1079375.85348         0.00041         0.00041         0.00041  24426449.72048
  -8153016.26948  -6352993.62445         0.00041  22815841.63145  22815838.56148
 02 07 01 20 23 30.0000000  0  8 03 14 15 17 18 21 25 31
 -10813179.72348  -8425847.75946         0.00041  22372401.89846  22372397.55248
 -23387282.51849 -18223826.40147         0.00041  20298137.52147  20298136.81949
   8697391.92848   6777178.27445         0.00041  22579185.48245  22579179.89848
  13750651.40048  10714771.81144         0.00041  23424559.38744  23424555.59048
   9540612.64748   7434238.81146         0.00041  22605285.95546  22605284.09048
  -8197136.27549  -6387373.58046         0.00041  21227596.46846  21227594.28449
  -1177878.65748   -917823.45041         0.00041         0.00041  24407703.33748
  -8159686.45848  -6358191.18445         0.00041  22814573.42245  22814569.65848
 02 07 01 20 24 00.0000000  0  8 03 14 15 17 18 21 25 31
 -10756834.15248  -8381942.20346         0.00041  22383125.04946  22383119.77448
 -23407377.63349 -18239484.91647         0.00041  20294313.70547  20294312.99749
   8785579.78348   6845895.94646         0.00041  22595966.69146  22595962.39448
  13846946.41048  10789806.55244         0.00041  23442887.61844  23442880.11848
   9601351.61848   7481567.82146         0.00041  22616844.61146  22616841.83948
  -8187455.64549  -6379830.24146         0.00041  21229438.34246  21229436.11449
  -1276425.70748         0.00041         0.00041         0.00041  24388949.47048
  -8165799.28148  -6362954.43345         0.00041  22813410.53945  22813406.34448
 02 07 01 20 24 30.0000000  0  8 03 14 15 17 18 21 25 31
 -10700096.17148  -8337730.87346         0.00041  22393921.98446  22393917.27548
 -23426954.67249 -18254739.73847         0.00041  20290588.16347  20290587.53249
   8874072.96548   6914851.54245         0.00041  22612806.94545  22612801.53048
  13943510.35648  10865050.87644         0.00041  23461262.50944  23461255.43048
   9662186.89648   7528971.88546         0.00041  22628420.47546  22628419.29348
  -8177643.63149  -6372184.52546         0.00041  21231305.91046  21231303.19549
  -1375006.57648         0.00041         0.00041         0.00041  24370192.25548
  -8171347.41248  -6367277.68045         0.00041  22812355.50945  22812350.67548
 02 07 01 20 25 00.0000000  0  8 03 14 15 17 18 21 25 31
 -10642961.99148  -8293210.81446         0.00041  22404793.33846  22404790.05948
 -23446007.54149 -18269586.11047         0.00041  20286962.40947  20286961.86349
   8962876.82948   6984049.22945         0.00041  22629705.58645  22629700.85148
  14040348.35548  10940508.75844         0.00041  23479691.73844  23479682.30548
   9723125.06948   7576456.13045         0.00041  22640016.48845  22640015.43448
  -8167693.21049  -6364430.96446         0.00041  21233199.42646  21233196.81249
  -1473612.55948         0.00041         0.00041         0.00041  24351427.30248
  -8176324.76548  -6371156.14446         0.00041  22811408.01846  22811403.67348
 02 07 01 20 25 30.0000000  0  8 03 14 15 17 18 21 25 31
 -10585453.99148  -8248399.46946         0.00041  22415737.61746  22415733.89148
 -23464556.23849 -18284039.62147         0.00041  20283432.56147  20283432.15849
   9051970.03348   7053472.39445         0.00041  22646659.53845  22646655.34248
  14137439.19648  11016163.65544         0.00041  23498169.44844  23498159.76748
   9784146.19048   7624005.00746         0.00041  22651629.34846  22651627.57848
  -8157624.27649  -6356585.04946         0.00041  21235115.02846  21235112.94949
  -1572260.69348         0.00041         0.00041         0.00041  24332654.64448
  -8180751.34748  -6374605.44446         0.00041  22810566.91446  22810560.87248
 02 07 01 20 26 00.0000000  0  8 03 14 15 17 18 21 25 31
 -10527567.22848  -8203293.00146         0.00041  22426752.42646  22426749.10348
 -23482593.31749 -18298094.46947         0.00041  20280000.42547  20279999.89649
   9141359.31648   7123126.23746         0.00041  22663671.21046  22663665.15048
  14234789.16748  11092020.48044         0.00041  23516695.89144  23516685.21748
   9845258.01148   7671624.54746         0.00041  22663258.18546  22663255.69048
  -8147428.86449  -6348640.58146         0.00041  21237055.48846  21237053.32749
  -1670941.07548  -1302026.25441         0.00041         0.00041  24313877.29948
  -8184619.83948  -6377619.86646         0.00041  22809829.25946  22809824.66348
 02 07 01 20 26 30.0000000  0  8 03 14 15 17 18 21 25 31
 -10469323.45948  -8157908.33246         0.00041  22437835.95046  22437832.02748
 -23500138.93449 -18311766.36247         0.00041  20276661.29047  20276660.90049
   9231024.25348   7192994.84845         0.00041  22680734.04745  22680728.10948
  14332377.52248  11168063.04844         0.00041  23535263.18944  23535255.57948
   9906441.04848   7719299.56445         0.00041  22674900.87945  22674898.91248
  -8137126.36849  -6340612.67346         0.00041  21239016.19946  21239013.61549
  -1769670.24048  -1378957.77444         0.00041  24295096.60244  24295088.16348
  -8187950.13948  -6380214.92446         0.00041  22809195.56946  22809191.62248
 02 07 01 20 27 00.0000000  0  8 03 14 15 17 18 21 25 31
 -10410735.84548  -8112255.73046         0.00041  22448985.04546  22448981.00948
 -23517203.99949 -18325063.79647         0.00041  20273414.32247  20273413.71649
   9320952.46348   7263068.64346         0.00041  22697846.14246  22697842.15148
  14430192.06548  11244281.86844         0.00041  23553874.23444  23553868.58148
   9967684.38648   7767021.58546         0.00041  22686555.43846  22686553.33948
  -8126727.36249  -6332509.56846         0.00041  21240994.71146  21240992.51449
  -1868456.15148         0.00041         0.00041         0.00041  24276289.23748
  -8190753.39448  -6382399.29246         0.00041  22808661.74946  22808658.33248
 02 07 01 20 27 30.0000000  0  8 03 14 15 17 18 21 25 31
 -10351764.13748  -8066303.83546         0.00041  22460206.71746  22460202.95148
 -23533745.97949 -18337953.63747         0.00041  20270266.37547  20270265.87249
   9411185.76448   7333380.16945         0.00041  22715017.12645  22715012.71648
  14528274.50548  11320709.41644         0.00041  23572542.67244  23572532.49548
  10029031.22848   7814824.26845         0.00041  22698228.80545  22698227.77748
  -8116188.10149  -6324297.16646         0.00041  21243000.32446  21242997.96949
  -1967253.09348  -1532917.78544         0.00041  24257496.39244  24257488.86248
  -8192987.07948  -6384139.83545         0.00041  22808236.64045  22808232.38648
 02 07 01 20 28 00.0000000  0  8 03 14 15 17 18 21 25 31
 -10292443.46048  -8020080.01246         0.00041  22471496.42146  22471491.69948
 -23549797.80849 -18350461.54147         0.00041  20267211.80847  20267211.27249
   9501690.34748   7403903.03845         0.00041  22732238.43445  22732234.68548
  14626590.86148         0.00041         0.00041         0.00041  23591241.04448
  10090448.81948   7862682.09845         0.00041  22709917.88245  22709914.88948
  -8105540.39649  -6316000.26946         0.00041  21245026.57246  21245024.14849
  -2066091.13148  -1609934.11944         0.00041  24238690.84844  24238681.16848
  -8194684.16448  -6385462.25445         0.00041  22807913.72445  22807910.27648
 02 07 01 20 28 30.0000000  0  8 03 14 15 17 18 21 25 31
 -10232740.80648  -7973558.54546         0.00041  22482856.85546  22482852.85448
 -23565324.25849 -18362560.05447         0.00041  20264257.28047  20264256.78449
   9592500.51548   7474664.04645         0.00041  22749521.23045  22749516.00148
  14725175.28848         0.00041         0.00041         0.00041  23610002.87648
  10151972.70748   7910622.71646         0.00041  22721625.26746  22721622.25248
  -8094748.49549  -6307591.00746         0.00041  21247080.15046  21247077.77749
  -2164932.04448  -1686952.69344         0.00041  24219882.24044  24219873.05648
  -8195809.63248  -6386339.26445         0.00041  22807699.94745  22807695.50548
 02 07 01 20 29 00.0000000  0  8 03 14 15 17 18 21 25 31
 -10172645.32748  -7926730.98946         0.00041  22494293.12946  22494288.92248
 -23580312.56649 -18374239.23947         0.00041  20261404.93747  20261404.52349
   9683628.33448   7545672.60245         0.00041  22766861.88145  22766855.92148
  14824039.57848  11551174.73144         0.00041  23628823.51044  23628816.51248
  10213616.11948   7958656.49645         0.00041  22733356.04545  22733353.48948
  -8083799.08149  -6299059.01246         0.00041  21249163.81446  21249161.46849
  -2263759.99148  -1763961.16844         0.00041  24201077.39244  24201067.21548
  -8196350.75148  -6386760.93445         0.00041  22807598.34445  22807592.62348
 02 07 01 20 29 30.0000000  0  8 03 14 15 17 18 21 25 31
 -10112185.82048  -7879619.77946         0.00041  22505798.20246  22505793.99548
 -23594789.28449 -18385519.78047         0.00041  20258649.98447  20258649.62149
   9775046.41548   7616907.32945         0.00041  22784259.93345  22784252.29848
  14923156.34048  11628408.22744         0.00041  23647687.68444  23647677.75548
  10275353.16648   8006763.24545         0.00041  22745102.39445  22745100.98848
  -8072717.97649  -6290424.39646         0.00041  21251272.28646  21251270.31949
  -2362598.28748  -1840977.69844         0.00041  24182268.85144  24182258.67448
  -8196334.09448  -6386747.97045         0.00041  22807599.81545  22807596.38648
 02 07 01 20 30 00.0000000  0  8 03 14 15 17 18 21 25 31
 -10051352.71648  -7832217.44946         0.00041  22517374.43846  22517370.08848
 -23608742.87149 -18396392.68747         0.00041  20255994.78647  20255994.48249
   9866765.49948   7688376.58345         0.00041  22801713.02745  22801705.68748
  15022536.23948  11705846.75844         0.00041  23666598.20244  23666590.01148
  10337195.86348   8054952.30445         0.00041  22756871.44545  22756869.29848
  -8061492.93649  -6281677.62646         0.00041  21253408.58246  21253406.08349
  -2461432.20548  -1917990.81844         0.00041  24163458.47444  24163450.28248
  -8195748.03148  -6386291.31545         0.00041  22807711.37645  22807707.16948
 02 07 01 20 30 30.0000000  0  8 03 14 15 17 18 21 25 31
  -9990149.93648  -7784527.05746         0.00041  22529021.21446  22529016.67048
 -23622175.25549 -18406859.46247         0.00041  20253438.61547  20253438.23649
   9958783.07948   7760078.44945         0.00041  22819222.55445  22819216.62348
  15122176.34048  11783488.08544         0.00041  23685562.29444  23685550.87648
  10399142.71148   8103222.54045         0.00041  22768660.41345  22768657.35648
  -8050124.45449  -6272819.08146         0.00041  21255572.18646  21255569.81149
  -2560260.25848         0.00041         0.00041         0.00041  24144642.28948
  -8194594.63148  -6385392.59145         0.00041  22807931.11045  22807926.17048
 02 07 01 20 31 00.0000000  0  8 03 14 15 17 18 21 25 31
  -9928629.32248  -7736589.01446         0.00041  22540727.78546  22540723.83148
 -23635135.84449 -18416958.60647         0.00041  20250972.31247  20250971.85249
  10051048.77648   7831973.63945         0.00041  22836779.57145  22836774.45048
  15222025.93248         0.00041         0.00041         0.00041  23704552.04648
  10461144.78248   8151535.81145         0.00041  22780457.39745  22780455.73848
  -8038661.51249  -6263886.93346         0.00041  21257753.38746  21257751.05249
  -2659129.11248  -2072039.71944         0.00041  24125837.59044  24125827.41348
  -8192923.58948  -6384090.48745         0.00041  22808248.66245  22808243.99848
 02 07 01 20 31 30.0000000  0  8 03 14 15 17 18 21 25 31
  -9866800.28448  -7688410.62546         0.00041  22552494.41146  22552489.21448
 -23647632.11549 -18426695.94647         0.00041  20248594.35047  20248593.84849
  10143554.41248   7904055.79345         0.00041  22854382.87045  22854377.90648
  15322077.09948  11939254.21344         0.00041  23723600.05344  23723592.72348
  10523195.04348   8199886.58845         0.00041  22792265.94045  22792263.46248
  -8027110.47049  -6254886.13846         0.00041  21259951.37446  21259949.03049
  -2758043.09748  -2149115.22644         0.00041  24107012.69544  24107003.26348
  -8190742.46448  -6382390.92845         0.00041  22808663.65345  22808660.21148
 02 07 01 20 32 00.0000000  0  8 03 14 15 17 18 21 25 31
  -9804647.05148  -7639979.62346         0.00041  22564321.49646  22564316.31748
 -23659646.22749 -18436057.57747         0.00041  20246308.34147  20246307.61449
  10236317.32148   7976338.42045         0.00041  22872035.84845  22872031.12748
  15422346.73148  12017386.02544         0.00041  23742679.43744  23742673.47548
  10585312.35148   8248289.63145         0.00041  22804086.75645  22804084.07248
  -8015452.75749  -6245802.22446         0.00041  21262169.58946  21262167.43849
  -2856980.92648  -2226209.34144         0.00041  24088187.88444  24088176.96248
  -8188033.18848  -6380279.83045         0.00041  22809180.10045  22809176.32848
 02 07 01 20 32 30.0000000  0  7 03 14 15 17 18 21 25
  -9742167.86448  -7591294.61946         0.00041  22576209.84646  22576204.38048
 -23671174.39849 -18445040.55447         0.00041  20244114.52047  20244114.17049
  10329340.24448   8048823.63245         0.00041  22889737.32145  22889733.00848
  15522837.68148         0.00041         0.00041         0.00041  23761795.99148
  10647500.53248   8296747.90646         0.00041  22815921.43746  22815919.15248
  -8003683.02149  -6236631.01646         0.00041  21264409.23446  21264407.16549
  -2955935.59448         0.00041         0.00041         0.00041  24069345.88548
 02 07 01 20 33 00.0000000  0  7 03 14 15 17 18 21 25
  -9679348.63748  -7542344.66946         0.00041  22588164.57546  22588159.71048
 -23682200.53349 -18453632.33647         0.00041  20242016.16747  20242015.75349
  10422638.55148   8121523.42645         0.00041  22907491.41345  22907486.18548
  15623565.15748         0.00041         0.00041         0.00041  23780961.57848
  10709776.56348   8345274.64645         0.00041  22827770.90845  22827769.63948
  -7991785.17349  -6227359.97546         0.00041  21266673.32846  21266671.49449
  -3054887.65848         0.00041         0.00041         0.00041  24050514.84248
 02 07 01 20 33 30.0000000  0  8 03 11 14 15 17 18 21 25
  -9616179.04048  -7493121.69746         0.00041  22600185.38646  22600181.18548
        -0.22958        -0.06351         0.00051         0.00051  25323859.91358
 -23692712.03049 -18461823.10147         0.00041  20240016.07147  20240015.52549
  10516224.16248   8194447.13445         0.00041  22925301.00645  22925295.40848
  15724540.79948  12252860.88544         0.00041  23800188.68744  23800177.76548
  10772153.67748   8393880.13945         0.00041  22839641.91945  22839639.18348
  -7979745.32349  -6217978.29046         0.00041  21268964.64446  21268962.59649
  -3153820.66648  -2457512.14544         0.00041  24031699.12844  24031689.19948
 02 07 01 20 34 00.0000000  0  7 03 14 15 17 18 21 25
  -9552658.04048  -7443624.90546         0.00041  22612272.60346  22612269.57148
 -23702705.92249 -18469610.53347         0.00041  20238114.42247  20238113.68549
  10610099.16048   8267596.33645         0.00041  22943165.52145  22943159.65748
  15825766.79948  12331737.91241         0.00041         0.00041  23819443.05048
  10834635.89848   8442567.51845         0.00041  22851532.52445  22851529.37648
  -7967559.19449  -6208482.61646         0.00041  21271283.65146  21271281.37649
  -3252728.89948         0.00041         0.00041         0.00041  24012867.41648
 02 07 01 20 34 30.0000000  0  8 03 11 14 15 17 18 21 25
  -9488804.20948  -7393868.77746         0.00041  22624423.54146  22624420.42048
        -0.23157         0.00051         0.00051         0.00051  25284879.48657
 -23712198.77249 -18477007.54947         0.00041  20236307.67747  20236307.25349
  10704246.39648   8340957.64345         0.00041  22961080.91945  22961074.94548
  15927225.76148         0.00041         0.00041         0.00041  23838750.71348
  10897206.87148   8491324.06345         0.00041  22863438.60745  22863436.45848
  -7955242.23449  -6198884.99846         0.00041  21273627.59146  21273624.99449
  -3351625.33648  -2611644.99445         0.00041  23994057.83945  23994048.65548
 02 07 01 20 35 00.0000000  0  8 03 11 14 15 17 18 21 25
  -9424627.64548  -7343861.16946         0.00041  22636636.20946  22636632.95748
   -102400.69347         0.00041         0.00041         0.00041  25265394.09047
 -23721198.94849 -18484020.66347         0.00041  20234594.79347  20234594.38349
  10798656.95148   8414524.14145         0.00041  22979047.12545  22979040.86648
  16028908.68848  12490029.55344         0.00041  23858107.40744  23858100.82648
  10959858.87948   8540143.74945         0.00041  22875361.19245  22875359.08548
  -7942801.90449  -6189191.24746         0.00041  21275994.88346  21275992.32949
  -3450514.99548  -2688701.54945         0.00041  23975238.39145  23975230.84148
 02 07 01 20 35 30.0000000  0  8 03 11 14 15 17 18 21 25
  -9360123.65548  -7293598.42446         0.00041  22648911.16446  22648907.47748
   -204779.35547         0.00041         0.00041         0.00041  25245913.09647
 -23729699.55349 -18490644.50047         0.00041  20232977.26547  20232976.75149
  10893336.72848   8488300.41145         0.00041  22997063.62045  22997058.40348
  16130821.26348  12569441.55541         0.00041         0.00041  23877494.00348
  11022599.72748   8589032.66045         0.00041  22887299.67945  22887298.02348
  -7930230.43149  -6179395.30646         0.00041  21278387.05546  21278384.99449
  -3549387.81048  -2765744.97545         0.00041  23956423.34045  23956415.73348
 02 07 01 20 36 00.0000000  0  8 03 11 14 15 17 18 21 25
  -9295270.27648  -7243063.43146         0.00041  22661253.00846  22661248.97448
   -307109.31947         0.00041         0.00041         0.00041  25226439.40347
 -23737676.42449 -18496860.23247         0.00041  20231459.23547  20231458.70949
  10988309.41648   8562304.93445         0.00041  23015136.95045  23015130.86448
  16232986.98248  12649050.80041         0.00041         0.00041  23896935.32248
  11085454.38948   8638010.25345         0.00041  22899260.88545  22899258.68648
  -7917502.14749  -6169477.16846         0.00041  21280809.22646  21280806.97149
  -3648216.08448  -2842753.69645         0.00041  23937618.41445  23937609.72648
 02 07 01 20 36 30.0000000  0  8 03 11 14 15 17 18 21 25
  -9230139.02148  -7192311.90246         0.00041  22673647.04346  22673642.80848
   -409457.54847         0.00041         0.00041         0.00041  25206962.73247
 -23745199.24349 -18502722.15447         0.00041  20230027.89847  20230027.56449
  11083504.51148   8636482.73345         0.00041  23033253.05545  23033245.73048
  16335335.22748         0.00041         0.00041         0.00041  23916410.49648
  11148354.07948   8687022.94745         0.00041  22911230.20245  22911228.73348
  -7904685.91649  -6159490.50546         0.00041  21283247.86346  21283245.70149
  -3747065.91448  -2919779.24445         0.00041  23918807.41945  23918798.73248
 02 07 01 20 37 00.0000000  0  8 03 11 14 15 17 18 21 25
  -9164736.60648  -7141349.07346         0.00041  22686092.24846  22686087.78748
   -511826.21047         0.00041         0.00041         0.00041  25187481.85847
 -23752272.70449 -18508233.92647         0.00041  20228681.79547  20228681.55649
  11178916.54448   8710829.60345         0.00041  23051410.82345  23051401.63948
  16437860.45548         0.00041         0.00041         0.00041  23935919.74948
  11211294.89848   8736067.67245         0.00041  22923207.76345  22923205.99248
  -7891785.18249  -6149437.99346         0.00041  21285702.94546  21285700.64149
  -3845938.62848  -2996822.61845         0.00041  23899991.11645  23899983.48748
 02 07 01 20 37 30.0000000  0  7 03 14 15 17 18 21 25
  -9099035.11048  -7090153.18846         0.00041  22698596.40746  22698590.28848
 -23758866.72449 -18513372.11247         0.00041  20227427.05247  20227426.77049
  11274574.93248   8785368.43045         0.00041  23069611.96545  23069604.81348
  16540591.76448         0.00041         0.00041         0.00041  23955469.24448
  11274306.99648   8785167.94345         0.00041  22935198.48045  22935196.54048
  -7878768.59849  -6139295.21046         0.00041  21288180.27446  21288177.81049
  -3944800.93548  -3073857.87645         0.00041  23881179.60445  23881170.42048
 02 07 01 20 38 00.0000000  0  8 03 11 14 15 17 18 21 25
  -9033007.73548  -7038703.38146         0.00041  22711161.15446  22711155.01648
         0.25657         0.00051         0.00051         0.00051  25148532.81357
 -23764952.82049 -18518114.50947         0.00041  20226268.67447  20226268.32949
  11370507.79948   8860121.13445         0.00041  23087867.11445  23087860.86148
  16643557.39348         0.00041         0.00041         0.00041  23975065.21248
  11337420.27948   8834347.08445         0.00041  22947208.72745  22947207.32948
  -7865605.87049  -6129038.54546         0.00041  21290685.04046  21290682.44649
  -4043620.45548  -3150859.81045         0.00041  23862376.75145  23862365.33348
 02 07 01 20 38 30.0000000  0  8 03 11 14 15 17 18 21 25
  -8966641.78948  -6986989.76146         0.00041  22723790.08346  22723784.17548
   -102251.39948         0.00041         0.00041         0.00041  25129074.82448
 -23770515.99749 -18522449.43647         0.00041  20225210.11747  20225209.67249
  11466729.16148   8935098.61045         0.00041  23106177.89645  23106171.72248
  16746771.22148         0.00041         0.00041         0.00041  23994708.31948
  11400650.48048   8883617.30345         0.00041  22959242.20545  22959239.83348
  -7852281.65949  -6118656.05946         0.00041  21293220.61846  21293217.82649
  -4142378.99948  -3227814.22545         0.00041  23843580.04745  23843570.86348
 02 07 01 20 39 00.0000000  0  8 03 11 14 15 17 18 21 25
  -8899959.15648  -6935029.35646         0.00041  22736478.75846  22736473.85948
   -204459.20248         0.00041         0.00041         0.00041  25109625.83048
 -23775576.70749 -18526392.83347         0.00041  20224247.14147  20224246.70649
  11563218.25148   9010284.70945         0.00041  23124538.40245  23124533.70548
  16850212.45048  13130003.45841         0.00041         0.00041  24014390.18948
  11463978.44648   8932963.73045         0.00041  22971292.58845  22971290.38648
  -7838814.44049  -6108162.12946         0.00041  21295783.02246  21295780.37849
  -4241092.78448  -3304733.76945         0.00041  23824796.24345  23824786.31548
